<?xml version="1.0" encoding="UTF-8" standalone="no" ?>
<gpx xmlns="http://www.topografix.com/GPX/1/1" xmlns:xsi="http://www.w3.org/2001/XMLSchema-instance" xsi:schemaLocation="http://www.topografix.com/GPX/1/1 http://www.topografix.com/GPX/1/1/gpx.xsd" version="1.1" creator="VisuGPX - https://www.visugpx.com">
  <metadata>
    <name>20250624-Boucle Devecey Moncey et Dame Blanche</name>
    <desc><![CDATA[Sympa mais attention une partie sur la fin totalement hors sentier dans la forêt.]]></desc>
  </metadata>
  <trk>
    <name><![CDATA[20250624-Boucle Devecey Moncey et Dame Blanche]]></name>
    <trkseg>
      <trkpt lat="47.32788" lon="6.01144">
        <ele>275</ele>
        <time>2025-06-24T12:36:33Z</time>
      </trkpt>
      <trkpt lat="47.32792" lon="6.01164">
        <ele>276</ele>
        <time>2025-06-24T12:36:46Z</time>
      </trkpt>
      <trkpt lat="47.32797" lon="6.01183">
        <ele>276</ele>
        <time>2025-06-24T12:36:55Z</time>
      </trkpt>
      <trkpt lat="47.32798" lon="6.01204">
        <ele>276</ele>
        <time>2025-06-24T12:37:04Z</time>
      </trkpt>
      <trkpt lat="47.32811" lon="6.01211">
        <ele>276</ele>
        <time>2025-06-24T12:37:14Z</time>
      </trkpt>
      <trkpt lat="47.32824" lon="6.01205">
        <ele>277</ele>
        <time>2025-06-24T12:37:24Z</time>
      </trkpt>
      <trkpt lat="47.32837" lon="6.01216">
        <ele>277</ele>
        <time>2025-06-24T12:37:36Z</time>
      </trkpt>
      <trkpt lat="47.32843" lon="6.01234">
        <ele>276</ele>
        <time>2025-06-24T12:37:45Z</time>
      </trkpt>
      <trkpt lat="47.32848" lon="6.01252">
        <ele>276</ele>
        <time>2025-06-24T12:37:53Z</time>
      </trkpt>
      <trkpt lat="47.32852" lon="6.01273">
        <ele>276</ele>
        <time>2025-06-24T12:38:02Z</time>
      </trkpt>
      <trkpt lat="47.32859" lon="6.01291">
        <ele>276</ele>
        <time>2025-06-24T12:38:13Z</time>
      </trkpt>
      <trkpt lat="47.3287" lon="6.01302">
        <ele>276</ele>
        <time>2025-06-24T12:38:24Z</time>
      </trkpt>
      <trkpt lat="47.32875" lon="6.01321">
        <ele>277</ele>
        <time>2025-06-24T12:38:33Z</time>
      </trkpt>
      <trkpt lat="47.32878" lon="6.01342">
        <ele>277</ele>
        <time>2025-06-24T12:38:41Z</time>
      </trkpt>
      <trkpt lat="47.32881" lon="6.01361">
        <ele>276</ele>
        <time>2025-06-24T12:38:51Z</time>
      </trkpt>
      <trkpt lat="47.32884" lon="6.01382">
        <ele>277</ele>
        <time>2025-06-24T12:39:01Z</time>
      </trkpt>
      <trkpt lat="47.32886" lon="6.01402">
        <ele>276</ele>
        <time>2025-06-24T12:39:10Z</time>
      </trkpt>
      <trkpt lat="47.32889" lon="6.01422">
        <ele>276</ele>
        <time>2025-06-24T12:39:19Z</time>
      </trkpt>
      <trkpt lat="47.32892" lon="6.01441">
        <ele>276</ele>
        <time>2025-06-24T12:39:28Z</time>
      </trkpt>
      <trkpt lat="47.32895" lon="6.01461">
        <ele>275</ele>
        <time>2025-06-24T12:39:37Z</time>
      </trkpt>
      <trkpt lat="47.32898" lon="6.01481">
        <ele>275</ele>
        <time>2025-06-24T12:39:48Z</time>
      </trkpt>
      <trkpt lat="47.32901" lon="6.01501">
        <ele>275</ele>
        <time>2025-06-24T12:39:57Z</time>
      </trkpt>
      <trkpt lat="47.32906" lon="6.0152">
        <ele>273</ele>
        <time>2025-06-24T12:40:06Z</time>
      </trkpt>
      <trkpt lat="47.32905" lon="6.0154">
        <ele>274</ele>
        <time>2025-06-24T12:40:16Z</time>
      </trkpt>
      <trkpt lat="47.32911" lon="6.01559">
        <ele>274</ele>
        <time>2025-06-24T12:40:25Z</time>
      </trkpt>
      <trkpt lat="47.32915" lon="6.01579">
        <ele>274</ele>
        <time>2025-06-24T12:40:35Z</time>
      </trkpt>
      <trkpt lat="47.32917" lon="6.01598">
        <ele>274</ele>
        <time>2025-06-24T12:40:44Z</time>
      </trkpt>
      <trkpt lat="47.32919" lon="6.01618">
        <ele>273</ele>
        <time>2025-06-24T12:40:53Z</time>
      </trkpt>
      <trkpt lat="47.32922" lon="6.01638">
        <ele>273</ele>
        <time>2025-06-24T12:41:03Z</time>
      </trkpt>
      <trkpt lat="47.32927" lon="6.01658">
        <ele>273</ele>
        <time>2025-06-24T12:41:12Z</time>
      </trkpt>
      <trkpt lat="47.32931" lon="6.01677">
        <ele>272</ele>
        <time>2025-06-24T12:41:21Z</time>
      </trkpt>
      <trkpt lat="47.32933" lon="6.01697">
        <ele>273</ele>
        <time>2025-06-24T12:41:31Z</time>
      </trkpt>
      <trkpt lat="47.32935" lon="6.01718">
        <ele>273</ele>
        <time>2025-06-24T12:41:41Z</time>
      </trkpt>
      <trkpt lat="47.32938" lon="6.01738">
        <ele>272</ele>
        <time>2025-06-24T12:41:50Z</time>
      </trkpt>
      <trkpt lat="47.32943" lon="6.01757">
        <ele>272</ele>
        <time>2025-06-24T12:41:58Z</time>
      </trkpt>
      <trkpt lat="47.32946" lon="6.01779">
        <ele>272</ele>
        <time>2025-06-24T12:42:09Z</time>
      </trkpt>
      <trkpt lat="47.32949" lon="6.01799">
        <ele>272</ele>
        <time>2025-06-24T12:42:18Z</time>
      </trkpt>
      <trkpt lat="47.32954" lon="6.01818">
        <ele>271</ele>
        <time>2025-06-24T12:42:28Z</time>
      </trkpt>
      <trkpt lat="47.32956" lon="6.01838">
        <ele>271</ele>
        <time>2025-06-24T12:42:38Z</time>
      </trkpt>
      <trkpt lat="47.32961" lon="6.01857">
        <ele>271</ele>
        <time>2025-06-24T12:42:47Z</time>
      </trkpt>
      <trkpt lat="47.32966" lon="6.01876">
        <ele>271</ele>
        <time>2025-06-24T12:42:56Z</time>
      </trkpt>
      <trkpt lat="47.32969" lon="6.01897">
        <ele>270</ele>
        <time>2025-06-24T12:43:06Z</time>
      </trkpt>
      <trkpt lat="47.32972" lon="6.01917">
        <ele>270</ele>
        <time>2025-06-24T12:43:15Z</time>
      </trkpt>
      <trkpt lat="47.32976" lon="6.01937">
        <ele>270</ele>
        <time>2025-06-24T12:43:26Z</time>
      </trkpt>
      <trkpt lat="47.32979" lon="6.01958">
        <ele>270</ele>
        <time>2025-06-24T12:43:36Z</time>
      </trkpt>
      <trkpt lat="47.32982" lon="6.01977">
        <ele>270</ele>
        <time>2025-06-24T12:43:45Z</time>
      </trkpt>
      <trkpt lat="47.32987" lon="6.01997">
        <ele>270</ele>
        <time>2025-06-24T12:43:55Z</time>
      </trkpt>
      <trkpt lat="47.3299" lon="6.02017">
        <ele>270</ele>
        <time>2025-06-24T12:44:05Z</time>
      </trkpt>
      <trkpt lat="47.32991" lon="6.02038">
        <ele>270</ele>
        <time>2025-06-24T12:44:14Z</time>
      </trkpt>
      <trkpt lat="47.32996" lon="6.02058">
        <ele>270</ele>
        <time>2025-06-24T12:44:24Z</time>
      </trkpt>
      <trkpt lat="47.32998" lon="6.02078">
        <ele>270</ele>
        <time>2025-06-24T12:44:33Z</time>
      </trkpt>
      <trkpt lat="47.33002" lon="6.02099">
        <ele>271</ele>
        <time>2025-06-24T12:44:43Z</time>
      </trkpt>
      <trkpt lat="47.33006" lon="6.02118">
        <ele>271</ele>
        <time>2025-06-24T12:44:52Z</time>
      </trkpt>
      <trkpt lat="47.3301" lon="6.02137">
        <ele>271</ele>
        <time>2025-06-24T12:45:02Z</time>
      </trkpt>
      <trkpt lat="47.33012" lon="6.02157">
        <ele>271</ele>
        <time>2025-06-24T12:45:12Z</time>
      </trkpt>
      <trkpt lat="47.33015" lon="6.02177">
        <ele>271</ele>
        <time>2025-06-24T12:45:23Z</time>
      </trkpt>
      <trkpt lat="47.33019" lon="6.02196">
        <ele>271</ele>
        <time>2025-06-24T12:45:32Z</time>
      </trkpt>
      <trkpt lat="47.33023" lon="6.02216">
        <ele>271</ele>
        <time>2025-06-24T12:45:42Z</time>
      </trkpt>
      <trkpt lat="47.33026" lon="6.02236">
        <ele>271</ele>
        <time>2025-06-24T12:45:51Z</time>
      </trkpt>
      <trkpt lat="47.33028" lon="6.02255">
        <ele>271</ele>
        <time>2025-06-24T12:46:00Z</time>
      </trkpt>
      <trkpt lat="47.33033" lon="6.02274">
        <ele>268</ele>
        <time>2025-06-24T12:46:09Z</time>
      </trkpt>
      <trkpt lat="47.33037" lon="6.02293">
        <ele>269</ele>
        <time>2025-06-24T12:46:17Z</time>
      </trkpt>
      <trkpt lat="47.3304" lon="6.02313">
        <ele>272</ele>
        <time>2025-06-24T12:46:27Z</time>
      </trkpt>
      <trkpt lat="47.33043" lon="6.02334">
        <ele>269</ele>
        <time>2025-06-24T12:46:38Z</time>
      </trkpt>
      <trkpt lat="47.3305" lon="6.02352">
        <ele>270</ele>
        <time>2025-06-24T12:46:47Z</time>
      </trkpt>
      <trkpt lat="47.33056" lon="6.02371">
        <ele>270</ele>
        <time>2025-06-24T12:46:57Z</time>
      </trkpt>
      <trkpt lat="47.3306" lon="6.02391">
        <ele>270</ele>
        <time>2025-06-24T12:47:07Z</time>
      </trkpt>
      <trkpt lat="47.33064" lon="6.0241">
        <ele>268</ele>
        <time>2025-06-24T12:47:16Z</time>
      </trkpt>
      <trkpt lat="47.33069" lon="6.0243">
        <ele>270</ele>
        <time>2025-06-24T12:47:26Z</time>
      </trkpt>
      <trkpt lat="47.33074" lon="6.02449">
        <ele>271</ele>
        <time>2025-06-24T12:47:36Z</time>
      </trkpt>
      <trkpt lat="47.3308" lon="6.02468">
        <ele>270</ele>
        <time>2025-06-24T12:47:46Z</time>
      </trkpt>
      <trkpt lat="47.33084" lon="6.02487">
        <ele>271</ele>
        <time>2025-06-24T12:47:56Z</time>
      </trkpt>
      <trkpt lat="47.33089" lon="6.02506">
        <ele>270</ele>
        <time>2025-06-24T12:48:07Z</time>
      </trkpt>
      <trkpt lat="47.33096" lon="6.02524">
        <ele>270</ele>
        <time>2025-06-24T12:48:17Z</time>
      </trkpt>
      <trkpt lat="47.33102" lon="6.02542">
        <ele>272</ele>
        <time>2025-06-24T12:48:27Z</time>
      </trkpt>
      <trkpt lat="47.33109" lon="6.0256">
        <ele>272</ele>
        <time>2025-06-24T12:48:37Z</time>
      </trkpt>
      <trkpt lat="47.33115" lon="6.02578">
        <ele>272</ele>
        <time>2025-06-24T12:48:47Z</time>
      </trkpt>
      <trkpt lat="47.33122" lon="6.02596">
        <ele>272</ele>
        <time>2025-06-24T12:48:57Z</time>
      </trkpt>
      <trkpt lat="47.33129" lon="6.02614">
        <ele>273</ele>
        <time>2025-06-24T12:49:07Z</time>
      </trkpt>
      <trkpt lat="47.33136" lon="6.02631">
        <ele>272</ele>
        <time>2025-06-24T12:49:16Z</time>
      </trkpt>
      <trkpt lat="47.33143" lon="6.02648">
        <ele>272</ele>
        <time>2025-06-24T12:49:25Z</time>
      </trkpt>
      <trkpt lat="47.3315" lon="6.02666">
        <ele>273</ele>
        <time>2025-06-24T12:49:35Z</time>
      </trkpt>
      <trkpt lat="47.33157" lon="6.02683">
        <ele>273</ele>
        <time>2025-06-24T12:49:46Z</time>
      </trkpt>
      <trkpt lat="47.33166" lon="6.027">
        <ele>273</ele>
        <time>2025-06-24T12:49:56Z</time>
      </trkpt>
      <trkpt lat="47.33171" lon="6.02719">
        <ele>272</ele>
        <time>2025-06-24T12:50:06Z</time>
      </trkpt>
      <trkpt lat="47.33185" lon="6.02725">
        <ele>274</ele>
        <time>2025-06-24T12:50:19Z</time>
      </trkpt>
      <trkpt lat="47.33192" lon="6.02743">
        <ele>275</ele>
        <time>2025-06-24T12:50:27Z</time>
      </trkpt>
      <trkpt lat="47.33195" lon="6.02764">
        <ele>275</ele>
        <time>2025-06-24T12:50:34Z</time>
      </trkpt>
      <trkpt lat="47.33197" lon="6.02783">
        <ele>274</ele>
        <time>2025-06-24T12:50:42Z</time>
      </trkpt>
      <trkpt lat="47.33203" lon="6.02801">
        <ele>275</ele>
        <time>2025-06-24T12:50:51Z</time>
      </trkpt>
      <trkpt lat="47.3321" lon="6.02819">
        <ele>275</ele>
        <time>2025-06-24T12:50:59Z</time>
      </trkpt>
      <trkpt lat="47.33219" lon="6.02834">
        <ele>275</ele>
        <time>2025-06-24T12:51:08Z</time>
      </trkpt>
      <trkpt lat="47.33228" lon="6.0285">
        <ele>275</ele>
        <time>2025-06-24T12:51:17Z</time>
      </trkpt>
      <trkpt lat="47.33233" lon="6.02869">
        <ele>275</ele>
        <time>2025-06-24T12:51:27Z</time>
      </trkpt>
      <trkpt lat="47.33239" lon="6.02887">
        <ele>276</ele>
        <time>2025-06-24T12:51:37Z</time>
      </trkpt>
      <trkpt lat="47.33248" lon="6.02905">
        <ele>276</ele>
        <time>2025-06-24T12:51:47Z</time>
      </trkpt>
      <trkpt lat="47.33257" lon="6.02921">
        <ele>276</ele>
        <time>2025-06-24T12:51:56Z</time>
      </trkpt>
      <trkpt lat="47.33263" lon="6.02939">
        <ele>276</ele>
        <time>2025-06-24T12:52:05Z</time>
      </trkpt>
      <trkpt lat="47.3327" lon="6.02956">
        <ele>276</ele>
        <time>2025-06-24T12:52:14Z</time>
      </trkpt>
      <trkpt lat="47.33279" lon="6.02972">
        <ele>276</ele>
        <time>2025-06-24T12:52:23Z</time>
      </trkpt>
      <trkpt lat="47.33285" lon="6.0299">
        <ele>275</ele>
        <time>2025-06-24T12:52:32Z</time>
      </trkpt>
      <trkpt lat="47.33292" lon="6.03009">
        <ele>276</ele>
        <time>2025-06-24T12:52:42Z</time>
      </trkpt>
      <trkpt lat="47.333" lon="6.03025">
        <ele>277</ele>
        <time>2025-06-24T12:52:52Z</time>
      </trkpt>
      <trkpt lat="47.33307" lon="6.03043">
        <ele>275</ele>
        <time>2025-06-24T12:53:01Z</time>
      </trkpt>
      <trkpt lat="47.33313" lon="6.03062">
        <ele>276</ele>
        <time>2025-06-24T12:53:10Z</time>
      </trkpt>
      <trkpt lat="47.33322" lon="6.03077">
        <ele>276</ele>
        <time>2025-06-24T12:53:19Z</time>
      </trkpt>
      <trkpt lat="47.33328" lon="6.03095">
        <ele>276</ele>
        <time>2025-06-24T12:53:28Z</time>
      </trkpt>
      <trkpt lat="47.33336" lon="6.03112">
        <ele>273</ele>
        <time>2025-06-24T12:53:36Z</time>
      </trkpt>
      <trkpt lat="47.33344" lon="6.03128">
        <ele>276</ele>
        <time>2025-06-24T12:53:46Z</time>
      </trkpt>
      <trkpt lat="47.33351" lon="6.03146">
        <ele>276</ele>
        <time>2025-06-24T12:53:57Z</time>
      </trkpt>
      <trkpt lat="47.33358" lon="6.03163">
        <ele>276</ele>
        <time>2025-06-24T12:54:06Z</time>
      </trkpt>
      <trkpt lat="47.33365" lon="6.03181">
        <ele>276</ele>
        <time>2025-06-24T12:54:15Z</time>
      </trkpt>
      <trkpt lat="47.33371" lon="6.032">
        <ele>274</ele>
        <time>2025-06-24T12:54:24Z</time>
      </trkpt>
      <trkpt lat="47.33378" lon="6.03217">
        <ele>276</ele>
        <time>2025-06-24T12:54:34Z</time>
      </trkpt>
      <trkpt lat="47.33386" lon="6.03234">
        <ele>279</ele>
        <time>2025-06-24T12:54:43Z</time>
      </trkpt>
      <trkpt lat="47.33392" lon="6.03252">
        <ele>276</ele>
        <time>2025-06-24T12:54:52Z</time>
      </trkpt>
      <trkpt lat="47.33399" lon="6.03269">
        <ele>276</ele>
        <time>2025-06-24T12:55:01Z</time>
      </trkpt>
      <trkpt lat="47.33406" lon="6.03286">
        <ele>276</ele>
        <time>2025-06-24T12:55:11Z</time>
      </trkpt>
      <trkpt lat="47.33415" lon="6.03303">
        <ele>276</ele>
        <time>2025-06-24T12:55:21Z</time>
      </trkpt>
      <trkpt lat="47.33421" lon="6.03321">
        <ele>276</ele>
        <time>2025-06-24T12:55:30Z</time>
      </trkpt>
      <trkpt lat="47.33428" lon="6.03338">
        <ele>277</ele>
        <time>2025-06-24T12:55:38Z</time>
      </trkpt>
      <trkpt lat="47.33436" lon="6.03355">
        <ele>276</ele>
        <time>2025-06-24T12:55:46Z</time>
      </trkpt>
      <trkpt lat="47.33444" lon="6.03372">
        <ele>277</ele>
        <time>2025-06-24T12:55:55Z</time>
      </trkpt>
      <trkpt lat="47.3345" lon="6.0339">
        <ele>277</ele>
        <time>2025-06-24T12:56:04Z</time>
      </trkpt>
      <trkpt lat="47.33457" lon="6.03409">
        <ele>276</ele>
        <time>2025-06-24T12:56:14Z</time>
      </trkpt>
      <trkpt lat="47.33465" lon="6.03425">
        <ele>277</ele>
        <time>2025-06-24T12:56:22Z</time>
      </trkpt>
      <trkpt lat="47.33472" lon="6.03442">
        <ele>277</ele>
        <time>2025-06-24T12:56:31Z</time>
      </trkpt>
      <trkpt lat="47.33479" lon="6.0346">
        <ele>277</ele>
        <time>2025-06-24T12:56:40Z</time>
      </trkpt>
      <trkpt lat="47.33484" lon="6.03479">
        <ele>276</ele>
        <time>2025-06-24T12:56:49Z</time>
      </trkpt>
      <trkpt lat="47.33493" lon="6.03495">
        <ele>276</ele>
        <time>2025-06-24T12:56:58Z</time>
      </trkpt>
      <trkpt lat="47.335" lon="6.03513">
        <ele>276</ele>
        <time>2025-06-24T12:57:08Z</time>
      </trkpt>
      <trkpt lat="47.33507" lon="6.0353">
        <ele>276</ele>
        <time>2025-06-24T12:57:17Z</time>
      </trkpt>
      <trkpt lat="47.33515" lon="6.03547">
        <ele>275</ele>
        <time>2025-06-24T12:57:27Z</time>
      </trkpt>
      <trkpt lat="47.33522" lon="6.03565">
        <ele>275</ele>
        <time>2025-06-24T12:57:36Z</time>
      </trkpt>
      <trkpt lat="47.33529" lon="6.03582">
        <ele>275</ele>
        <time>2025-06-24T12:57:46Z</time>
      </trkpt>
      <trkpt lat="47.33536" lon="6.036">
        <ele>274</ele>
        <time>2025-06-24T12:57:55Z</time>
      </trkpt>
      <trkpt lat="47.33545" lon="6.03616">
        <ele>275</ele>
        <time>2025-06-24T12:58:05Z</time>
      </trkpt>
      <trkpt lat="47.33551" lon="6.03634">
        <ele>275</ele>
        <time>2025-06-24T12:58:14Z</time>
      </trkpt>
      <trkpt lat="47.33559" lon="6.03651">
        <ele>275</ele>
        <time>2025-06-24T12:58:23Z</time>
      </trkpt>
      <trkpt lat="47.33564" lon="6.03671">
        <ele>275</ele>
        <time>2025-06-24T12:58:33Z</time>
      </trkpt>
      <trkpt lat="47.33572" lon="6.03688">
        <ele>276</ele>
        <time>2025-06-24T12:58:43Z</time>
      </trkpt>
      <trkpt lat="47.33579" lon="6.03705">
        <ele>273</ele>
        <time>2025-06-24T12:58:52Z</time>
      </trkpt>
      <trkpt lat="47.33586" lon="6.03723">
        <ele>273</ele>
        <time>2025-06-24T12:59:01Z</time>
      </trkpt>
      <trkpt lat="47.33592" lon="6.0374">
        <ele>275</ele>
        <time>2025-06-24T12:59:10Z</time>
      </trkpt>
      <trkpt lat="47.336" lon="6.03757">
        <ele>273</ele>
        <time>2025-06-24T12:59:20Z</time>
      </trkpt>
      <trkpt lat="47.33608" lon="6.03775">
        <ele>278</ele>
        <time>2025-06-24T12:59:29Z</time>
      </trkpt>
      <trkpt lat="47.33616" lon="6.03792">
        <ele>275</ele>
        <time>2025-06-24T12:59:40Z</time>
      </trkpt>
      <trkpt lat="47.33619" lon="6.03811">
        <ele>272</ele>
        <time>2025-06-24T12:59:50Z</time>
      </trkpt>
      <trkpt lat="47.33624" lon="6.0383">
        <ele>273</ele>
        <time>2025-06-24T12:59:59Z</time>
      </trkpt>
      <trkpt lat="47.33634" lon="6.03844">
        <ele>276</ele>
        <time>2025-06-24T13:00:07Z</time>
      </trkpt>
      <trkpt lat="47.3364" lon="6.03863">
        <ele>273</ele>
        <time>2025-06-24T13:00:17Z</time>
      </trkpt>
      <trkpt lat="47.3365" lon="6.03879">
        <ele>274</ele>
        <time>2025-06-24T13:00:27Z</time>
      </trkpt>
      <trkpt lat="47.33658" lon="6.03897">
        <ele>275</ele>
        <time>2025-06-24T13:00:37Z</time>
      </trkpt>
      <trkpt lat="47.33665" lon="6.03916">
        <ele>274</ele>
        <time>2025-06-24T13:00:47Z</time>
      </trkpt>
      <trkpt lat="47.33673" lon="6.03932">
        <ele>273</ele>
        <time>2025-06-24T13:00:56Z</time>
      </trkpt>
      <trkpt lat="47.33679" lon="6.0395">
        <ele>274</ele>
        <time>2025-06-24T13:01:04Z</time>
      </trkpt>
      <trkpt lat="47.33686" lon="6.03968">
        <ele>274</ele>
        <time>2025-06-24T13:01:13Z</time>
      </trkpt>
      <trkpt lat="47.33694" lon="6.03986">
        <ele>273</ele>
        <time>2025-06-24T13:01:22Z</time>
      </trkpt>
      <trkpt lat="47.33699" lon="6.04004">
        <ele>274</ele>
        <time>2025-06-24T13:01:31Z</time>
      </trkpt>
      <trkpt lat="47.33708" lon="6.0402">
        <ele>274</ele>
        <time>2025-06-24T13:01:41Z</time>
      </trkpt>
      <trkpt lat="47.33716" lon="6.04036">
        <ele>274</ele>
        <time>2025-06-24T13:01:49Z</time>
      </trkpt>
      <trkpt lat="47.33724" lon="6.04054">
        <ele>274</ele>
        <time>2025-06-24T13:01:58Z</time>
      </trkpt>
      <trkpt lat="47.33732" lon="6.0407">
        <ele>274</ele>
        <time>2025-06-24T13:02:08Z</time>
      </trkpt>
      <trkpt lat="47.33736" lon="6.04091">
        <ele>274</ele>
        <time>2025-06-24T13:02:17Z</time>
      </trkpt>
      <trkpt lat="47.33743" lon="6.04108">
        <ele>274</ele>
        <time>2025-06-24T13:02:25Z</time>
      </trkpt>
      <trkpt lat="47.33752" lon="6.04124">
        <ele>274</ele>
        <time>2025-06-24T13:02:35Z</time>
      </trkpt>
      <trkpt lat="47.33761" lon="6.04139">
        <ele>276</ele>
        <time>2025-06-24T13:02:44Z</time>
      </trkpt>
      <trkpt lat="47.33769" lon="6.04157">
        <ele>275</ele>
        <time>2025-06-24T13:02:54Z</time>
      </trkpt>
      <trkpt lat="47.33771" lon="6.04177">
        <ele>276</ele>
        <time>2025-06-24T13:03:02Z</time>
      </trkpt>
      <trkpt lat="47.3378" lon="6.04192">
        <ele>275</ele>
        <time>2025-06-24T13:03:11Z</time>
      </trkpt>
      <trkpt lat="47.33788" lon="6.04209">
        <ele>276</ele>
        <time>2025-06-24T13:03:21Z</time>
      </trkpt>
      <trkpt lat="47.33794" lon="6.04227">
        <ele>276</ele>
        <time>2025-06-24T13:03:29Z</time>
      </trkpt>
      <trkpt lat="47.338" lon="6.04247">
        <ele>275</ele>
        <time>2025-06-24T13:03:39Z</time>
      </trkpt>
      <trkpt lat="47.33807" lon="6.04265">
        <ele>276</ele>
        <time>2025-06-24T13:03:49Z</time>
      </trkpt>
      <trkpt lat="47.33809" lon="6.04285">
        <ele>275</ele>
        <time>2025-06-24T13:03:59Z</time>
      </trkpt>
      <trkpt lat="47.33815" lon="6.04304">
        <ele>276</ele>
        <time>2025-06-24T13:04:09Z</time>
      </trkpt>
      <trkpt lat="47.33822" lon="6.04324">
        <ele>276</ele>
        <time>2025-06-24T13:04:20Z</time>
      </trkpt>
      <trkpt lat="47.33828" lon="6.04343">
        <ele>275</ele>
        <time>2025-06-24T13:04:30Z</time>
      </trkpt>
      <trkpt lat="47.33832" lon="6.04362">
        <ele>277</ele>
        <time>2025-06-24T13:04:39Z</time>
      </trkpt>
      <trkpt lat="47.33837" lon="6.04382">
        <ele>277</ele>
        <time>2025-06-24T13:04:49Z</time>
      </trkpt>
      <trkpt lat="47.33841" lon="6.04402">
        <ele>276</ele>
        <time>2025-06-24T13:04:58Z</time>
      </trkpt>
      <trkpt lat="47.33847" lon="6.0442">
        <ele>277</ele>
        <time>2025-06-24T13:05:07Z</time>
      </trkpt>
      <trkpt lat="47.33851" lon="6.04439">
        <ele>277</ele>
        <time>2025-06-24T13:05:16Z</time>
      </trkpt>
      <trkpt lat="47.33856" lon="6.04458">
        <ele>276</ele>
        <time>2025-06-24T13:05:26Z</time>
      </trkpt>
      <trkpt lat="47.33859" lon="6.04478">
        <ele>277</ele>
        <time>2025-06-24T13:05:35Z</time>
      </trkpt>
      <trkpt lat="47.33864" lon="6.04497">
        <ele>276</ele>
        <time>2025-06-24T13:05:44Z</time>
      </trkpt>
      <trkpt lat="47.33867" lon="6.04517">
        <ele>277</ele>
        <time>2025-06-24T13:05:54Z</time>
      </trkpt>
      <trkpt lat="47.3387" lon="6.04538">
        <ele>277</ele>
        <time>2025-06-24T13:06:05Z</time>
      </trkpt>
      <trkpt lat="47.33872" lon="6.04558">
        <ele>278</ele>
        <time>2025-06-24T13:06:13Z</time>
      </trkpt>
      <trkpt lat="47.33874" lon="6.04579">
        <ele>277</ele>
        <time>2025-06-24T13:06:23Z</time>
      </trkpt>
      <trkpt lat="47.33878" lon="6.04598">
        <ele>278</ele>
        <time>2025-06-24T13:06:32Z</time>
      </trkpt>
      <trkpt lat="47.3388" lon="6.04619">
        <ele>278</ele>
        <time>2025-06-24T13:06:42Z</time>
      </trkpt>
      <trkpt lat="47.33883" lon="6.0464">
        <ele>278</ele>
        <time>2025-06-24T13:06:52Z</time>
      </trkpt>
      <trkpt lat="47.33885" lon="6.04661">
        <ele>279</ele>
        <time>2025-06-24T13:07:02Z</time>
      </trkpt>
      <trkpt lat="47.33886" lon="6.04682">
        <ele>278</ele>
        <time>2025-06-24T13:07:11Z</time>
      </trkpt>
      <trkpt lat="47.33886" lon="6.04702">
        <ele>278</ele>
        <time>2025-06-24T13:07:19Z</time>
      </trkpt>
      <trkpt lat="47.33886" lon="6.04722">
        <ele>278</ele>
        <time>2025-06-24T13:07:29Z</time>
      </trkpt>
      <trkpt lat="47.33888" lon="6.04742">
        <ele>278</ele>
        <time>2025-06-24T13:07:38Z</time>
      </trkpt>
      <trkpt lat="47.33891" lon="6.04762">
        <ele>278</ele>
        <time>2025-06-24T13:07:47Z</time>
      </trkpt>
      <trkpt lat="47.33893" lon="6.04789">
        <ele>279</ele>
        <time>2025-06-24T13:08:00Z</time>
      </trkpt>
      <trkpt lat="47.33892" lon="6.04809">
        <ele>279</ele>
        <time>2025-06-24T13:08:09Z</time>
      </trkpt>
      <trkpt lat="47.33893" lon="6.04829">
        <ele>279</ele>
        <time>2025-06-24T13:08:19Z</time>
      </trkpt>
      <trkpt lat="47.33896" lon="6.04848">
        <ele>279</ele>
        <time>2025-06-24T13:08:27Z</time>
      </trkpt>
      <trkpt lat="47.33898" lon="6.0487">
        <ele>279</ele>
        <time>2025-06-24T13:08:37Z</time>
      </trkpt>
      <trkpt lat="47.339" lon="6.04892">
        <ele>279</ele>
        <time>2025-06-24T13:08:47Z</time>
      </trkpt>
      <trkpt lat="47.33903" lon="6.04912">
        <ele>280</ele>
        <time>2025-06-24T13:08:56Z</time>
      </trkpt>
      <trkpt lat="47.33904" lon="6.04932">
        <ele>280</ele>
        <time>2025-06-24T13:09:07Z</time>
      </trkpt>
      <trkpt lat="47.33905" lon="6.04952">
        <ele>281</ele>
        <time>2025-06-24T13:09:17Z</time>
      </trkpt>
      <trkpt lat="47.33909" lon="6.04971">
        <ele>281</ele>
        <time>2025-06-24T13:09:26Z</time>
      </trkpt>
      <trkpt lat="47.33909" lon="6.04991">
        <ele>280</ele>
        <time>2025-06-24T13:09:34Z</time>
      </trkpt>
      <trkpt lat="47.33912" lon="6.05011">
        <ele>281</ele>
        <time>2025-06-24T13:09:43Z</time>
      </trkpt>
      <trkpt lat="47.33915" lon="6.05031">
        <ele>281</ele>
        <time>2025-06-24T13:09:51Z</time>
      </trkpt>
      <trkpt lat="47.33914" lon="6.05051">
        <ele>282</ele>
        <time>2025-06-24T13:10:00Z</time>
      </trkpt>
      <trkpt lat="47.33914" lon="6.05071">
        <ele>282</ele>
        <time>2025-06-24T13:10:10Z</time>
      </trkpt>
      <trkpt lat="47.33917" lon="6.05093">
        <ele>282</ele>
        <time>2025-06-24T13:10:20Z</time>
      </trkpt>
      <trkpt lat="47.33921" lon="6.05113">
        <ele>283</ele>
        <time>2025-06-24T13:10:29Z</time>
      </trkpt>
      <trkpt lat="47.3392" lon="6.05134">
        <ele>281</ele>
        <time>2025-06-24T13:10:40Z</time>
      </trkpt>
      <trkpt lat="47.33925" lon="6.05153">
        <ele>283</ele>
        <time>2025-06-24T13:10:49Z</time>
      </trkpt>
      <trkpt lat="47.33928" lon="6.05173">
        <ele>283</ele>
        <time>2025-06-24T13:10:59Z</time>
      </trkpt>
      <trkpt lat="47.3393" lon="6.05193">
        <ele>284</ele>
        <time>2025-06-24T13:11:07Z</time>
      </trkpt>
      <trkpt lat="47.33931" lon="6.05213">
        <ele>283</ele>
        <time>2025-06-24T13:11:17Z</time>
      </trkpt>
      <trkpt lat="47.33929" lon="6.05234">
        <ele>285</ele>
        <time>2025-06-24T13:11:27Z</time>
      </trkpt>
      <trkpt lat="47.33931" lon="6.05254">
        <ele>284</ele>
        <time>2025-06-24T13:11:35Z</time>
      </trkpt>
      <trkpt lat="47.33933" lon="6.05274">
        <ele>284</ele>
        <time>2025-06-24T13:11:44Z</time>
      </trkpt>
      <trkpt lat="47.33934" lon="6.05294">
        <ele>285</ele>
        <time>2025-06-24T13:11:52Z</time>
      </trkpt>
      <trkpt lat="47.33937" lon="6.05314">
        <ele>285</ele>
        <time>2025-06-24T13:12:03Z</time>
      </trkpt>
      <trkpt lat="47.33939" lon="6.05335">
        <ele>285</ele>
        <time>2025-06-24T13:12:12Z</time>
      </trkpt>
      <trkpt lat="47.33939" lon="6.05356">
        <ele>285</ele>
        <time>2025-06-24T13:12:22Z</time>
      </trkpt>
      <trkpt lat="47.3394" lon="6.05376">
        <ele>285</ele>
        <time>2025-06-24T13:12:32Z</time>
      </trkpt>
      <trkpt lat="47.33942" lon="6.05396">
        <ele>285</ele>
        <time>2025-06-24T13:12:42Z</time>
      </trkpt>
      <trkpt lat="47.33942" lon="6.05418">
        <ele>285</ele>
        <time>2025-06-24T13:12:51Z</time>
      </trkpt>
      <trkpt lat="47.33943" lon="6.05439">
        <ele>285</ele>
        <time>2025-06-24T13:13:00Z</time>
      </trkpt>
      <trkpt lat="47.33945" lon="6.05459">
        <ele>285</ele>
        <time>2025-06-24T13:13:09Z</time>
      </trkpt>
      <trkpt lat="47.33947" lon="6.05479">
        <ele>286</ele>
        <time>2025-06-24T13:13:17Z</time>
      </trkpt>
      <trkpt lat="47.33948" lon="6.055">
        <ele>286</ele>
        <time>2025-06-24T13:13:27Z</time>
      </trkpt>
      <trkpt lat="47.33949" lon="6.05521">
        <ele>286</ele>
        <time>2025-06-24T13:13:36Z</time>
      </trkpt>
      <trkpt lat="47.33951" lon="6.05541">
        <ele>286</ele>
        <time>2025-06-24T13:13:45Z</time>
      </trkpt>
      <trkpt lat="47.33955" lon="6.05561">
        <ele>286</ele>
        <time>2025-06-24T13:13:54Z</time>
      </trkpt>
      <trkpt lat="47.33955" lon="6.05581">
        <ele>286</ele>
        <time>2025-06-24T13:14:03Z</time>
      </trkpt>
      <trkpt lat="47.33957" lon="6.05601">
        <ele>286</ele>
        <time>2025-06-24T13:14:12Z</time>
      </trkpt>
      <trkpt lat="47.3396" lon="6.05622">
        <ele>286</ele>
        <time>2025-06-24T13:14:22Z</time>
      </trkpt>
      <trkpt lat="47.33961" lon="6.05643">
        <ele>286</ele>
        <time>2025-06-24T13:14:31Z</time>
      </trkpt>
      <trkpt lat="47.33963" lon="6.05663">
        <ele>286</ele>
        <time>2025-06-24T13:14:39Z</time>
      </trkpt>
      <trkpt lat="47.33962" lon="6.05684">
        <ele>286</ele>
        <time>2025-06-24T13:14:49Z</time>
      </trkpt>
      <trkpt lat="47.33964" lon="6.05704">
        <ele>286</ele>
        <time>2025-06-24T13:14:58Z</time>
      </trkpt>
      <trkpt lat="47.33966" lon="6.05724">
        <ele>286</ele>
        <time>2025-06-24T13:15:08Z</time>
      </trkpt>
      <trkpt lat="47.33966" lon="6.05746">
        <ele>286</ele>
        <time>2025-06-24T13:15:17Z</time>
      </trkpt>
      <trkpt lat="47.33969" lon="6.05767">
        <ele>286</ele>
        <time>2025-06-24T13:15:27Z</time>
      </trkpt>
      <trkpt lat="47.33971" lon="6.05788">
        <ele>286</ele>
        <time>2025-06-24T13:15:36Z</time>
      </trkpt>
      <trkpt lat="47.33974" lon="6.05809">
        <ele>286</ele>
        <time>2025-06-24T13:15:45Z</time>
      </trkpt>
      <trkpt lat="47.33976" lon="6.0583">
        <ele>286</ele>
        <time>2025-06-24T13:15:55Z</time>
      </trkpt>
      <trkpt lat="47.33977" lon="6.05851">
        <ele>285</ele>
        <time>2025-06-24T13:16:05Z</time>
      </trkpt>
      <trkpt lat="47.33978" lon="6.05873">
        <ele>286</ele>
        <time>2025-06-24T13:16:14Z</time>
      </trkpt>
      <trkpt lat="47.33979" lon="6.05894">
        <ele>285</ele>
        <time>2025-06-24T13:16:24Z</time>
      </trkpt>
      <trkpt lat="47.33982" lon="6.05914">
        <ele>286</ele>
        <time>2025-06-24T13:16:35Z</time>
      </trkpt>
      <trkpt lat="47.33985" lon="6.05933">
        <ele>286</ele>
        <time>2025-06-24T13:16:44Z</time>
      </trkpt>
      <trkpt lat="47.33988" lon="6.05954">
        <ele>286</ele>
        <time>2025-06-24T13:16:53Z</time>
      </trkpt>
      <trkpt lat="47.33989" lon="6.05974">
        <ele>285</ele>
        <time>2025-06-24T13:17:02Z</time>
      </trkpt>
      <trkpt lat="47.33993" lon="6.05995">
        <ele>286</ele>
        <time>2025-06-24T13:17:12Z</time>
      </trkpt>
      <trkpt lat="47.33994" lon="6.06016">
        <ele>286</ele>
        <time>2025-06-24T13:17:20Z</time>
      </trkpt>
      <trkpt lat="47.33993" lon="6.06036">
        <ele>286</ele>
        <time>2025-06-24T13:17:29Z</time>
      </trkpt>
      <trkpt lat="47.33993" lon="6.06058">
        <ele>286</ele>
        <time>2025-06-24T13:17:38Z</time>
      </trkpt>
      <trkpt lat="47.33996" lon="6.06078">
        <ele>286</ele>
        <time>2025-06-24T13:17:47Z</time>
      </trkpt>
      <trkpt lat="47.34" lon="6.06098">
        <ele>286</ele>
        <time>2025-06-24T13:17:56Z</time>
      </trkpt>
      <trkpt lat="47.34004" lon="6.06118">
        <ele>286</ele>
        <time>2025-06-24T13:18:05Z</time>
      </trkpt>
      <trkpt lat="47.34003" lon="6.06139">
        <ele>286</ele>
        <time>2025-06-24T13:18:22Z</time>
      </trkpt>
      <trkpt lat="47.34003" lon="6.06161">
        <ele>286</ele>
        <time>2025-06-24T13:18:31Z</time>
      </trkpt>
      <trkpt lat="47.34004" lon="6.06181">
        <ele>286</ele>
        <time>2025-06-24T13:18:40Z</time>
      </trkpt>
      <trkpt lat="47.34006" lon="6.06201">
        <ele>286</ele>
        <time>2025-06-24T13:18:49Z</time>
      </trkpt>
      <trkpt lat="47.3401" lon="6.06221">
        <ele>286</ele>
        <time>2025-06-24T13:18:58Z</time>
      </trkpt>
      <trkpt lat="47.34013" lon="6.0624">
        <ele>286</ele>
        <time>2025-06-24T13:19:07Z</time>
      </trkpt>
      <trkpt lat="47.34014" lon="6.06261">
        <ele>286</ele>
        <time>2025-06-24T13:19:17Z</time>
      </trkpt>
      <trkpt lat="47.34015" lon="6.06281">
        <ele>286</ele>
        <time>2025-06-24T13:19:26Z</time>
      </trkpt>
      <trkpt lat="47.34016" lon="6.06302">
        <ele>287</ele>
        <time>2025-06-24T13:19:35Z</time>
      </trkpt>
      <trkpt lat="47.34019" lon="6.06324">
        <ele>287</ele>
        <time>2025-06-24T13:19:44Z</time>
      </trkpt>
      <trkpt lat="47.34022" lon="6.06344">
        <ele>287</ele>
        <time>2025-06-24T13:19:54Z</time>
      </trkpt>
      <trkpt lat="47.34023" lon="6.06364">
        <ele>287</ele>
        <time>2025-06-24T13:20:03Z</time>
      </trkpt>
      <trkpt lat="47.34024" lon="6.06384">
        <ele>287</ele>
        <time>2025-06-24T13:20:12Z</time>
      </trkpt>
      <trkpt lat="47.34027" lon="6.06405">
        <ele>287</ele>
        <time>2025-06-24T13:20:22Z</time>
      </trkpt>
      <trkpt lat="47.34029" lon="6.06425">
        <ele>287</ele>
        <time>2025-06-24T13:20:30Z</time>
      </trkpt>
      <trkpt lat="47.34029" lon="6.06446">
        <ele>287</ele>
        <time>2025-06-24T13:20:38Z</time>
      </trkpt>
      <trkpt lat="47.34031" lon="6.06466">
        <ele>287</ele>
        <time>2025-06-24T13:20:47Z</time>
      </trkpt>
      <trkpt lat="47.34034" lon="6.06486">
        <ele>287</ele>
        <time>2025-06-24T13:20:56Z</time>
      </trkpt>
      <trkpt lat="47.34033" lon="6.06506">
        <ele>287</ele>
        <time>2025-06-24T13:21:05Z</time>
      </trkpt>
      <trkpt lat="47.34035" lon="6.06527">
        <ele>286</ele>
        <time>2025-06-24T13:21:15Z</time>
      </trkpt>
      <trkpt lat="47.34038" lon="6.06547">
        <ele>286</ele>
        <time>2025-06-24T13:21:24Z</time>
      </trkpt>
      <trkpt lat="47.34042" lon="6.06566">
        <ele>286</ele>
        <time>2025-06-24T13:21:33Z</time>
      </trkpt>
      <trkpt lat="47.34042" lon="6.06586">
        <ele>286</ele>
        <time>2025-06-24T13:21:40Z</time>
      </trkpt>
      <trkpt lat="47.34041" lon="6.06608">
        <ele>286</ele>
        <time>2025-06-24T13:21:50Z</time>
      </trkpt>
      <trkpt lat="47.34042" lon="6.06628">
        <ele>286</ele>
        <time>2025-06-24T13:21:58Z</time>
      </trkpt>
      <trkpt lat="47.34042" lon="6.06648">
        <ele>286</ele>
        <time>2025-06-24T13:22:07Z</time>
      </trkpt>
      <trkpt lat="47.34045" lon="6.06668">
        <ele>287</ele>
        <time>2025-06-24T13:22:16Z</time>
      </trkpt>
      <trkpt lat="47.34046" lon="6.06689">
        <ele>287</ele>
        <time>2025-06-24T13:22:26Z</time>
      </trkpt>
      <trkpt lat="47.34047" lon="6.06711">
        <ele>286</ele>
        <time>2025-06-24T13:22:36Z</time>
      </trkpt>
      <trkpt lat="47.3405" lon="6.06731">
        <ele>286</ele>
        <time>2025-06-24T13:22:45Z</time>
      </trkpt>
      <trkpt lat="47.34054" lon="6.0675">
        <ele>286</ele>
        <time>2025-06-24T13:22:54Z</time>
      </trkpt>
      <trkpt lat="47.34056" lon="6.0677">
        <ele>286</ele>
        <time>2025-06-24T13:23:02Z</time>
      </trkpt>
      <trkpt lat="47.3406" lon="6.0679">
        <ele>287</ele>
        <time>2025-06-24T13:23:11Z</time>
      </trkpt>
      <trkpt lat="47.34066" lon="6.06808">
        <ele>286</ele>
        <time>2025-06-24T13:23:20Z</time>
      </trkpt>
      <trkpt lat="47.34069" lon="6.06828">
        <ele>285</ele>
        <time>2025-06-24T13:23:29Z</time>
      </trkpt>
      <trkpt lat="47.34071" lon="6.06849">
        <ele>285</ele>
        <time>2025-06-24T13:23:38Z</time>
      </trkpt>
      <trkpt lat="47.34074" lon="6.06869">
        <ele>286</ele>
        <time>2025-06-24T13:23:47Z</time>
      </trkpt>
      <trkpt lat="47.34077" lon="6.06889">
        <ele>285</ele>
        <time>2025-06-24T13:23:55Z</time>
      </trkpt>
      <trkpt lat="47.34082" lon="6.06909">
        <ele>284</ele>
        <time>2025-06-24T13:24:06Z</time>
      </trkpt>
      <trkpt lat="47.34088" lon="6.06927">
        <ele>285</ele>
        <time>2025-06-24T13:24:14Z</time>
      </trkpt>
      <trkpt lat="47.34091" lon="6.06948">
        <ele>284</ele>
        <time>2025-06-24T13:24:24Z</time>
      </trkpt>
      <trkpt lat="47.34095" lon="6.06968">
        <ele>285</ele>
        <time>2025-06-24T13:24:33Z</time>
      </trkpt>
      <trkpt lat="47.341" lon="6.06987">
        <ele>285</ele>
        <time>2025-06-24T13:24:44Z</time>
      </trkpt>
      <trkpt lat="47.34105" lon="6.07007">
        <ele>284</ele>
        <time>2025-06-24T13:24:53Z</time>
      </trkpt>
      <trkpt lat="47.34111" lon="6.07027">
        <ele>284</ele>
        <time>2025-06-24T13:25:03Z</time>
      </trkpt>
      <trkpt lat="47.34116" lon="6.07047">
        <ele>285</ele>
        <time>2025-06-24T13:25:12Z</time>
      </trkpt>
      <trkpt lat="47.34122" lon="6.07064">
        <ele>284</ele>
        <time>2025-06-24T13:25:21Z</time>
      </trkpt>
      <trkpt lat="47.34128" lon="6.07082">
        <ele>284</ele>
        <time>2025-06-24T13:25:31Z</time>
      </trkpt>
      <trkpt lat="47.34131" lon="6.07102">
        <ele>285</ele>
        <time>2025-06-24T13:25:40Z</time>
      </trkpt>
      <trkpt lat="47.34139" lon="6.07119">
        <ele>284</ele>
        <time>2025-06-24T13:25:50Z</time>
      </trkpt>
      <trkpt lat="47.34146" lon="6.07138">
        <ele>283</ele>
        <time>2025-06-24T13:25:59Z</time>
      </trkpt>
      <trkpt lat="47.3415" lon="6.07157">
        <ele>283</ele>
        <time>2025-06-24T13:26:07Z</time>
      </trkpt>
      <trkpt lat="47.34156" lon="6.07175">
        <ele>284</ele>
        <time>2025-06-24T13:26:15Z</time>
      </trkpt>
      <trkpt lat="47.34162" lon="6.07193">
        <ele>283</ele>
        <time>2025-06-24T13:26:24Z</time>
      </trkpt>
      <trkpt lat="47.3417" lon="6.07211">
        <ele>283</ele>
        <time>2025-06-24T13:26:34Z</time>
      </trkpt>
      <trkpt lat="47.34177" lon="6.07229">
        <ele>283</ele>
        <time>2025-06-24T13:26:42Z</time>
      </trkpt>
      <trkpt lat="47.34183" lon="6.07248">
        <ele>284</ele>
        <time>2025-06-24T13:26:51Z</time>
      </trkpt>
      <trkpt lat="47.34188" lon="6.07268">
        <ele>283</ele>
        <time>2025-06-24T13:27:00Z</time>
      </trkpt>
      <trkpt lat="47.34195" lon="6.07285">
        <ele>284</ele>
        <time>2025-06-24T13:27:08Z</time>
      </trkpt>
      <trkpt lat="47.34202" lon="6.07303">
        <ele>283</ele>
        <time>2025-06-24T13:27:17Z</time>
      </trkpt>
      <trkpt lat="47.34207" lon="6.07321">
        <ele>283</ele>
        <time>2025-06-24T13:27:26Z</time>
      </trkpt>
      <trkpt lat="47.34214" lon="6.07339">
        <ele>283</ele>
        <time>2025-06-24T13:27:36Z</time>
      </trkpt>
      <trkpt lat="47.34221" lon="6.07356">
        <ele>283</ele>
        <time>2025-06-24T13:27:45Z</time>
      </trkpt>
      <trkpt lat="47.34231" lon="6.0737">
        <ele>283</ele>
        <time>2025-06-24T13:27:54Z</time>
      </trkpt>
      <trkpt lat="47.34238" lon="6.07387">
        <ele>283</ele>
        <time>2025-06-24T13:28:04Z</time>
      </trkpt>
      <trkpt lat="47.34241" lon="6.07409">
        <ele>284</ele>
        <time>2025-06-24T13:28:14Z</time>
      </trkpt>
      <trkpt lat="47.34247" lon="6.07428">
        <ele>283</ele>
        <time>2025-06-24T13:28:23Z</time>
      </trkpt>
      <trkpt lat="47.34252" lon="6.07447">
        <ele>284</ele>
        <time>2025-06-24T13:28:32Z</time>
      </trkpt>
      <trkpt lat="47.34259" lon="6.07465">
        <ele>284</ele>
        <time>2025-06-24T13:28:41Z</time>
      </trkpt>
      <trkpt lat="47.34267" lon="6.07481">
        <ele>283</ele>
        <time>2025-06-24T13:28:50Z</time>
      </trkpt>
      <trkpt lat="47.34273" lon="6.07499">
        <ele>284</ele>
        <time>2025-06-24T13:28:58Z</time>
      </trkpt>
      <trkpt lat="47.34279" lon="6.07517">
        <ele>283</ele>
        <time>2025-06-24T13:29:07Z</time>
      </trkpt>
      <trkpt lat="47.34287" lon="6.07534">
        <ele>284</ele>
        <time>2025-06-24T13:29:16Z</time>
      </trkpt>
      <trkpt lat="47.34292" lon="6.07554">
        <ele>283</ele>
        <time>2025-06-24T13:29:25Z</time>
      </trkpt>
      <trkpt lat="47.34299" lon="6.07574">
        <ele>284</ele>
        <time>2025-06-24T13:29:35Z</time>
      </trkpt>
      <trkpt lat="47.34306" lon="6.07593">
        <ele>284</ele>
        <time>2025-06-24T13:29:43Z</time>
      </trkpt>
      <trkpt lat="47.34313" lon="6.0761">
        <ele>283</ele>
        <time>2025-06-24T13:29:53Z</time>
      </trkpt>
      <trkpt lat="47.34319" lon="6.07628">
        <ele>284</ele>
        <time>2025-06-24T13:30:02Z</time>
      </trkpt>
      <trkpt lat="47.34325" lon="6.07647">
        <ele>284</ele>
        <time>2025-06-24T13:30:11Z</time>
      </trkpt>
      <trkpt lat="47.34332" lon="6.07665">
        <ele>284</ele>
        <time>2025-06-24T13:30:20Z</time>
      </trkpt>
      <trkpt lat="47.34338" lon="6.07684">
        <ele>284</ele>
        <time>2025-06-24T13:30:29Z</time>
      </trkpt>
      <trkpt lat="47.34343" lon="6.07702">
        <ele>284</ele>
        <time>2025-06-24T13:30:38Z</time>
      </trkpt>
      <trkpt lat="47.3435" lon="6.0772">
        <ele>284</ele>
        <time>2025-06-24T13:30:48Z</time>
      </trkpt>
      <trkpt lat="47.34356" lon="6.07738">
        <ele>284</ele>
        <time>2025-06-24T13:30:57Z</time>
      </trkpt>
      <trkpt lat="47.34365" lon="6.07756">
        <ele>284</ele>
        <time>2025-06-24T13:31:06Z</time>
      </trkpt>
      <trkpt lat="47.34372" lon="6.07775">
        <ele>284</ele>
        <time>2025-06-24T13:31:14Z</time>
      </trkpt>
      <trkpt lat="47.34379" lon="6.07792">
        <ele>284</ele>
        <time>2025-06-24T13:31:23Z</time>
      </trkpt>
      <trkpt lat="47.34386" lon="6.0781">
        <ele>284</ele>
        <time>2025-06-24T13:31:33Z</time>
      </trkpt>
      <trkpt lat="47.34391" lon="6.07829">
        <ele>284</ele>
        <time>2025-06-24T13:31:43Z</time>
      </trkpt>
      <trkpt lat="47.34397" lon="6.07847">
        <ele>284</ele>
        <time>2025-06-24T13:31:52Z</time>
      </trkpt>
      <trkpt lat="47.34403" lon="6.07866">
        <ele>284</ele>
        <time>2025-06-24T13:32:01Z</time>
      </trkpt>
      <trkpt lat="47.3441" lon="6.07885">
        <ele>284</ele>
        <time>2025-06-24T13:32:11Z</time>
      </trkpt>
      <trkpt lat="47.34417" lon="6.07903">
        <ele>284</ele>
        <time>2025-06-24T13:32:19Z</time>
      </trkpt>
      <trkpt lat="47.34422" lon="6.07922">
        <ele>283</ele>
        <time>2025-06-24T13:32:29Z</time>
      </trkpt>
      <trkpt lat="47.34428" lon="6.0794">
        <ele>284</ele>
        <time>2025-06-24T13:32:38Z</time>
      </trkpt>
      <trkpt lat="47.34434" lon="6.07959">
        <ele>283</ele>
        <time>2025-06-24T13:32:46Z</time>
      </trkpt>
      <trkpt lat="47.34441" lon="6.07976">
        <ele>284</ele>
        <time>2025-06-24T13:32:54Z</time>
      </trkpt>
      <trkpt lat="47.34448" lon="6.07995">
        <ele>283</ele>
        <time>2025-06-24T13:33:03Z</time>
      </trkpt>
      <trkpt lat="47.34456" lon="6.08013">
        <ele>283</ele>
        <time>2025-06-24T13:33:11Z</time>
      </trkpt>
      <trkpt lat="47.34462" lon="6.08031">
        <ele>283</ele>
        <time>2025-06-24T13:33:20Z</time>
      </trkpt>
      <trkpt lat="47.34468" lon="6.08051">
        <ele>282</ele>
        <time>2025-06-24T13:33:29Z</time>
      </trkpt>
      <trkpt lat="47.34475" lon="6.08068">
        <ele>283</ele>
        <time>2025-06-24T13:33:37Z</time>
      </trkpt>
      <trkpt lat="47.3448" lon="6.08087">
        <ele>283</ele>
        <time>2025-06-24T13:33:47Z</time>
      </trkpt>
      <trkpt lat="47.34487" lon="6.08105">
        <ele>282</ele>
        <time>2025-06-24T13:33:56Z</time>
      </trkpt>
      <trkpt lat="47.34494" lon="6.08123">
        <ele>283</ele>
        <time>2025-06-24T13:34:04Z</time>
      </trkpt>
      <trkpt lat="47.34501" lon="6.08142">
        <ele>282</ele>
        <time>2025-06-24T13:34:14Z</time>
      </trkpt>
      <trkpt lat="47.34508" lon="6.0816">
        <ele>283</ele>
        <time>2025-06-24T13:34:22Z</time>
      </trkpt>
      <trkpt lat="47.34514" lon="6.08179">
        <ele>283</ele>
        <time>2025-06-24T13:34:32Z</time>
      </trkpt>
      <trkpt lat="47.3452" lon="6.08198">
        <ele>283</ele>
        <time>2025-06-24T13:34:42Z</time>
      </trkpt>
      <trkpt lat="47.34525" lon="6.08217">
        <ele>283</ele>
        <time>2025-06-24T13:34:52Z</time>
      </trkpt>
      <trkpt lat="47.34534" lon="6.08233">
        <ele>283</ele>
        <time>2025-06-24T13:35:01Z</time>
      </trkpt>
      <trkpt lat="47.34541" lon="6.08251">
        <ele>283</ele>
        <time>2025-06-24T13:35:09Z</time>
      </trkpt>
      <trkpt lat="47.34548" lon="6.0827">
        <ele>283</ele>
        <time>2025-06-24T13:35:18Z</time>
      </trkpt>
      <trkpt lat="47.34555" lon="6.08288">
        <ele>283</ele>
        <time>2025-06-24T13:35:27Z</time>
      </trkpt>
      <trkpt lat="47.3456" lon="6.08306">
        <ele>283</ele>
        <time>2025-06-24T13:35:36Z</time>
      </trkpt>
      <trkpt lat="47.34567" lon="6.08325">
        <ele>283</ele>
        <time>2025-06-24T13:35:46Z</time>
      </trkpt>
      <trkpt lat="47.34574" lon="6.08343">
        <ele>283</ele>
        <time>2025-06-24T13:35:54Z</time>
      </trkpt>
      <trkpt lat="47.34581" lon="6.08361">
        <ele>283</ele>
        <time>2025-06-24T13:36:03Z</time>
      </trkpt>
      <trkpt lat="47.34586" lon="6.08379">
        <ele>281</ele>
        <time>2025-06-24T13:36:11Z</time>
      </trkpt>
      <trkpt lat="47.34594" lon="6.08396">
        <ele>283</ele>
        <time>2025-06-24T13:36:21Z</time>
      </trkpt>
      <trkpt lat="47.34601" lon="6.08414">
        <ele>283</ele>
        <time>2025-06-24T13:36:31Z</time>
      </trkpt>
      <trkpt lat="47.34607" lon="6.08432">
        <ele>283</ele>
        <time>2025-06-24T13:36:38Z</time>
      </trkpt>
      <trkpt lat="47.34613" lon="6.0845">
        <ele>283</ele>
        <time>2025-06-24T13:36:46Z</time>
      </trkpt>
      <trkpt lat="47.34619" lon="6.08469">
        <ele>283</ele>
        <time>2025-06-24T13:36:55Z</time>
      </trkpt>
      <trkpt lat="47.34625" lon="6.08489">
        <ele>283</ele>
        <time>2025-06-24T13:37:04Z</time>
      </trkpt>
      <trkpt lat="47.34632" lon="6.08508">
        <ele>283</ele>
        <time>2025-06-24T13:37:12Z</time>
      </trkpt>
      <trkpt lat="47.34638" lon="6.08525">
        <ele>283</ele>
        <time>2025-06-24T13:37:20Z</time>
      </trkpt>
      <trkpt lat="47.34645" lon="6.08544">
        <ele>284</ele>
        <time>2025-06-24T13:37:30Z</time>
      </trkpt>
      <trkpt lat="47.34652" lon="6.08564">
        <ele>283</ele>
        <time>2025-06-24T13:37:39Z</time>
      </trkpt>
      <trkpt lat="47.34659" lon="6.08581">
        <ele>283</ele>
        <time>2025-06-24T13:37:47Z</time>
      </trkpt>
      <trkpt lat="47.34667" lon="6.08598">
        <ele>284</ele>
        <time>2025-06-24T13:37:55Z</time>
      </trkpt>
      <trkpt lat="47.34673" lon="6.08617">
        <ele>283</ele>
        <time>2025-06-24T13:38:05Z</time>
      </trkpt>
      <trkpt lat="47.34679" lon="6.08636">
        <ele>284</ele>
        <time>2025-06-24T13:38:14Z</time>
      </trkpt>
      <trkpt lat="47.34686" lon="6.08653">
        <ele>284</ele>
        <time>2025-06-24T13:38:23Z</time>
      </trkpt>
      <trkpt lat="47.34693" lon="6.08671">
        <ele>284</ele>
        <time>2025-06-24T13:38:32Z</time>
      </trkpt>
      <trkpt lat="47.347" lon="6.0869">
        <ele>284</ele>
        <time>2025-06-24T13:38:41Z</time>
      </trkpt>
      <trkpt lat="47.34706" lon="6.08709">
        <ele>284</ele>
        <time>2025-06-24T13:38:50Z</time>
      </trkpt>
      <trkpt lat="47.34712" lon="6.08727">
        <ele>285</ele>
        <time>2025-06-24T13:38:59Z</time>
      </trkpt>
      <trkpt lat="47.34719" lon="6.08747">
        <ele>285</ele>
        <time>2025-06-24T13:39:08Z</time>
      </trkpt>
      <trkpt lat="47.34725" lon="6.08766">
        <ele>285</ele>
        <time>2025-06-24T13:39:16Z</time>
      </trkpt>
      <trkpt lat="47.34732" lon="6.08784">
        <ele>285</ele>
        <time>2025-06-24T13:39:25Z</time>
      </trkpt>
      <trkpt lat="47.3474" lon="6.08804">
        <ele>285</ele>
        <time>2025-06-24T13:39:36Z</time>
      </trkpt>
      <trkpt lat="47.34745" lon="6.08823">
        <ele>285</ele>
        <time>2025-06-24T13:39:46Z</time>
      </trkpt>
      <trkpt lat="47.34751" lon="6.08841">
        <ele>286</ele>
        <time>2025-06-24T13:39:55Z</time>
      </trkpt>
      <trkpt lat="47.34757" lon="6.08861">
        <ele>286</ele>
        <time>2025-06-24T13:40:04Z</time>
      </trkpt>
      <trkpt lat="47.34763" lon="6.08878">
        <ele>286</ele>
        <time>2025-06-24T13:40:12Z</time>
      </trkpt>
      <trkpt lat="47.34768" lon="6.08897">
        <ele>286</ele>
        <time>2025-06-24T13:40:21Z</time>
      </trkpt>
      <trkpt lat="47.34775" lon="6.08916">
        <ele>286</ele>
        <time>2025-06-24T13:40:30Z</time>
      </trkpt>
      <trkpt lat="47.34782" lon="6.08933">
        <ele>286</ele>
        <time>2025-06-24T13:40:39Z</time>
      </trkpt>
      <trkpt lat="47.34789" lon="6.08951">
        <ele>286</ele>
        <time>2025-06-24T13:40:48Z</time>
      </trkpt>
      <trkpt lat="47.34797" lon="6.08971">
        <ele>287</ele>
        <time>2025-06-24T13:40:57Z</time>
      </trkpt>
      <trkpt lat="47.34803" lon="6.0899">
        <ele>287</ele>
        <time>2025-06-24T13:41:05Z</time>
      </trkpt>
      <trkpt lat="47.34809" lon="6.09009">
        <ele>287</ele>
        <time>2025-06-24T13:41:13Z</time>
      </trkpt>
      <trkpt lat="47.34815" lon="6.09027">
        <ele>287</ele>
        <time>2025-06-24T13:41:22Z</time>
      </trkpt>
      <trkpt lat="47.34822" lon="6.09045">
        <ele>287</ele>
        <time>2025-06-24T13:41:31Z</time>
      </trkpt>
      <trkpt lat="47.3483" lon="6.09063">
        <ele>287</ele>
        <time>2025-06-24T13:41:41Z</time>
      </trkpt>
      <trkpt lat="47.34835" lon="6.09083">
        <ele>288</ele>
        <time>2025-06-24T13:41:49Z</time>
      </trkpt>
      <trkpt lat="47.34841" lon="6.09102">
        <ele>288</ele>
        <time>2025-06-24T13:41:59Z</time>
      </trkpt>
      <trkpt lat="47.34848" lon="6.0912">
        <ele>288</ele>
        <time>2025-06-24T13:42:07Z</time>
      </trkpt>
      <trkpt lat="47.34854" lon="6.0914">
        <ele>288</ele>
        <time>2025-06-24T13:42:15Z</time>
      </trkpt>
      <trkpt lat="47.34859" lon="6.09159">
        <ele>288</ele>
        <time>2025-06-24T13:42:24Z</time>
      </trkpt>
      <trkpt lat="47.34868" lon="6.09175">
        <ele>288</ele>
        <time>2025-06-24T13:42:31Z</time>
      </trkpt>
      <trkpt lat="47.34878" lon="6.0919">
        <ele>289</ele>
        <time>2025-06-24T13:42:42Z</time>
      </trkpt>
      <trkpt lat="47.34883" lon="6.09208">
        <ele>288</ele>
        <time>2025-06-24T13:42:51Z</time>
      </trkpt>
      <trkpt lat="47.34886" lon="6.09228">
        <ele>290</ele>
        <time>2025-06-24T13:43:00Z</time>
      </trkpt>
      <trkpt lat="47.34888" lon="6.09248">
        <ele>287</ele>
        <time>2025-06-24T13:43:09Z</time>
      </trkpt>
      <trkpt lat="47.34896" lon="6.09264">
        <ele>288</ele>
        <time>2025-06-24T13:43:19Z</time>
      </trkpt>
      <trkpt lat="47.34908" lon="6.09277">
        <ele>289</ele>
        <time>2025-06-24T13:43:29Z</time>
      </trkpt>
      <trkpt lat="47.34916" lon="6.09295">
        <ele>291</ele>
        <time>2025-06-24T13:43:39Z</time>
      </trkpt>
      <trkpt lat="47.34925" lon="6.09311">
        <ele>290</ele>
        <time>2025-06-24T13:43:49Z</time>
      </trkpt>
      <trkpt lat="47.34931" lon="6.09329">
        <ele>290</ele>
        <time>2025-06-24T13:43:58Z</time>
      </trkpt>
      <trkpt lat="47.34938" lon="6.09347">
        <ele>291</ele>
        <time>2025-06-24T13:44:08Z</time>
      </trkpt>
      <trkpt lat="47.34946" lon="6.09362">
        <ele>291</ele>
        <time>2025-06-24T13:44:16Z</time>
      </trkpt>
      <trkpt lat="47.34955" lon="6.09378">
        <ele>292</ele>
        <time>2025-06-24T13:44:25Z</time>
      </trkpt>
      <trkpt lat="47.3496" lon="6.09398">
        <ele>291</ele>
        <time>2025-06-24T13:44:35Z</time>
      </trkpt>
      <trkpt lat="47.34969" lon="6.09415">
        <ele>292</ele>
        <time>2025-06-24T13:45:10Z</time>
      </trkpt>
      <trkpt lat="47.34979" lon="6.09432">
        <ele>291</ele>
        <time>2025-06-24T13:45:20Z</time>
      </trkpt>
      <trkpt lat="47.34986" lon="6.09448">
        <ele>292</ele>
        <time>2025-06-24T13:45:27Z</time>
      </trkpt>
      <trkpt lat="47.34994" lon="6.09465">
        <ele>292</ele>
        <time>2025-06-24T13:45:35Z</time>
      </trkpt>
      <trkpt lat="47.35002" lon="6.09481">
        <ele>291</ele>
        <time>2025-06-24T13:45:44Z</time>
      </trkpt>
      <trkpt lat="47.3501" lon="6.09498">
        <ele>292</ele>
        <time>2025-06-24T13:45:52Z</time>
      </trkpt>
      <trkpt lat="47.35019" lon="6.09515">
        <ele>293</ele>
        <time>2025-06-24T13:46:02Z</time>
      </trkpt>
      <trkpt lat="47.35028" lon="6.09531">
        <ele>295</ele>
        <time>2025-06-24T13:46:11Z</time>
      </trkpt>
      <trkpt lat="47.35036" lon="6.09547">
        <ele>293</ele>
        <time>2025-06-24T13:46:20Z</time>
      </trkpt>
      <trkpt lat="47.35045" lon="6.09563">
        <ele>293</ele>
        <time>2025-06-24T13:46:29Z</time>
      </trkpt>
      <trkpt lat="47.35053" lon="6.09581">
        <ele>294</ele>
        <time>2025-06-24T13:46:39Z</time>
      </trkpt>
      <trkpt lat="47.35059" lon="6.096">
        <ele>295</ele>
        <time>2025-06-24T13:46:49Z</time>
      </trkpt>
      <trkpt lat="47.35071" lon="6.09613">
        <ele>290</ele>
        <time>2025-06-24T13:46:57Z</time>
      </trkpt>
      <trkpt lat="47.3508" lon="6.09628">
        <ele>291</ele>
        <time>2025-06-24T13:47:06Z</time>
      </trkpt>
      <trkpt lat="47.3509" lon="6.09643">
        <ele>292</ele>
        <time>2025-06-24T13:47:15Z</time>
      </trkpt>
      <trkpt lat="47.35099" lon="6.09658">
        <ele>292</ele>
        <time>2025-06-24T13:47:23Z</time>
      </trkpt>
      <trkpt lat="47.35109" lon="6.09676">
        <ele>293</ele>
        <time>2025-06-24T13:47:31Z</time>
      </trkpt>
      <trkpt lat="47.35118" lon="6.09689">
        <ele>292</ele>
        <time>2025-06-24T13:47:40Z</time>
      </trkpt>
      <trkpt lat="47.35127" lon="6.09706">
        <ele>292</ele>
        <time>2025-06-24T13:47:50Z</time>
      </trkpt>
      <trkpt lat="47.35136" lon="6.09723">
        <ele>293</ele>
        <time>2025-06-24T13:47:59Z</time>
      </trkpt>
      <trkpt lat="47.35144" lon="6.09739">
        <ele>293</ele>
        <time>2025-06-24T13:48:08Z</time>
      </trkpt>
      <trkpt lat="47.35152" lon="6.09756">
        <ele>292</ele>
        <time>2025-06-24T13:48:17Z</time>
      </trkpt>
      <trkpt lat="47.35161" lon="6.09771">
        <ele>292</ele>
        <time>2025-06-24T13:48:26Z</time>
      </trkpt>
      <trkpt lat="47.3517" lon="6.09787">
        <ele>292</ele>
        <time>2025-06-24T13:48:34Z</time>
      </trkpt>
      <trkpt lat="47.35179" lon="6.09803">
        <ele>291</ele>
        <time>2025-06-24T13:48:43Z</time>
      </trkpt>
      <trkpt lat="47.35187" lon="6.09819">
        <ele>292</ele>
        <time>2025-06-24T13:48:52Z</time>
      </trkpt>
      <trkpt lat="47.35196" lon="6.09835">
        <ele>291</ele>
        <time>2025-06-24T13:49:00Z</time>
      </trkpt>
      <trkpt lat="47.35206" lon="6.09851">
        <ele>290</ele>
        <time>2025-06-24T13:49:08Z</time>
      </trkpt>
      <trkpt lat="47.35215" lon="6.09867">
        <ele>291</ele>
        <time>2025-06-24T13:49:16Z</time>
      </trkpt>
      <trkpt lat="47.35223" lon="6.09885">
        <ele>291</ele>
        <time>2025-06-24T13:49:25Z</time>
      </trkpt>
      <trkpt lat="47.3523" lon="6.09902">
        <ele>290</ele>
        <time>2025-06-24T13:49:34Z</time>
      </trkpt>
      <trkpt lat="47.35238" lon="6.0992">
        <ele>290</ele>
        <time>2025-06-24T13:49:44Z</time>
      </trkpt>
      <trkpt lat="47.35248" lon="6.09936">
        <ele>290</ele>
        <time>2025-06-24T13:49:52Z</time>
      </trkpt>
      <trkpt lat="47.35256" lon="6.09953">
        <ele>289</ele>
        <time>2025-06-24T13:50:01Z</time>
      </trkpt>
      <trkpt lat="47.35265" lon="6.09969">
        <ele>290</ele>
        <time>2025-06-24T13:50:10Z</time>
      </trkpt>
      <trkpt lat="47.35275" lon="6.09983">
        <ele>290</ele>
        <time>2025-06-24T13:50:19Z</time>
      </trkpt>
      <trkpt lat="47.35284" lon="6.09997">
        <ele>289</ele>
        <time>2025-06-24T13:50:28Z</time>
      </trkpt>
      <trkpt lat="47.35295" lon="6.10011">
        <ele>289</ele>
        <time>2025-06-24T13:50:36Z</time>
      </trkpt>
      <trkpt lat="47.35303" lon="6.10028">
        <ele>288</ele>
        <time>2025-06-24T13:50:44Z</time>
      </trkpt>
      <trkpt lat="47.35312" lon="6.10044">
        <ele>288</ele>
        <time>2025-06-24T13:50:52Z</time>
      </trkpt>
      <trkpt lat="47.35322" lon="6.1006">
        <ele>288</ele>
        <time>2025-06-24T13:51:00Z</time>
      </trkpt>
      <trkpt lat="47.3533" lon="6.10076">
        <ele>288</ele>
        <time>2025-06-24T13:51:08Z</time>
      </trkpt>
      <trkpt lat="47.35338" lon="6.10093">
        <ele>288</ele>
        <time>2025-06-24T13:51:16Z</time>
      </trkpt>
      <trkpt lat="47.35345" lon="6.1011">
        <ele>287</ele>
        <time>2025-06-24T13:51:24Z</time>
      </trkpt>
      <trkpt lat="47.35354" lon="6.10125">
        <ele>287</ele>
        <time>2025-06-24T13:51:33Z</time>
      </trkpt>
      <trkpt lat="47.35365" lon="6.10139">
        <ele>287</ele>
        <time>2025-06-24T13:51:42Z</time>
      </trkpt>
      <trkpt lat="47.35374" lon="6.10154">
        <ele>287</ele>
        <time>2025-06-24T13:51:51Z</time>
      </trkpt>
      <trkpt lat="47.35381" lon="6.10172">
        <ele>286</ele>
        <time>2025-06-24T13:52:00Z</time>
      </trkpt>
      <trkpt lat="47.35391" lon="6.10187">
        <ele>286</ele>
        <time>2025-06-24T13:52:08Z</time>
      </trkpt>
      <trkpt lat="47.35399" lon="6.10204">
        <ele>286</ele>
        <time>2025-06-24T13:52:17Z</time>
      </trkpt>
      <trkpt lat="47.35407" lon="6.1022">
        <ele>285</ele>
        <time>2025-06-24T13:52:26Z</time>
      </trkpt>
      <trkpt lat="47.35416" lon="6.10238">
        <ele>285</ele>
        <time>2025-06-24T13:52:36Z</time>
      </trkpt>
      <trkpt lat="47.35425" lon="6.10256">
        <ele>284</ele>
        <time>2025-06-24T13:52:45Z</time>
      </trkpt>
      <trkpt lat="47.35433" lon="6.10273">
        <ele>284</ele>
        <time>2025-06-24T13:52:53Z</time>
      </trkpt>
      <trkpt lat="47.3544" lon="6.10289">
        <ele>285</ele>
        <time>2025-06-24T13:53:01Z</time>
      </trkpt>
      <trkpt lat="47.3545" lon="6.10306">
        <ele>285</ele>
        <time>2025-06-24T13:53:10Z</time>
      </trkpt>
      <trkpt lat="47.35459" lon="6.10322">
        <ele>284</ele>
        <time>2025-06-24T13:53:19Z</time>
      </trkpt>
      <trkpt lat="47.35468" lon="6.10337">
        <ele>285</ele>
        <time>2025-06-24T13:53:28Z</time>
      </trkpt>
      <trkpt lat="47.35475" lon="6.10354">
        <ele>285</ele>
        <time>2025-06-24T13:53:37Z</time>
      </trkpt>
      <trkpt lat="47.35484" lon="6.10371">
        <ele>283</ele>
        <time>2025-06-24T13:53:46Z</time>
      </trkpt>
      <trkpt lat="47.3549" lon="6.10389">
        <ele>282</ele>
        <time>2025-06-24T13:53:56Z</time>
      </trkpt>
      <trkpt lat="47.35492" lon="6.1041">
        <ele>285</ele>
        <time>2025-06-24T13:54:08Z</time>
      </trkpt>
      <trkpt lat="47.35504" lon="6.1042">
        <ele>283</ele>
        <time>2025-06-24T13:54:15Z</time>
      </trkpt>
      <trkpt lat="47.35516" lon="6.10431">
        <ele>283</ele>
        <time>2025-06-24T13:54:22Z</time>
      </trkpt>
      <trkpt lat="47.35527" lon="6.10444">
        <ele>281</ele>
        <time>2025-06-24T13:54:30Z</time>
      </trkpt>
      <trkpt lat="47.35536" lon="6.1046">
        <ele>282</ele>
        <time>2025-06-24T13:54:37Z</time>
      </trkpt>
      <trkpt lat="47.35545" lon="6.10474">
        <ele>282</ele>
        <time>2025-06-24T13:54:45Z</time>
      </trkpt>
      <trkpt lat="47.35554" lon="6.1049">
        <ele>282</ele>
        <time>2025-06-24T13:54:53Z</time>
      </trkpt>
      <trkpt lat="47.35563" lon="6.10506">
        <ele>282</ele>
        <time>2025-06-24T13:55:04Z</time>
      </trkpt>
      <trkpt lat="47.35572" lon="6.10521">
        <ele>281</ele>
        <time>2025-06-24T13:55:13Z</time>
      </trkpt>
      <trkpt lat="47.3558" lon="6.10538">
        <ele>281</ele>
        <time>2025-06-24T13:55:21Z</time>
      </trkpt>
      <trkpt lat="47.35588" lon="6.10554">
        <ele>281</ele>
        <time>2025-06-24T13:55:29Z</time>
      </trkpt>
      <trkpt lat="47.35598" lon="6.10569">
        <ele>280</ele>
        <time>2025-06-24T13:55:37Z</time>
      </trkpt>
      <trkpt lat="47.35605" lon="6.10586">
        <ele>280</ele>
        <time>2025-06-24T13:55:46Z</time>
      </trkpt>
      <trkpt lat="47.35614" lon="6.10602">
        <ele>279</ele>
        <time>2025-06-24T13:55:55Z</time>
      </trkpt>
      <trkpt lat="47.35623" lon="6.10621">
        <ele>280</ele>
        <time>2025-06-24T13:56:03Z</time>
      </trkpt>
      <trkpt lat="47.35633" lon="6.10636">
        <ele>280</ele>
        <time>2025-06-24T13:56:11Z</time>
      </trkpt>
      <trkpt lat="47.35641" lon="6.10653">
        <ele>279</ele>
        <time>2025-06-24T13:56:20Z</time>
      </trkpt>
      <trkpt lat="47.35649" lon="6.10669">
        <ele>279</ele>
        <time>2025-06-24T13:56:29Z</time>
      </trkpt>
      <trkpt lat="47.35657" lon="6.10687">
        <ele>279</ele>
        <time>2025-06-24T13:56:39Z</time>
      </trkpt>
      <trkpt lat="47.35667" lon="6.10701">
        <ele>278</ele>
        <time>2025-06-24T13:56:47Z</time>
      </trkpt>
      <trkpt lat="47.35678" lon="6.10715">
        <ele>278</ele>
        <time>2025-06-24T13:56:56Z</time>
      </trkpt>
      <trkpt lat="47.35685" lon="6.10733">
        <ele>279</ele>
        <time>2025-06-24T13:57:04Z</time>
      </trkpt>
      <trkpt lat="47.35694" lon="6.10751">
        <ele>280</ele>
        <time>2025-06-24T13:57:13Z</time>
      </trkpt>
      <trkpt lat="47.35701" lon="6.10769">
        <ele>278</ele>
        <time>2025-06-24T13:57:22Z</time>
      </trkpt>
      <trkpt lat="47.35709" lon="6.10786">
        <ele>280</ele>
        <time>2025-06-24T13:57:31Z</time>
      </trkpt>
      <trkpt lat="47.35718" lon="6.108">
        <ele>278</ele>
        <time>2025-06-24T13:57:39Z</time>
      </trkpt>
      <trkpt lat="47.35729" lon="6.10814">
        <ele>277</ele>
        <time>2025-06-24T13:57:49Z</time>
      </trkpt>
      <trkpt lat="47.35738" lon="6.1083">
        <ele>278</ele>
        <time>2025-06-24T13:57:58Z</time>
      </trkpt>
      <trkpt lat="47.35746" lon="6.10846">
        <ele>278</ele>
        <time>2025-06-24T13:58:06Z</time>
      </trkpt>
      <trkpt lat="47.35755" lon="6.10862">
        <ele>279</ele>
        <time>2025-06-24T13:58:15Z</time>
      </trkpt>
      <trkpt lat="47.35764" lon="6.10878">
        <ele>279</ele>
        <time>2025-06-24T13:58:25Z</time>
      </trkpt>
      <trkpt lat="47.35772" lon="6.10894">
        <ele>279</ele>
        <time>2025-06-24T13:58:33Z</time>
      </trkpt>
      <trkpt lat="47.35781" lon="6.10909">
        <ele>278</ele>
        <time>2025-06-24T13:58:41Z</time>
      </trkpt>
      <trkpt lat="47.3579" lon="6.10925">
        <ele>279</ele>
        <time>2025-06-24T13:58:50Z</time>
      </trkpt>
      <trkpt lat="47.35799" lon="6.1094">
        <ele>279</ele>
        <time>2025-06-24T13:58:59Z</time>
      </trkpt>
      <trkpt lat="47.3581" lon="6.10955">
        <ele>276</ele>
        <time>2025-06-24T13:59:08Z</time>
      </trkpt>
      <trkpt lat="47.35818" lon="6.10973">
        <ele>281</ele>
        <time>2025-06-24T13:59:17Z</time>
      </trkpt>
      <trkpt lat="47.35823" lon="6.10993">
        <ele>280</ele>
        <time>2025-06-24T13:59:27Z</time>
      </trkpt>
      <trkpt lat="47.3583" lon="6.11012">
        <ele>281</ele>
        <time>2025-06-24T13:59:37Z</time>
      </trkpt>
      <trkpt lat="47.35839" lon="6.1103">
        <ele>281</ele>
        <time>2025-06-24T13:59:47Z</time>
      </trkpt>
      <trkpt lat="47.35847" lon="6.11047">
        <ele>281</ele>
        <time>2025-06-24T13:59:57Z</time>
      </trkpt>
      <trkpt lat="47.35854" lon="6.11063">
        <ele>279</ele>
        <time>2025-06-24T14:00:06Z</time>
      </trkpt>
      <trkpt lat="47.35863" lon="6.1108">
        <ele>281</ele>
        <time>2025-06-24T14:00:23Z</time>
      </trkpt>
      <trkpt lat="47.35875" lon="6.1109">
        <ele>281</ele>
        <time>2025-06-24T14:00:33Z</time>
      </trkpt>
      <trkpt lat="47.35883" lon="6.11107">
        <ele>279</ele>
        <time>2025-06-24T14:00:41Z</time>
      </trkpt>
      <trkpt lat="47.35891" lon="6.11126">
        <ele>279</ele>
        <time>2025-06-24T14:00:51Z</time>
      </trkpt>
      <trkpt lat="47.35897" lon="6.11143">
        <ele>278</ele>
        <time>2025-06-24T14:01:00Z</time>
      </trkpt>
      <trkpt lat="47.35905" lon="6.1116">
        <ele>278</ele>
        <time>2025-06-24T14:01:09Z</time>
      </trkpt>
      <trkpt lat="47.35913" lon="6.11177">
        <ele>280</ele>
        <time>2025-06-24T14:01:18Z</time>
      </trkpt>
      <trkpt lat="47.35919" lon="6.11194">
        <ele>280</ele>
        <time>2025-06-24T14:01:28Z</time>
      </trkpt>
      <trkpt lat="47.35926" lon="6.11212">
        <ele>281</ele>
        <time>2025-06-24T14:01:37Z</time>
      </trkpt>
      <trkpt lat="47.35933" lon="6.1123">
        <ele>280</ele>
        <time>2025-06-24T14:01:46Z</time>
      </trkpt>
      <trkpt lat="47.35939" lon="6.11248">
        <ele>281</ele>
        <time>2025-06-24T14:01:56Z</time>
      </trkpt>
      <trkpt lat="47.35946" lon="6.11265">
        <ele>280</ele>
        <time>2025-06-24T14:02:04Z</time>
      </trkpt>
      <trkpt lat="47.3595" lon="6.11285">
        <ele>281</ele>
        <time>2025-06-24T14:02:14Z</time>
      </trkpt>
      <trkpt lat="47.35955" lon="6.11304">
        <ele>281</ele>
        <time>2025-06-24T14:02:23Z</time>
      </trkpt>
      <trkpt lat="47.35959" lon="6.11323">
        <ele>280</ele>
        <time>2025-06-24T14:02:32Z</time>
      </trkpt>
      <trkpt lat="47.35964" lon="6.11342">
        <ele>285</ele>
        <time>2025-06-24T14:02:41Z</time>
      </trkpt>
      <trkpt lat="47.35968" lon="6.11362">
        <ele>281</ele>
        <time>2025-06-24T14:02:51Z</time>
      </trkpt>
      <trkpt lat="47.35974" lon="6.11381">
        <ele>281</ele>
        <time>2025-06-24T14:03:00Z</time>
      </trkpt>
      <trkpt lat="47.35979" lon="6.114">
        <ele>281</ele>
        <time>2025-06-24T14:03:08Z</time>
      </trkpt>
      <trkpt lat="47.35986" lon="6.11419">
        <ele>281</ele>
        <time>2025-06-24T14:03:17Z</time>
      </trkpt>
      <trkpt lat="47.35992" lon="6.11439">
        <ele>281</ele>
        <time>2025-06-24T14:03:26Z</time>
      </trkpt>
      <trkpt lat="47.35995" lon="6.11459">
        <ele>281</ele>
        <time>2025-06-24T14:03:36Z</time>
      </trkpt>
      <trkpt lat="47.35999" lon="6.11478">
        <ele>281</ele>
        <time>2025-06-24T14:03:45Z</time>
      </trkpt>
      <trkpt lat="47.36003" lon="6.11497">
        <ele>282</ele>
        <time>2025-06-24T14:03:54Z</time>
      </trkpt>
      <trkpt lat="47.36006" lon="6.11518">
        <ele>282</ele>
        <time>2025-06-24T14:04:02Z</time>
      </trkpt>
      <trkpt lat="47.36011" lon="6.11538">
        <ele>281</ele>
        <time>2025-06-24T14:04:11Z</time>
      </trkpt>
      <trkpt lat="47.36016" lon="6.11557">
        <ele>281</ele>
        <time>2025-06-24T14:04:19Z</time>
      </trkpt>
      <trkpt lat="47.3602" lon="6.11577">
        <ele>281</ele>
        <time>2025-06-24T14:04:29Z</time>
      </trkpt>
      <trkpt lat="47.36023" lon="6.11597">
        <ele>281</ele>
        <time>2025-06-24T14:04:37Z</time>
      </trkpt>
      <trkpt lat="47.36024" lon="6.11619">
        <ele>281</ele>
        <time>2025-06-24T14:04:47Z</time>
      </trkpt>
      <trkpt lat="47.36023" lon="6.1164">
        <ele>282</ele>
        <time>2025-06-24T14:04:56Z</time>
      </trkpt>
      <trkpt lat="47.36028" lon="6.11659">
        <ele>282</ele>
        <time>2025-06-24T14:05:04Z</time>
      </trkpt>
      <trkpt lat="47.36031" lon="6.11679">
        <ele>281</ele>
        <time>2025-06-24T14:05:13Z</time>
      </trkpt>
      <trkpt lat="47.36031" lon="6.11699">
        <ele>282</ele>
        <time>2025-06-24T14:05:22Z</time>
      </trkpt>
      <trkpt lat="47.36032" lon="6.1172">
        <ele>282</ele>
        <time>2025-06-24T14:05:32Z</time>
      </trkpt>
      <trkpt lat="47.36034" lon="6.11741">
        <ele>281</ele>
        <time>2025-06-24T14:05:41Z</time>
      </trkpt>
      <trkpt lat="47.36033" lon="6.11761">
        <ele>281</ele>
        <time>2025-06-24T14:05:49Z</time>
      </trkpt>
      <trkpt lat="47.36035" lon="6.11781">
        <ele>282</ele>
        <time>2025-06-24T14:05:58Z</time>
      </trkpt>
      <trkpt lat="47.36035" lon="6.11802">
        <ele>282</ele>
        <time>2025-06-24T14:06:07Z</time>
      </trkpt>
      <trkpt lat="47.36032" lon="6.11823">
        <ele>281</ele>
        <time>2025-06-24T14:06:16Z</time>
      </trkpt>
      <trkpt lat="47.36033" lon="6.11843">
        <ele>282</ele>
        <time>2025-06-24T14:06:24Z</time>
      </trkpt>
      <trkpt lat="47.36031" lon="6.11864">
        <ele>282</ele>
        <time>2025-06-24T14:06:34Z</time>
      </trkpt>
      <trkpt lat="47.3603" lon="6.11886">
        <ele>282</ele>
        <time>2025-06-24T14:06:44Z</time>
      </trkpt>
      <trkpt lat="47.36033" lon="6.11905">
        <ele>281</ele>
        <time>2025-06-24T14:06:53Z</time>
      </trkpt>
      <trkpt lat="47.36034" lon="6.11925">
        <ele>282</ele>
        <time>2025-06-24T14:07:02Z</time>
      </trkpt>
      <trkpt lat="47.36033" lon="6.11947">
        <ele>281</ele>
        <time>2025-06-24T14:07:10Z</time>
      </trkpt>
      <trkpt lat="47.3603" lon="6.11967">
        <ele>281</ele>
        <time>2025-06-24T14:07:19Z</time>
      </trkpt>
      <trkpt lat="47.36031" lon="6.11987">
        <ele>281</ele>
        <time>2025-06-24T14:07:29Z</time>
      </trkpt>
      <trkpt lat="47.36032" lon="6.12007">
        <ele>282</ele>
        <time>2025-06-24T14:07:39Z</time>
      </trkpt>
      <trkpt lat="47.36032" lon="6.12028">
        <ele>282</ele>
        <time>2025-06-24T14:07:48Z</time>
      </trkpt>
      <trkpt lat="47.3603" lon="6.12048">
        <ele>282</ele>
        <time>2025-06-24T14:07:56Z</time>
      </trkpt>
      <trkpt lat="47.36027" lon="6.12068">
        <ele>282</ele>
        <time>2025-06-24T14:08:05Z</time>
      </trkpt>
      <trkpt lat="47.36027" lon="6.1209">
        <ele>282</ele>
        <time>2025-06-24T14:08:14Z</time>
      </trkpt>
      <trkpt lat="47.3603" lon="6.1211">
        <ele>282</ele>
        <time>2025-06-24T14:08:22Z</time>
      </trkpt>
      <trkpt lat="47.3603" lon="6.12131">
        <ele>283</ele>
        <time>2025-06-24T14:08:53Z</time>
      </trkpt>
      <trkpt lat="47.36031" lon="6.12152">
        <ele>283</ele>
        <time>2025-06-24T14:09:05Z</time>
      </trkpt>
      <trkpt lat="47.36029" lon="6.12173">
        <ele>281</ele>
        <time>2025-06-24T14:09:58Z</time>
      </trkpt>
      <trkpt lat="47.36032" lon="6.12192">
        <ele>280</ele>
        <time>2025-06-24T14:10:16Z</time>
      </trkpt>
      <trkpt lat="47.36029" lon="6.12211">
        <ele>284</ele>
        <time>2025-06-24T14:10:27Z</time>
      </trkpt>
      <trkpt lat="47.36027" lon="6.12232">
        <ele>281</ele>
        <time>2025-06-24T14:10:37Z</time>
      </trkpt>
      <trkpt lat="47.36026" lon="6.12253">
        <ele>282</ele>
        <time>2025-06-24T14:10:46Z</time>
      </trkpt>
      <trkpt lat="47.36028" lon="6.12273">
        <ele>286</ele>
        <time>2025-06-24T14:10:55Z</time>
      </trkpt>
      <trkpt lat="47.36029" lon="6.12294">
        <ele>284</ele>
        <time>2025-06-24T14:11:04Z</time>
      </trkpt>
      <trkpt lat="47.36029" lon="6.12315">
        <ele>285</ele>
        <time>2025-06-24T14:11:13Z</time>
      </trkpt>
      <trkpt lat="47.36028" lon="6.12336">
        <ele>287</ele>
        <time>2025-06-24T14:11:23Z</time>
      </trkpt>
      <trkpt lat="47.36023" lon="6.12355">
        <ele>287</ele>
        <time>2025-06-24T14:11:33Z</time>
      </trkpt>
      <trkpt lat="47.3603" lon="6.12372">
        <ele>285</ele>
        <time>2025-06-24T14:11:42Z</time>
      </trkpt>
      <trkpt lat="47.3603" lon="6.12394">
        <ele>285</ele>
        <time>2025-06-24T14:11:50Z</time>
      </trkpt>
      <trkpt lat="47.3603" lon="6.12414">
        <ele>283</ele>
        <time>2025-06-24T14:11:58Z</time>
      </trkpt>
      <trkpt lat="47.36027" lon="6.12434">
        <ele>286</ele>
        <time>2025-06-24T14:12:07Z</time>
      </trkpt>
      <trkpt lat="47.36029" lon="6.12455">
        <ele>286</ele>
        <time>2025-06-24T14:12:15Z</time>
      </trkpt>
      <trkpt lat="47.36028" lon="6.12475">
        <ele>286</ele>
        <time>2025-06-24T14:12:23Z</time>
      </trkpt>
      <trkpt lat="47.36028" lon="6.12495">
        <ele>286</ele>
        <time>2025-06-24T14:12:32Z</time>
      </trkpt>
      <trkpt lat="47.36027" lon="6.12516">
        <ele>286</ele>
        <time>2025-06-24T14:12:42Z</time>
      </trkpt>
      <trkpt lat="47.36027" lon="6.12536">
        <ele>286</ele>
        <time>2025-06-24T14:12:51Z</time>
      </trkpt>
      <trkpt lat="47.36027" lon="6.12558">
        <ele>286</ele>
        <time>2025-06-24T14:12:59Z</time>
      </trkpt>
      <trkpt lat="47.36026" lon="6.12579">
        <ele>287</ele>
        <time>2025-06-24T14:13:07Z</time>
      </trkpt>
      <trkpt lat="47.36026" lon="6.126">
        <ele>287</ele>
        <time>2025-06-24T14:13:15Z</time>
      </trkpt>
      <trkpt lat="47.36026" lon="6.1262">
        <ele>287</ele>
        <time>2025-06-24T14:13:23Z</time>
      </trkpt>
      <trkpt lat="47.36028" lon="6.1264">
        <ele>288</ele>
        <time>2025-06-24T14:13:32Z</time>
      </trkpt>
      <trkpt lat="47.36028" lon="6.12659">
        <ele>288</ele>
        <time>2025-06-24T14:13:41Z</time>
      </trkpt>
      <trkpt lat="47.36026" lon="6.1268">
        <ele>287</ele>
        <time>2025-06-24T14:13:50Z</time>
      </trkpt>
      <trkpt lat="47.36027" lon="6.127">
        <ele>288</ele>
        <time>2025-06-24T14:13:58Z</time>
      </trkpt>
      <trkpt lat="47.36027" lon="6.12721">
        <ele>289</ele>
        <time>2025-06-24T14:14:06Z</time>
      </trkpt>
      <trkpt lat="47.36025" lon="6.12741">
        <ele>288</ele>
        <time>2025-06-24T14:14:14Z</time>
      </trkpt>
      <trkpt lat="47.36025" lon="6.12762">
        <ele>288</ele>
        <time>2025-06-24T14:14:23Z</time>
      </trkpt>
      <trkpt lat="47.36027" lon="6.12783">
        <ele>289</ele>
        <time>2025-06-24T14:14:32Z</time>
      </trkpt>
      <trkpt lat="47.36026" lon="6.12803">
        <ele>288</ele>
        <time>2025-06-24T14:14:40Z</time>
      </trkpt>
      <trkpt lat="47.36026" lon="6.12823">
        <ele>288</ele>
        <time>2025-06-24T14:14:47Z</time>
      </trkpt>
      <trkpt lat="47.36024" lon="6.12844">
        <ele>289</ele>
        <time>2025-06-24T14:14:54Z</time>
      </trkpt>
      <trkpt lat="47.36022" lon="6.12865">
        <ele>289</ele>
        <time>2025-06-24T14:15:02Z</time>
      </trkpt>
      <trkpt lat="47.36022" lon="6.12885">
        <ele>289</ele>
        <time>2025-06-24T14:15:12Z</time>
      </trkpt>
      <trkpt lat="47.36022" lon="6.12906">
        <ele>290</ele>
        <time>2025-06-24T14:15:23Z</time>
      </trkpt>
      <trkpt lat="47.36019" lon="6.12925">
        <ele>290</ele>
        <time>2025-06-24T14:15:32Z</time>
      </trkpt>
      <trkpt lat="47.3602" lon="6.12947">
        <ele>290</ele>
        <time>2025-06-24T14:15:40Z</time>
      </trkpt>
      <trkpt lat="47.36019" lon="6.12968">
        <ele>290</ele>
        <time>2025-06-24T14:15:48Z</time>
      </trkpt>
      <trkpt lat="47.36022" lon="6.12991">
        <ele>290</ele>
        <time>2025-06-24T14:15:56Z</time>
      </trkpt>
      <trkpt lat="47.36024" lon="6.13012">
        <ele>290</ele>
        <time>2025-06-24T14:16:04Z</time>
      </trkpt>
      <trkpt lat="47.36023" lon="6.13033">
        <ele>291</ele>
        <time>2025-06-24T14:16:13Z</time>
      </trkpt>
      <trkpt lat="47.3602" lon="6.13053">
        <ele>292</ele>
        <time>2025-06-24T14:16:22Z</time>
      </trkpt>
      <trkpt lat="47.36019" lon="6.13073">
        <ele>291</ele>
        <time>2025-06-24T14:16:31Z</time>
      </trkpt>
      <trkpt lat="47.3602" lon="6.13094">
        <ele>292</ele>
        <time>2025-06-24T14:16:40Z</time>
      </trkpt>
      <trkpt lat="47.36019" lon="6.13115">
        <ele>291</ele>
        <time>2025-06-24T14:16:49Z</time>
      </trkpt>
      <trkpt lat="47.36019" lon="6.13135">
        <ele>293</ele>
        <time>2025-06-24T14:16:58Z</time>
      </trkpt>
      <trkpt lat="47.36018" lon="6.13156">
        <ele>292</ele>
        <time>2025-06-24T14:17:06Z</time>
      </trkpt>
      <trkpt lat="47.36008" lon="6.1317">
        <ele>292</ele>
        <time>2025-06-24T14:17:15Z</time>
      </trkpt>
      <trkpt lat="47.35996" lon="6.13182">
        <ele>293</ele>
        <time>2025-06-24T14:17:26Z</time>
      </trkpt>
      <trkpt lat="47.3599" lon="6.132">
        <ele>298</ele>
        <time>2025-06-24T14:17:36Z</time>
      </trkpt>
      <trkpt lat="47.3598" lon="6.13215">
        <ele>297</ele>
        <time>2025-06-24T14:17:46Z</time>
      </trkpt>
      <trkpt lat="47.35977" lon="6.13236">
        <ele>299</ele>
        <time>2025-06-24T14:17:54Z</time>
      </trkpt>
      <trkpt lat="47.35972" lon="6.13255">
        <ele>301</ele>
        <time>2025-06-24T14:18:03Z</time>
      </trkpt>
      <trkpt lat="47.35968" lon="6.13274">
        <ele>302</ele>
        <time>2025-06-24T14:18:13Z</time>
      </trkpt>
      <trkpt lat="47.35965" lon="6.13294">
        <ele>304</ele>
        <time>2025-06-24T14:18:22Z</time>
      </trkpt>
      <trkpt lat="47.35964" lon="6.13314">
        <ele>304</ele>
        <time>2025-06-24T14:18:31Z</time>
      </trkpt>
      <trkpt lat="47.35962" lon="6.13335">
        <ele>304</ele>
        <time>2025-06-24T14:18:40Z</time>
      </trkpt>
      <trkpt lat="47.35959" lon="6.13355">
        <ele>305</ele>
        <time>2025-06-24T14:18:50Z</time>
      </trkpt>
      <trkpt lat="47.35952" lon="6.13375">
        <ele>306</ele>
        <time>2025-06-24T14:18:59Z</time>
      </trkpt>
      <trkpt lat="47.35947" lon="6.13395">
        <ele>306</ele>
        <time>2025-06-24T14:19:08Z</time>
      </trkpt>
      <trkpt lat="47.35942" lon="6.13414">
        <ele>307</ele>
        <time>2025-06-24T14:19:17Z</time>
      </trkpt>
      <trkpt lat="47.35939" lon="6.13434">
        <ele>307</ele>
        <time>2025-06-24T14:19:26Z</time>
      </trkpt>
      <trkpt lat="47.35935" lon="6.13454">
        <ele>307</ele>
        <time>2025-06-24T14:19:34Z</time>
      </trkpt>
      <trkpt lat="47.35926" lon="6.13471">
        <ele>306</ele>
        <time>2025-06-24T14:19:42Z</time>
      </trkpt>
      <trkpt lat="47.35918" lon="6.13487">
        <ele>307</ele>
        <time>2025-06-24T14:19:50Z</time>
      </trkpt>
      <trkpt lat="47.3591" lon="6.13503">
        <ele>306</ele>
        <time>2025-06-24T14:19:58Z</time>
      </trkpt>
      <trkpt lat="47.35901" lon="6.1352">
        <ele>305</ele>
        <time>2025-06-24T14:20:08Z</time>
      </trkpt>
      <trkpt lat="47.3589" lon="6.13534">
        <ele>304</ele>
        <time>2025-06-24T14:20:16Z</time>
      </trkpt>
      <trkpt lat="47.35879" lon="6.13544">
        <ele>303</ele>
        <time>2025-06-24T14:20:24Z</time>
      </trkpt>
      <trkpt lat="47.35865" lon="6.13551">
        <ele>302</ele>
        <time>2025-06-24T14:20:33Z</time>
      </trkpt>
      <trkpt lat="47.35851" lon="6.13556">
        <ele>300</ele>
        <time>2025-06-24T14:20:43Z</time>
      </trkpt>
      <trkpt lat="47.35837" lon="6.13561">
        <ele>298</ele>
        <time>2025-06-24T14:20:53Z</time>
      </trkpt>
      <trkpt lat="47.35824" lon="6.13567">
        <ele>297</ele>
        <time>2025-06-24T14:21:02Z</time>
      </trkpt>
      <trkpt lat="47.35813" lon="6.13583">
        <ele>296</ele>
        <time>2025-06-24T14:21:11Z</time>
      </trkpt>
      <trkpt lat="47.35805" lon="6.13598">
        <ele>297</ele>
        <time>2025-06-24T14:21:21Z</time>
      </trkpt>
      <trkpt lat="47.35794" lon="6.13613">
        <ele>296</ele>
        <time>2025-06-24T14:21:29Z</time>
      </trkpt>
      <trkpt lat="47.35783" lon="6.13625">
        <ele>295</ele>
        <time>2025-06-24T14:21:37Z</time>
      </trkpt>
      <trkpt lat="47.3577" lon="6.13636">
        <ele>295</ele>
        <time>2025-06-24T14:21:46Z</time>
      </trkpt>
      <trkpt lat="47.35757" lon="6.13647">
        <ele>295</ele>
        <time>2025-06-24T14:21:55Z</time>
      </trkpt>
      <trkpt lat="47.35746" lon="6.13659">
        <ele>294</ele>
        <time>2025-06-24T14:22:02Z</time>
      </trkpt>
      <trkpt lat="47.35741" lon="6.13679">
        <ele>296</ele>
        <time>2025-06-24T14:22:11Z</time>
      </trkpt>
      <trkpt lat="47.35731" lon="6.13696">
        <ele>298</ele>
        <time>2025-06-24T14:22:21Z</time>
      </trkpt>
      <trkpt lat="47.3572" lon="6.13709">
        <ele>300</ele>
        <time>2025-06-24T14:22:32Z</time>
      </trkpt>
      <trkpt lat="47.35706" lon="6.1371">
        <ele>301</ele>
        <time>2025-06-24T14:22:42Z</time>
      </trkpt>
      <trkpt lat="47.35694" lon="6.13701">
        <ele>300</ele>
        <time>2025-06-24T14:22:50Z</time>
      </trkpt>
      <trkpt lat="47.3568" lon="6.13696">
        <ele>300</ele>
        <time>2025-06-24T14:23:00Z</time>
      </trkpt>
      <trkpt lat="47.35669" lon="6.13683">
        <ele>300</ele>
        <time>2025-06-24T14:23:10Z</time>
      </trkpt>
      <trkpt lat="47.35657" lon="6.13674">
        <ele>299</ele>
        <time>2025-06-24T14:23:20Z</time>
      </trkpt>
      <trkpt lat="47.35643" lon="6.13675">
        <ele>299</ele>
        <time>2025-06-24T14:23:30Z</time>
      </trkpt>
      <trkpt lat="47.35629" lon="6.13671">
        <ele>301</ele>
        <time>2025-06-24T14:23:41Z</time>
      </trkpt>
      <trkpt lat="47.35615" lon="6.1367">
        <ele>301</ele>
        <time>2025-06-24T14:23:52Z</time>
      </trkpt>
      <trkpt lat="47.35604" lon="6.13657">
        <ele>304</ele>
        <time>2025-06-24T14:24:02Z</time>
      </trkpt>
      <trkpt lat="47.35593" lon="6.13646">
        <ele>303</ele>
        <time>2025-06-24T14:24:25Z</time>
      </trkpt>
      <trkpt lat="47.35581" lon="6.13655">
        <ele>307</ele>
        <time>2025-06-24T14:24:35Z</time>
      </trkpt>
      <trkpt lat="47.35569" lon="6.13641">
        <ele>306</ele>
        <time>2025-06-24T14:24:45Z</time>
      </trkpt>
      <trkpt lat="47.35555" lon="6.1364">
        <ele>309</ele>
        <time>2025-06-24T14:24:58Z</time>
      </trkpt>
      <trkpt lat="47.35542" lon="6.13637">
        <ele>312</ele>
        <time>2025-06-24T14:25:14Z</time>
      </trkpt>
      <trkpt lat="47.35528" lon="6.13633">
        <ele>316</ele>
        <time>2025-06-24T14:25:27Z</time>
      </trkpt>
      <trkpt lat="47.35514" lon="6.13631">
        <ele>320</ele>
        <time>2025-06-24T14:25:40Z</time>
      </trkpt>
      <trkpt lat="47.35502" lon="6.13624">
        <ele>321</ele>
        <time>2025-06-24T14:25:53Z</time>
      </trkpt>
      <trkpt lat="47.35488" lon="6.13629">
        <ele>325</ele>
        <time>2025-06-24T14:26:07Z</time>
      </trkpt>
      <trkpt lat="47.35475" lon="6.13628">
        <ele>329</ele>
        <time>2025-06-24T14:26:22Z</time>
      </trkpt>
      <trkpt lat="47.35464" lon="6.13616">
        <ele>329</ele>
        <time>2025-06-24T14:26:34Z</time>
      </trkpt>
      <trkpt lat="47.3546" lon="6.13597">
        <ele>329</ele>
        <time>2025-06-24T14:26:43Z</time>
      </trkpt>
      <trkpt lat="47.35458" lon="6.13575">
        <ele>330</ele>
        <time>2025-06-24T14:26:53Z</time>
      </trkpt>
      <trkpt lat="47.35454" lon="6.13555">
        <ele>331</ele>
        <time>2025-06-24T14:27:04Z</time>
      </trkpt>
      <trkpt lat="47.35456" lon="6.13534">
        <ele>332</ele>
        <time>2025-06-24T14:27:15Z</time>
      </trkpt>
      <trkpt lat="47.35456" lon="6.13513">
        <ele>334</ele>
        <time>2025-06-24T14:27:26Z</time>
      </trkpt>
      <trkpt lat="47.35454" lon="6.13494">
        <ele>332</ele>
        <time>2025-06-24T14:27:35Z</time>
      </trkpt>
      <trkpt lat="47.35454" lon="6.13473">
        <ele>334</ele>
        <time>2025-06-24T14:27:45Z</time>
      </trkpt>
      <trkpt lat="47.3545" lon="6.13453">
        <ele>332</ele>
        <time>2025-06-24T14:27:54Z</time>
      </trkpt>
      <trkpt lat="47.35446" lon="6.13433">
        <ele>331</ele>
        <time>2025-06-24T14:28:03Z</time>
      </trkpt>
      <trkpt lat="47.35442" lon="6.13413">
        <ele>334</ele>
        <time>2025-06-24T14:28:12Z</time>
      </trkpt>
      <trkpt lat="47.35437" lon="6.13394">
        <ele>333</ele>
        <time>2025-06-24T14:28:22Z</time>
      </trkpt>
      <trkpt lat="47.3543" lon="6.13377">
        <ele>333</ele>
        <time>2025-06-24T14:28:35Z</time>
      </trkpt>
      <trkpt lat="47.35418" lon="6.13364">
        <ele>335</ele>
        <time>2025-06-24T14:28:46Z</time>
      </trkpt>
      <trkpt lat="47.35409" lon="6.13349">
        <ele>337</ele>
        <time>2025-06-24T14:28:55Z</time>
      </trkpt>
      <trkpt lat="47.35401" lon="6.13332">
        <ele>336</ele>
        <time>2025-06-24T14:29:03Z</time>
      </trkpt>
      <trkpt lat="47.35395" lon="6.13313">
        <ele>336</ele>
        <time>2025-06-24T14:29:13Z</time>
      </trkpt>
      <trkpt lat="47.35388" lon="6.13292">
        <ele>339</ele>
        <time>2025-06-24T14:29:22Z</time>
      </trkpt>
      <trkpt lat="47.35378" lon="6.13279">
        <ele>339</ele>
        <time>2025-06-24T14:29:30Z</time>
      </trkpt>
      <trkpt lat="47.35368" lon="6.13265">
        <ele>340</ele>
        <time>2025-06-24T14:29:40Z</time>
      </trkpt>
      <trkpt lat="47.35364" lon="6.13246">
        <ele>340</ele>
        <time>2025-06-24T14:29:51Z</time>
      </trkpt>
      <trkpt lat="47.35359" lon="6.13227">
        <ele>342</ele>
        <time>2025-06-24T14:29:59Z</time>
      </trkpt>
      <trkpt lat="47.35349" lon="6.13209">
        <ele>341</ele>
        <time>2025-06-24T14:30:08Z</time>
      </trkpt>
      <trkpt lat="47.3534" lon="6.13193">
        <ele>344</ele>
        <time>2025-06-24T14:30:17Z</time>
      </trkpt>
      <trkpt lat="47.35328" lon="6.13203">
        <ele>345</ele>
        <time>2025-06-24T14:30:33Z</time>
      </trkpt>
      <trkpt lat="47.35337" lon="6.13218">
        <ele>347</ele>
        <time>2025-06-24T14:30:42Z</time>
      </trkpt>
      <trkpt lat="47.35342" lon="6.13238">
        <ele>349</ele>
        <time>2025-06-24T14:30:50Z</time>
      </trkpt>
      <trkpt lat="47.35349" lon="6.13256">
        <ele>348</ele>
        <time>2025-06-24T14:31:00Z</time>
      </trkpt>
      <trkpt lat="47.35355" lon="6.13274">
        <ele>348</ele>
        <time>2025-06-24T14:31:09Z</time>
      </trkpt>
      <trkpt lat="47.35359" lon="6.13294">
        <ele>349</ele>
        <time>2025-06-24T14:31:18Z</time>
      </trkpt>
      <trkpt lat="47.35361" lon="6.13315">
        <ele>350</ele>
        <time>2025-06-24T14:31:27Z</time>
      </trkpt>
      <trkpt lat="47.35365" lon="6.13335">
        <ele>351</ele>
        <time>2025-06-24T14:31:35Z</time>
      </trkpt>
      <trkpt lat="47.35367" lon="6.13356">
        <ele>352</ele>
        <time>2025-06-24T14:31:44Z</time>
      </trkpt>
      <trkpt lat="47.35368" lon="6.13377">
        <ele>353</ele>
        <time>2025-06-24T14:31:54Z</time>
      </trkpt>
      <trkpt lat="47.35371" lon="6.13398">
        <ele>354</ele>
        <time>2025-06-24T14:32:02Z</time>
      </trkpt>
      <trkpt lat="47.35372" lon="6.13418">
        <ele>355</ele>
        <time>2025-06-24T14:32:10Z</time>
      </trkpt>
      <trkpt lat="47.35375" lon="6.13439">
        <ele>355</ele>
        <time>2025-06-24T14:32:19Z</time>
      </trkpt>
      <trkpt lat="47.35378" lon="6.1346">
        <ele>357</ele>
        <time>2025-06-24T14:32:28Z</time>
      </trkpt>
      <trkpt lat="47.3538" lon="6.13481">
        <ele>358</ele>
        <time>2025-06-24T14:32:37Z</time>
      </trkpt>
      <trkpt lat="47.35383" lon="6.13501">
        <ele>358</ele>
        <time>2025-06-24T14:32:45Z</time>
      </trkpt>
      <trkpt lat="47.35384" lon="6.13521">
        <ele>360</ele>
        <time>2025-06-24T14:32:53Z</time>
      </trkpt>
      <trkpt lat="47.35377" lon="6.13539">
        <ele>359</ele>
        <time>2025-06-24T14:33:02Z</time>
      </trkpt>
      <trkpt lat="47.35363" lon="6.13538">
        <ele>364</ele>
        <time>2025-06-24T14:33:14Z</time>
      </trkpt>
      <trkpt lat="47.3535" lon="6.13548">
        <ele>366</ele>
        <time>2025-06-24T14:33:25Z</time>
      </trkpt>
      <trkpt lat="47.3534" lon="6.13561">
        <ele>372</ele>
        <time>2025-06-24T14:33:39Z</time>
      </trkpt>
      <trkpt lat="47.3533" lon="6.13574">
        <ele>374</ele>
        <time>2025-06-24T14:34:10Z</time>
      </trkpt>
      <trkpt lat="47.35318" lon="6.13586">
        <ele>376</ele>
        <time>2025-06-24T14:34:38Z</time>
      </trkpt>
      <trkpt lat="47.35325" lon="6.13604">
        <ele>375</ele>
        <time>2025-06-24T14:35:04Z</time>
      </trkpt>
      <trkpt lat="47.3533" lon="6.13622">
        <ele>376</ele>
        <time>2025-06-24T14:35:15Z</time>
      </trkpt>
      <trkpt lat="47.35335" lon="6.13641">
        <ele>377</ele>
        <time>2025-06-24T14:35:25Z</time>
      </trkpt>
      <trkpt lat="47.35341" lon="6.1366">
        <ele>376</ele>
        <time>2025-06-24T14:35:34Z</time>
      </trkpt>
      <trkpt lat="47.35341" lon="6.1368">
        <ele>377</ele>
        <time>2025-06-24T14:35:45Z</time>
      </trkpt>
      <trkpt lat="47.35339" lon="6.13701">
        <ele>377</ele>
        <time>2025-06-24T14:35:54Z</time>
      </trkpt>
      <trkpt lat="47.35339" lon="6.13721">
        <ele>381</ele>
        <time>2025-06-24T14:36:04Z</time>
      </trkpt>
      <trkpt lat="47.3534" lon="6.13741">
        <ele>380</ele>
        <time>2025-06-24T14:36:14Z</time>
      </trkpt>
      <trkpt lat="47.35342" lon="6.13761">
        <ele>382</ele>
        <time>2025-06-24T14:36:23Z</time>
      </trkpt>
      <trkpt lat="47.35343" lon="6.13781">
        <ele>383</ele>
        <time>2025-06-24T14:36:33Z</time>
      </trkpt>
      <trkpt lat="47.35344" lon="6.13801">
        <ele>383</ele>
        <time>2025-06-24T14:36:42Z</time>
      </trkpt>
      <trkpt lat="47.3534" lon="6.13821">
        <ele>390</ele>
        <time>2025-06-24T14:36:53Z</time>
      </trkpt>
      <trkpt lat="47.35338" lon="6.13842">
        <ele>390</ele>
        <time>2025-06-24T14:37:05Z</time>
      </trkpt>
      <trkpt lat="47.35336" lon="6.13862">
        <ele>392</ele>
        <time>2025-06-24T14:37:23Z</time>
      </trkpt>
      <trkpt lat="47.3533" lon="6.1388">
        <ele>390</ele>
        <time>2025-06-24T14:37:33Z</time>
      </trkpt>
      <trkpt lat="47.35327" lon="6.139">
        <ele>390</ele>
        <time>2025-06-24T14:37:43Z</time>
      </trkpt>
      <trkpt lat="47.35327" lon="6.13921">
        <ele>389</ele>
        <time>2025-06-24T14:37:53Z</time>
      </trkpt>
      <trkpt lat="47.35325" lon="6.13941">
        <ele>389</ele>
        <time>2025-06-24T14:38:01Z</time>
      </trkpt>
      <trkpt lat="47.35329" lon="6.13961">
        <ele>388</ele>
        <time>2025-06-24T14:38:10Z</time>
      </trkpt>
      <trkpt lat="47.35329" lon="6.13981">
        <ele>389</ele>
        <time>2025-06-24T14:38:20Z</time>
      </trkpt>
      <trkpt lat="47.35327" lon="6.14002">
        <ele>391</ele>
        <time>2025-06-24T14:38:30Z</time>
      </trkpt>
      <trkpt lat="47.35329" lon="6.14022">
        <ele>388</ele>
        <time>2025-06-24T14:38:40Z</time>
      </trkpt>
      <trkpt lat="47.35328" lon="6.14041">
        <ele>388</ele>
        <time>2025-06-24T14:38:49Z</time>
      </trkpt>
      <trkpt lat="47.35327" lon="6.14062">
        <ele>386</ele>
        <time>2025-06-24T14:38:58Z</time>
      </trkpt>
      <trkpt lat="47.35332" lon="6.14081">
        <ele>387</ele>
        <time>2025-06-24T14:39:06Z</time>
      </trkpt>
      <trkpt lat="47.35334" lon="6.14101">
        <ele>387</ele>
        <time>2025-06-24T14:39:14Z</time>
      </trkpt>
      <trkpt lat="47.35335" lon="6.14121">
        <ele>388</ele>
        <time>2025-06-24T14:39:24Z</time>
      </trkpt>
      <trkpt lat="47.3534" lon="6.1414">
        <ele>388</ele>
        <time>2025-06-24T14:39:34Z</time>
      </trkpt>
      <trkpt lat="47.35338" lon="6.14161">
        <ele>390</ele>
        <time>2025-06-24T14:39:43Z</time>
      </trkpt>
      <trkpt lat="47.35341" lon="6.14181">
        <ele>391</ele>
        <time>2025-06-24T14:39:52Z</time>
      </trkpt>
      <trkpt lat="47.35347" lon="6.14199">
        <ele>391</ele>
        <time>2025-06-24T14:40:01Z</time>
      </trkpt>
      <trkpt lat="47.35348" lon="6.14219">
        <ele>392</ele>
        <time>2025-06-24T14:40:11Z</time>
      </trkpt>
      <trkpt lat="47.35349" lon="6.1424">
        <ele>393</ele>
        <time>2025-06-24T14:40:21Z</time>
      </trkpt>
      <trkpt lat="47.35348" lon="6.14262">
        <ele>394</ele>
        <time>2025-06-24T14:40:31Z</time>
      </trkpt>
      <trkpt lat="47.35345" lon="6.14282">
        <ele>395</ele>
        <time>2025-06-24T14:40:40Z</time>
      </trkpt>
      <trkpt lat="47.35339" lon="6.14302">
        <ele>395</ele>
        <time>2025-06-24T14:40:51Z</time>
      </trkpt>
      <trkpt lat="47.35333" lon="6.14319">
        <ele>395</ele>
        <time>2025-06-24T14:41:01Z</time>
      </trkpt>
      <trkpt lat="47.35328" lon="6.14339">
        <ele>397</ele>
        <time>2025-06-24T14:41:12Z</time>
      </trkpt>
      <trkpt lat="47.35316" lon="6.14349">
        <ele>397</ele>
        <time>2025-06-24T14:41:23Z</time>
      </trkpt>
      <trkpt lat="47.35307" lon="6.14364">
        <ele>399</ele>
        <time>2025-06-24T14:41:33Z</time>
      </trkpt>
      <trkpt lat="47.35299" lon="6.14381">
        <ele>401</ele>
        <time>2025-06-24T14:41:45Z</time>
      </trkpt>
      <trkpt lat="47.35287" lon="6.14392">
        <ele>404</ele>
        <time>2025-06-24T14:41:58Z</time>
      </trkpt>
      <trkpt lat="47.35279" lon="6.14409">
        <ele>407</ele>
        <time>2025-06-24T14:42:10Z</time>
      </trkpt>
      <trkpt lat="47.35273" lon="6.14427">
        <ele>406</ele>
        <time>2025-06-24T14:42:21Z</time>
      </trkpt>
      <trkpt lat="47.35264" lon="6.14443">
        <ele>409</ele>
        <time>2025-06-24T14:42:32Z</time>
      </trkpt>
      <trkpt lat="47.35257" lon="6.14462">
        <ele>410</ele>
        <time>2025-06-24T14:42:43Z</time>
      </trkpt>
      <trkpt lat="47.35243" lon="6.14458">
        <ele>411</ele>
        <time>2025-06-24T14:42:53Z</time>
      </trkpt>
      <trkpt lat="47.3523" lon="6.14449">
        <ele>413</ele>
        <time>2025-06-24T14:43:32Z</time>
      </trkpt>
      <trkpt lat="47.35217" lon="6.14443">
        <ele>415</ele>
        <time>2025-06-24T14:43:44Z</time>
      </trkpt>
      <trkpt lat="47.35203" lon="6.14442">
        <ele>417</ele>
        <time>2025-06-24T14:43:57Z</time>
      </trkpt>
      <trkpt lat="47.3519" lon="6.14439">
        <ele>421</ele>
        <time>2025-06-24T14:44:08Z</time>
      </trkpt>
      <trkpt lat="47.35176" lon="6.14432">
        <ele>423</ele>
        <time>2025-06-24T14:44:19Z</time>
      </trkpt>
      <trkpt lat="47.35164" lon="6.14422">
        <ele>425</ele>
        <time>2025-06-24T14:44:30Z</time>
      </trkpt>
      <trkpt lat="47.3515" lon="6.14419">
        <ele>429</ele>
        <time>2025-06-24T14:44:42Z</time>
      </trkpt>
      <trkpt lat="47.35135" lon="6.14419">
        <ele>431</ele>
        <time>2025-06-24T14:44:57Z</time>
      </trkpt>
      <trkpt lat="47.35126" lon="6.14402">
        <ele>435</ele>
        <time>2025-06-24T14:45:07Z</time>
      </trkpt>
      <trkpt lat="47.35113" lon="6.14393">
        <ele>435</ele>
        <time>2025-06-24T14:45:17Z</time>
      </trkpt>
      <trkpt lat="47.35099" lon="6.14394">
        <ele>441</ele>
        <time>2025-06-24T14:45:29Z</time>
      </trkpt>
      <trkpt lat="47.35084" lon="6.14393">
        <ele>440</ele>
        <time>2025-06-24T14:45:40Z</time>
      </trkpt>
      <trkpt lat="47.35071" lon="6.14388">
        <ele>448</ele>
        <time>2025-06-24T14:45:52Z</time>
      </trkpt>
      <trkpt lat="47.35058" lon="6.14381">
        <ele>443</ele>
        <time>2025-06-24T14:46:02Z</time>
      </trkpt>
      <trkpt lat="47.35044" lon="6.14378">
        <ele>445</ele>
        <time>2025-06-24T14:46:12Z</time>
      </trkpt>
      <trkpt lat="47.35035" lon="6.14363">
        <ele>449</ele>
        <time>2025-06-24T14:46:23Z</time>
      </trkpt>
      <trkpt lat="47.35026" lon="6.14346">
        <ele>451</ele>
        <time>2025-06-24T14:46:37Z</time>
      </trkpt>
      <trkpt lat="47.35019" lon="6.14328">
        <ele>454</ele>
        <time>2025-06-24T14:46:47Z</time>
      </trkpt>
      <trkpt lat="47.35018" lon="6.14309">
        <ele>455</ele>
        <time>2025-06-24T14:46:57Z</time>
      </trkpt>
      <trkpt lat="47.35017" lon="6.14288">
        <ele>458</ele>
        <time>2025-06-24T14:47:08Z</time>
      </trkpt>
      <trkpt lat="47.35012" lon="6.14269">
        <ele>460</ele>
        <time>2025-06-24T14:47:19Z</time>
      </trkpt>
      <trkpt lat="47.35005" lon="6.14252">
        <ele>462</ele>
        <time>2025-06-24T14:47:30Z</time>
      </trkpt>
      <trkpt lat="47.35001" lon="6.14232">
        <ele>465</ele>
        <time>2025-06-24T14:47:42Z</time>
      </trkpt>
      <trkpt lat="47.34998" lon="6.14212">
        <ele>467</ele>
        <time>2025-06-24T14:47:52Z</time>
      </trkpt>
      <trkpt lat="47.3499" lon="6.14193">
        <ele>469</ele>
        <time>2025-06-24T14:48:03Z</time>
      </trkpt>
      <trkpt lat="47.34987" lon="6.14174">
        <ele>472</ele>
        <time>2025-06-24T14:48:14Z</time>
      </trkpt>
      <trkpt lat="47.34985" lon="6.14153">
        <ele>474</ele>
        <time>2025-06-24T14:48:25Z</time>
      </trkpt>
      <trkpt lat="47.34981" lon="6.14134">
        <ele>475</ele>
        <time>2025-06-24T14:48:36Z</time>
      </trkpt>
      <trkpt lat="47.34972" lon="6.14118">
        <ele>478</ele>
        <time>2025-06-24T14:48:46Z</time>
      </trkpt>
      <trkpt lat="47.34964" lon="6.14101">
        <ele>481</ele>
        <time>2025-06-24T14:48:56Z</time>
      </trkpt>
      <trkpt lat="47.34955" lon="6.14086">
        <ele>480</ele>
        <time>2025-06-24T14:49:06Z</time>
      </trkpt>
      <trkpt lat="47.34946" lon="6.14071">
        <ele>480</ele>
        <time>2025-06-24T14:49:16Z</time>
      </trkpt>
      <trkpt lat="47.34936" lon="6.14055">
        <ele>481</ele>
        <time>2025-06-24T14:49:26Z</time>
      </trkpt>
      <trkpt lat="47.34933" lon="6.14035">
        <ele>485</ele>
        <time>2025-06-24T14:49:37Z</time>
      </trkpt>
      <trkpt lat="47.34938" lon="6.14016">
        <ele>489</ele>
        <time>2025-06-24T14:49:49Z</time>
      </trkpt>
      <trkpt lat="47.3494" lon="6.13996">
        <ele>490</ele>
        <time>2025-06-24T14:49:59Z</time>
      </trkpt>
      <trkpt lat="47.34942" lon="6.13976">
        <ele>492</ele>
        <time>2025-06-24T14:50:10Z</time>
      </trkpt>
      <trkpt lat="47.34936" lon="6.13959">
        <ele>490</ele>
        <time>2025-06-24T14:50:21Z</time>
      </trkpt>
      <trkpt lat="47.34934" lon="6.13937">
        <ele>496</ele>
        <time>2025-06-24T14:50:32Z</time>
      </trkpt>
      <trkpt lat="47.34934" lon="6.13917">
        <ele>498</ele>
        <time>2025-06-24T14:50:44Z</time>
      </trkpt>
      <trkpt lat="47.3493" lon="6.13898">
        <ele>501</ele>
        <time>2025-06-24T14:50:55Z</time>
      </trkpt>
      <trkpt lat="47.34926" lon="6.13877">
        <ele>506</ele>
        <time>2025-06-24T14:51:08Z</time>
      </trkpt>
      <trkpt lat="47.34918" lon="6.13861">
        <ele>507</ele>
        <time>2025-06-24T14:51:20Z</time>
      </trkpt>
      <trkpt lat="47.34911" lon="6.13844">
        <ele>510</ele>
        <time>2025-06-24T14:51:31Z</time>
      </trkpt>
      <trkpt lat="47.34907" lon="6.13824">
        <ele>513</ele>
        <time>2025-06-24T14:51:44Z</time>
      </trkpt>
      <trkpt lat="47.34896" lon="6.1381">
        <ele>517</ele>
        <time>2025-06-24T14:51:58Z</time>
      </trkpt>
      <trkpt lat="47.34889" lon="6.13793">
        <ele>521</ele>
        <time>2025-06-24T14:52:16Z</time>
      </trkpt>
      <trkpt lat="47.34883" lon="6.13775">
        <ele>525</ele>
        <time>2025-06-24T14:52:28Z</time>
      </trkpt>
      <trkpt lat="47.34882" lon="6.13754">
        <ele>530</ele>
        <time>2025-06-24T14:52:50Z</time>
      </trkpt>
      <trkpt lat="47.34877" lon="6.13735">
        <ele>532</ele>
        <time>2025-06-24T14:53:00Z</time>
      </trkpt>
      <trkpt lat="47.34874" lon="6.13715">
        <ele>534</ele>
        <time>2025-06-24T14:53:12Z</time>
      </trkpt>
      <trkpt lat="47.34867" lon="6.13698">
        <ele>537</ele>
        <time>2025-06-24T14:53:25Z</time>
      </trkpt>
      <trkpt lat="47.34857" lon="6.13684">
        <ele>539</ele>
        <time>2025-06-24T14:53:37Z</time>
      </trkpt>
      <trkpt lat="47.34852" lon="6.13665">
        <ele>542</ele>
        <time>2025-06-24T14:53:48Z</time>
      </trkpt>
      <trkpt lat="47.34849" lon="6.13644">
        <ele>544</ele>
        <time>2025-06-24T14:53:59Z</time>
      </trkpt>
      <trkpt lat="47.34838" lon="6.1363">
        <ele>549</ele>
        <time>2025-06-24T14:54:13Z</time>
      </trkpt>
      <trkpt lat="47.34828" lon="6.13613">
        <ele>547</ele>
        <time>2025-06-24T14:54:21Z</time>
      </trkpt>
      <trkpt lat="47.34816" lon="6.13604">
        <ele>548</ele>
        <time>2025-06-24T14:54:29Z</time>
      </trkpt>
      <trkpt lat="47.34807" lon="6.13588">
        <ele>549</ele>
        <time>2025-06-24T14:54:38Z</time>
      </trkpt>
      <trkpt lat="47.34801" lon="6.1357">
        <ele>550</ele>
        <time>2025-06-24T14:54:48Z</time>
      </trkpt>
      <trkpt lat="47.34796" lon="6.13551">
        <ele>552</ele>
        <time>2025-06-24T14:54:59Z</time>
      </trkpt>
      <trkpt lat="47.3479" lon="6.13532">
        <ele>553</ele>
        <time>2025-06-24T14:55:09Z</time>
      </trkpt>
      <trkpt lat="47.34784" lon="6.13514">
        <ele>554</ele>
        <time>2025-06-24T14:55:18Z</time>
      </trkpt>
      <trkpt lat="47.34776" lon="6.13496">
        <ele>555</ele>
        <time>2025-06-24T14:55:28Z</time>
      </trkpt>
      <trkpt lat="47.3477" lon="6.13477">
        <ele>556</ele>
        <time>2025-06-24T14:55:37Z</time>
      </trkpt>
      <trkpt lat="47.34769" lon="6.13454">
        <ele>555</ele>
        <time>2025-06-24T14:56:19Z</time>
      </trkpt>
      <trkpt lat="47.34767" lon="6.13434">
        <ele>558</ele>
        <time>2025-06-24T14:56:29Z</time>
      </trkpt>
      <trkpt lat="47.34766" lon="6.13413">
        <ele>556</ele>
        <time>2025-06-24T14:56:38Z</time>
      </trkpt>
      <trkpt lat="47.34768" lon="6.13391">
        <ele>556</ele>
        <time>2025-06-24T14:56:48Z</time>
      </trkpt>
      <trkpt lat="47.34766" lon="6.13371">
        <ele>556</ele>
        <time>2025-06-24T14:56:57Z</time>
      </trkpt>
      <trkpt lat="47.34764" lon="6.13351">
        <ele>556</ele>
        <time>2025-06-24T14:57:06Z</time>
      </trkpt>
      <trkpt lat="47.3476" lon="6.1333">
        <ele>556</ele>
        <time>2025-06-24T14:57:16Z</time>
      </trkpt>
      <trkpt lat="47.34758" lon="6.1331">
        <ele>559</ele>
        <time>2025-06-24T14:57:24Z</time>
      </trkpt>
      <trkpt lat="47.3476" lon="6.13289">
        <ele>558</ele>
        <time>2025-06-24T14:57:33Z</time>
      </trkpt>
      <trkpt lat="47.34763" lon="6.13269">
        <ele>557</ele>
        <time>2025-06-24T14:57:43Z</time>
      </trkpt>
      <trkpt lat="47.34767" lon="6.13248">
        <ele>556</ele>
        <time>2025-06-24T14:57:52Z</time>
      </trkpt>
      <trkpt lat="47.34769" lon="6.13228">
        <ele>557</ele>
        <time>2025-06-24T14:58:01Z</time>
      </trkpt>
      <trkpt lat="47.34777" lon="6.13212">
        <ele>556</ele>
        <time>2025-06-24T14:58:10Z</time>
      </trkpt>
      <trkpt lat="47.34783" lon="6.13193">
        <ele>556</ele>
        <time>2025-06-24T14:58:15Z</time>
      </trkpt>
      <trkpt lat="47.34788" lon="6.13173">
        <ele>554</ele>
        <time>2025-06-24T14:58:21Z</time>
      </trkpt>
      <trkpt lat="47.34788" lon="6.13148">
        <ele>555</ele>
        <time>2025-06-24T14:58:28Z</time>
      </trkpt>
      <trkpt lat="47.34782" lon="6.13129">
        <ele>554</ele>
        <time>2025-06-24T14:58:33Z</time>
      </trkpt>
      <trkpt lat="47.34772" lon="6.13114">
        <ele>552</ele>
        <time>2025-06-24T14:58:40Z</time>
      </trkpt>
      <trkpt lat="47.34771" lon="6.13092">
        <ele>552</ele>
        <time>2025-06-24T14:58:45Z</time>
      </trkpt>
      <trkpt lat="47.34766" lon="6.13072">
        <ele>553</ele>
        <time>2025-06-24T14:58:50Z</time>
      </trkpt>
      <trkpt lat="47.34756" lon="6.13056">
        <ele>557</ele>
        <time>2025-06-24T14:58:55Z</time>
      </trkpt>
      <trkpt lat="47.34748" lon="6.13039">
        <ele>556</ele>
        <time>2025-06-24T14:59:00Z</time>
      </trkpt>
      <trkpt lat="47.34739" lon="6.13023">
        <ele>553</ele>
        <time>2025-06-24T14:59:05Z</time>
      </trkpt>
      <trkpt lat="47.34728" lon="6.13009">
        <ele>554</ele>
        <time>2025-06-24T14:59:12Z</time>
      </trkpt>
      <trkpt lat="47.34722" lon="6.12991">
        <ele>555</ele>
        <time>2025-06-24T14:59:23Z</time>
      </trkpt>
      <trkpt lat="47.34714" lon="6.12972">
        <ele>559</ele>
        <time>2025-06-24T14:59:33Z</time>
      </trkpt>
      <trkpt lat="47.34703" lon="6.12962">
        <ele>557</ele>
        <time>2025-06-24T14:59:38Z</time>
      </trkpt>
      <trkpt lat="47.34692" lon="6.12947">
        <ele>558</ele>
        <time>2025-06-24T14:59:44Z</time>
      </trkpt>
      <trkpt lat="47.34682" lon="6.12933">
        <ele>556</ele>
        <time>2025-06-24T14:59:49Z</time>
      </trkpt>
      <trkpt lat="47.34673" lon="6.12916">
        <ele>555</ele>
        <time>2025-06-24T14:59:54Z</time>
      </trkpt>
      <trkpt lat="47.34666" lon="6.12893">
        <ele>555</ele>
        <time>2025-06-24T15:00:00Z</time>
      </trkpt>
      <trkpt lat="47.34659" lon="6.12875">
        <ele>555</ele>
        <time>2025-06-24T15:00:05Z</time>
      </trkpt>
      <trkpt lat="47.3465" lon="6.12858">
        <ele>553</ele>
        <time>2025-06-24T15:00:10Z</time>
      </trkpt>
      <trkpt lat="47.34643" lon="6.12838">
        <ele>554</ele>
        <time>2025-06-24T15:00:16Z</time>
      </trkpt>
      <trkpt lat="47.34632" lon="6.12824">
        <ele>553</ele>
        <time>2025-06-24T15:00:21Z</time>
      </trkpt>
      <trkpt lat="47.34622" lon="6.1281">
        <ele>553</ele>
        <time>2025-06-24T15:00:26Z</time>
      </trkpt>
      <trkpt lat="47.34614" lon="6.12794">
        <ele>553</ele>
        <time>2025-06-24T15:00:31Z</time>
      </trkpt>
      <trkpt lat="47.34606" lon="6.12775">
        <ele>552</ele>
        <time>2025-06-24T15:00:37Z</time>
      </trkpt>
      <trkpt lat="47.34596" lon="6.12761">
        <ele>550</ele>
        <time>2025-06-24T15:00:42Z</time>
      </trkpt>
      <trkpt lat="47.34586" lon="6.12747">
        <ele>550</ele>
        <time>2025-06-24T15:00:47Z</time>
      </trkpt>
      <trkpt lat="47.34575" lon="6.12736">
        <ele>551</ele>
        <time>2025-06-24T15:00:53Z</time>
      </trkpt>
      <trkpt lat="47.34566" lon="6.1272">
        <ele>551</ele>
        <time>2025-06-24T15:00:58Z</time>
      </trkpt>
      <trkpt lat="47.34558" lon="6.12704">
        <ele>550</ele>
        <time>2025-06-24T15:01:03Z</time>
      </trkpt>
      <trkpt lat="47.34546" lon="6.12693">
        <ele>549</ele>
        <time>2025-06-24T15:01:08Z</time>
      </trkpt>
      <trkpt lat="47.34536" lon="6.1268">
        <ele>549</ele>
        <time>2025-06-24T15:01:13Z</time>
      </trkpt>
      <trkpt lat="47.34524" lon="6.12666">
        <ele>548</ele>
        <time>2025-06-24T15:01:18Z</time>
      </trkpt>
      <trkpt lat="47.34514" lon="6.12651">
        <ele>545</ele>
        <time>2025-06-24T15:01:23Z</time>
      </trkpt>
      <trkpt lat="47.34507" lon="6.12634">
        <ele>544</ele>
        <time>2025-06-24T15:01:28Z</time>
      </trkpt>
      <trkpt lat="47.345" lon="6.12616">
        <ele>542</ele>
        <time>2025-06-24T15:01:34Z</time>
      </trkpt>
      <trkpt lat="47.34491" lon="6.12601">
        <ele>541</ele>
        <time>2025-06-24T15:01:39Z</time>
      </trkpt>
      <trkpt lat="47.34485" lon="6.12582">
        <ele>539</ele>
        <time>2025-06-24T15:01:43Z</time>
      </trkpt>
      <trkpt lat="47.34479" lon="6.12561">
        <ele>540</ele>
        <time>2025-06-24T15:01:48Z</time>
      </trkpt>
      <trkpt lat="47.34469" lon="6.12546">
        <ele>539</ele>
        <time>2025-06-24T15:01:53Z</time>
      </trkpt>
      <trkpt lat="47.34456" lon="6.12535">
        <ele>539</ele>
        <time>2025-06-24T15:01:58Z</time>
      </trkpt>
      <trkpt lat="47.34441" lon="6.12532">
        <ele>537</ele>
        <time>2025-06-24T15:02:03Z</time>
      </trkpt>
      <trkpt lat="47.34427" lon="6.12532">
        <ele>535</ele>
        <time>2025-06-24T15:02:08Z</time>
      </trkpt>
      <trkpt lat="47.34413" lon="6.12536">
        <ele>532</ele>
        <time>2025-06-24T15:02:20Z</time>
      </trkpt>
      <trkpt lat="47.34402" lon="6.12524">
        <ele>536</ele>
        <time>2025-06-24T15:02:29Z</time>
      </trkpt>
      <trkpt lat="47.34398" lon="6.12504">
        <ele>534</ele>
        <time>2025-06-24T15:02:34Z</time>
      </trkpt>
      <trkpt lat="47.34388" lon="6.12489">
        <ele>533</ele>
        <time>2025-06-24T15:02:39Z</time>
      </trkpt>
      <trkpt lat="47.34381" lon="6.12471">
        <ele>530</ele>
        <time>2025-06-24T15:02:44Z</time>
      </trkpt>
      <trkpt lat="47.34369" lon="6.12457">
        <ele>530</ele>
        <time>2025-06-24T15:02:49Z</time>
      </trkpt>
      <trkpt lat="47.3436" lon="6.12441">
        <ele>529</ele>
        <time>2025-06-24T15:02:54Z</time>
      </trkpt>
      <trkpt lat="47.34351" lon="6.12425">
        <ele>529</ele>
        <time>2025-06-24T15:02:59Z</time>
      </trkpt>
      <trkpt lat="47.34339" lon="6.12415">
        <ele>526</ele>
        <time>2025-06-24T15:03:04Z</time>
      </trkpt>
      <trkpt lat="47.34327" lon="6.12403">
        <ele>527</ele>
        <time>2025-06-24T15:03:08Z</time>
      </trkpt>
      <trkpt lat="47.34315" lon="6.12391">
        <ele>524</ele>
        <time>2025-06-24T15:03:13Z</time>
      </trkpt>
      <trkpt lat="47.34304" lon="6.12375">
        <ele>524</ele>
        <time>2025-06-24T15:03:18Z</time>
      </trkpt>
      <trkpt lat="47.34295" lon="6.12358">
        <ele>524</ele>
        <time>2025-06-24T15:03:23Z</time>
      </trkpt>
      <trkpt lat="47.34287" lon="6.12342">
        <ele>524</ele>
        <time>2025-06-24T15:03:28Z</time>
      </trkpt>
      <trkpt lat="47.34277" lon="6.12327">
        <ele>522</ele>
        <time>2025-06-24T15:03:33Z</time>
      </trkpt>
      <trkpt lat="47.34268" lon="6.12313">
        <ele>523</ele>
        <time>2025-06-24T15:03:38Z</time>
      </trkpt>
      <trkpt lat="47.34258" lon="6.12296">
        <ele>522</ele>
        <time>2025-06-24T15:03:42Z</time>
      </trkpt>
      <trkpt lat="47.34247" lon="6.12281">
        <ele>522</ele>
        <time>2025-06-24T15:03:48Z</time>
      </trkpt>
      <trkpt lat="47.34238" lon="6.12266">
        <ele>521</ele>
        <time>2025-06-24T15:03:53Z</time>
      </trkpt>
      <trkpt lat="47.34232" lon="6.12248">
        <ele>522</ele>
        <time>2025-06-24T15:03:57Z</time>
      </trkpt>
      <trkpt lat="47.34224" lon="6.12229">
        <ele>522</ele>
        <time>2025-06-24T15:04:03Z</time>
      </trkpt>
      <trkpt lat="47.34215" lon="6.12213">
        <ele>519</ele>
        <time>2025-06-24T15:04:08Z</time>
      </trkpt>
      <trkpt lat="47.34203" lon="6.12204">
        <ele>518</ele>
        <time>2025-06-24T15:04:18Z</time>
      </trkpt>
      <trkpt lat="47.34193" lon="6.12188">
        <ele>518</ele>
        <time>2025-06-24T15:04:27Z</time>
      </trkpt>
      <trkpt lat="47.34191" lon="6.12169">
        <ele>518</ele>
        <time>2025-06-24T15:04:36Z</time>
      </trkpt>
      <trkpt lat="47.34192" lon="6.12149">
        <ele>518</ele>
        <time>2025-06-24T15:04:44Z</time>
      </trkpt>
      <trkpt lat="47.3419" lon="6.12128">
        <ele>518</ele>
        <time>2025-06-24T15:04:53Z</time>
      </trkpt>
      <trkpt lat="47.34187" lon="6.12108">
        <ele>518</ele>
        <time>2025-06-24T15:05:02Z</time>
      </trkpt>
      <trkpt lat="47.34183" lon="6.12089">
        <ele>517</ele>
        <time>2025-06-24T15:05:11Z</time>
      </trkpt>
      <trkpt lat="47.34175" lon="6.1207">
        <ele>517</ele>
        <time>2025-06-24T15:05:20Z</time>
      </trkpt>
      <trkpt lat="47.34165" lon="6.12053">
        <ele>517</ele>
        <time>2025-06-24T15:05:28Z</time>
      </trkpt>
      <trkpt lat="47.34155" lon="6.12038">
        <ele>517</ele>
        <time>2025-06-24T15:05:36Z</time>
      </trkpt>
      <trkpt lat="47.34145" lon="6.12024">
        <ele>516</ele>
        <time>2025-06-24T15:05:44Z</time>
      </trkpt>
      <trkpt lat="47.34135" lon="6.12007">
        <ele>515</ele>
        <time>2025-06-24T15:05:55Z</time>
      </trkpt>
      <trkpt lat="47.34125" lon="6.11992">
        <ele>513</ele>
        <time>2025-06-24T15:06:04Z</time>
      </trkpt>
      <trkpt lat="47.34115" lon="6.11977">
        <ele>515</ele>
        <time>2025-06-24T15:06:12Z</time>
      </trkpt>
      <trkpt lat="47.34107" lon="6.11961">
        <ele>515</ele>
        <time>2025-06-24T15:06:20Z</time>
      </trkpt>
      <trkpt lat="47.34104" lon="6.11942">
        <ele>514</ele>
        <time>2025-06-24T15:06:28Z</time>
      </trkpt>
      <trkpt lat="47.341" lon="6.11922">
        <ele>514</ele>
        <time>2025-06-24T15:06:37Z</time>
      </trkpt>
      <trkpt lat="47.34094" lon="6.11905">
        <ele>514</ele>
        <time>2025-06-24T15:06:46Z</time>
      </trkpt>
      <trkpt lat="47.34083" lon="6.11892">
        <ele>513</ele>
        <time>2025-06-24T15:06:58Z</time>
      </trkpt>
      <trkpt lat="47.34095" lon="6.11902">
        <ele>513</ele>
        <time>2025-06-24T15:07:31Z</time>
      </trkpt>
      <trkpt lat="47.34094" lon="6.1188">
        <ele>515</ele>
        <time>2025-06-24T15:07:54Z</time>
      </trkpt>
      <trkpt lat="47.34104" lon="6.11867">
        <ele>514</ele>
        <time>2025-06-24T15:08:02Z</time>
      </trkpt>
      <trkpt lat="47.34117" lon="6.11857">
        <ele>513</ele>
        <time>2025-06-24T15:08:13Z</time>
      </trkpt>
      <trkpt lat="47.34128" lon="6.11844">
        <ele>511</ele>
        <time>2025-06-24T15:08:22Z</time>
      </trkpt>
      <trkpt lat="47.34132" lon="6.11825">
        <ele>511</ele>
        <time>2025-06-24T15:08:37Z</time>
      </trkpt>
      <trkpt lat="47.34128" lon="6.11844">
        <ele>512</ele>
        <time>2025-06-24T15:09:09Z</time>
      </trkpt>
      <trkpt lat="47.34117" lon="6.11857">
        <ele>514</ele>
        <time>2025-06-24T15:09:18Z</time>
      </trkpt>
      <trkpt lat="47.34104" lon="6.11865">
        <ele>514</ele>
        <time>2025-06-24T15:09:28Z</time>
      </trkpt>
      <trkpt lat="47.34093" lon="6.11855">
        <ele>515</ele>
        <time>2025-06-24T15:09:41Z</time>
      </trkpt>
      <trkpt lat="47.34085" lon="6.11839">
        <ele>514</ele>
        <time>2025-06-24T15:09:50Z</time>
      </trkpt>
      <trkpt lat="47.34075" lon="6.11825">
        <ele>515</ele>
        <time>2025-06-24T15:10:00Z</time>
      </trkpt>
      <trkpt lat="47.34065" lon="6.11809">
        <ele>516</ele>
        <time>2025-06-24T15:10:09Z</time>
      </trkpt>
      <trkpt lat="47.34057" lon="6.11792">
        <ele>514</ele>
        <time>2025-06-24T15:10:19Z</time>
      </trkpt>
      <trkpt lat="47.34049" lon="6.11777">
        <ele>516</ele>
        <time>2025-06-24T15:10:28Z</time>
      </trkpt>
      <trkpt lat="47.34042" lon="6.11758">
        <ele>516</ele>
        <time>2025-06-24T15:10:38Z</time>
      </trkpt>
      <trkpt lat="47.34032" lon="6.11743">
        <ele>516</ele>
        <time>2025-06-24T15:10:46Z</time>
      </trkpt>
      <trkpt lat="47.3402" lon="6.11734">
        <ele>517</ele>
        <time>2025-06-24T15:10:55Z</time>
      </trkpt>
      <trkpt lat="47.34011" lon="6.11719">
        <ele>517</ele>
        <time>2025-06-24T15:11:04Z</time>
      </trkpt>
      <trkpt lat="47.34005" lon="6.117">
        <ele>519</ele>
        <time>2025-06-24T15:11:14Z</time>
      </trkpt>
      <trkpt lat="47.33993" lon="6.11691">
        <ele>520</ele>
        <time>2025-06-24T15:11:23Z</time>
      </trkpt>
      <trkpt lat="47.3398" lon="6.11687">
        <ele>522</ele>
        <time>2025-06-24T15:11:33Z</time>
      </trkpt>
      <trkpt lat="47.33968" lon="6.11676">
        <ele>524</ele>
        <time>2025-06-24T15:11:45Z</time>
      </trkpt>
      <trkpt lat="47.33956" lon="6.11663">
        <ele>525</ele>
        <time>2025-06-24T15:11:54Z</time>
      </trkpt>
      <trkpt lat="47.33943" lon="6.11658">
        <ele>526</ele>
        <time>2025-06-24T15:12:04Z</time>
      </trkpt>
      <trkpt lat="47.33932" lon="6.11646">
        <ele>525</ele>
        <time>2025-06-24T15:12:13Z</time>
      </trkpt>
      <trkpt lat="47.33919" lon="6.11635">
        <ele>529</ele>
        <time>2025-06-24T15:12:22Z</time>
      </trkpt>
      <trkpt lat="47.33907" lon="6.11623">
        <ele>529</ele>
        <time>2025-06-24T15:12:31Z</time>
      </trkpt>
      <trkpt lat="47.33897" lon="6.11608">
        <ele>529</ele>
        <time>2025-06-24T15:12:40Z</time>
      </trkpt>
      <trkpt lat="47.33886" lon="6.11596">
        <ele>532</ele>
        <time>2025-06-24T15:12:49Z</time>
      </trkpt>
      <trkpt lat="47.33874" lon="6.11583">
        <ele>531</ele>
        <time>2025-06-24T15:12:59Z</time>
      </trkpt>
      <trkpt lat="47.33864" lon="6.1157">
        <ele>533</ele>
        <time>2025-06-24T15:13:08Z</time>
      </trkpt>
      <trkpt lat="47.33854" lon="6.11554">
        <ele>533</ele>
        <time>2025-06-24T15:13:18Z</time>
      </trkpt>
      <trkpt lat="47.33844" lon="6.1154">
        <ele>536</ele>
        <time>2025-06-24T15:13:29Z</time>
      </trkpt>
      <trkpt lat="47.33834" lon="6.11527">
        <ele>534</ele>
        <time>2025-06-24T15:13:38Z</time>
      </trkpt>
      <trkpt lat="47.33825" lon="6.11512">
        <ele>535</ele>
        <time>2025-06-24T15:13:47Z</time>
      </trkpt>
      <trkpt lat="47.33814" lon="6.11498">
        <ele>536</ele>
        <time>2025-06-24T15:13:55Z</time>
      </trkpt>
      <trkpt lat="47.33805" lon="6.11482">
        <ele>536</ele>
        <time>2025-06-24T15:14:04Z</time>
      </trkpt>
      <trkpt lat="47.33797" lon="6.11466">
        <ele>537</ele>
        <time>2025-06-24T15:14:20Z</time>
      </trkpt>
      <trkpt lat="47.33788" lon="6.11451">
        <ele>537</ele>
        <time>2025-06-24T15:14:29Z</time>
      </trkpt>
      <trkpt lat="47.33778" lon="6.11434">
        <ele>536</ele>
        <time>2025-06-24T15:14:38Z</time>
      </trkpt>
      <trkpt lat="47.33767" lon="6.11421">
        <ele>539</ele>
        <time>2025-06-24T15:14:49Z</time>
      </trkpt>
      <trkpt lat="47.33755" lon="6.1141">
        <ele>537</ele>
        <time>2025-06-24T15:14:58Z</time>
      </trkpt>
      <trkpt lat="47.33745" lon="6.11397">
        <ele>535</ele>
        <time>2025-06-24T15:15:07Z</time>
      </trkpt>
      <trkpt lat="47.33734" lon="6.11384">
        <ele>536</ele>
        <time>2025-06-24T15:15:17Z</time>
      </trkpt>
      <trkpt lat="47.33728" lon="6.11366">
        <ele>536</ele>
        <time>2025-06-24T15:15:27Z</time>
      </trkpt>
      <trkpt lat="47.33721" lon="6.11347">
        <ele>534</ele>
        <time>2025-06-24T15:15:37Z</time>
      </trkpt>
      <trkpt lat="47.33711" lon="6.11332">
        <ele>537</ele>
        <time>2025-06-24T15:15:48Z</time>
      </trkpt>
      <trkpt lat="47.33701" lon="6.11318">
        <ele>535</ele>
        <time>2025-06-24T15:15:56Z</time>
      </trkpt>
      <trkpt lat="47.33689" lon="6.11309">
        <ele>537</ele>
        <time>2025-06-24T15:16:02Z</time>
      </trkpt>
      <trkpt lat="47.33675" lon="6.11298">
        <ele>538</ele>
        <time>2025-06-24T15:16:07Z</time>
      </trkpt>
      <trkpt lat="47.33661" lon="6.11289">
        <ele>538</ele>
        <time>2025-06-24T15:16:12Z</time>
      </trkpt>
      <trkpt lat="47.33652" lon="6.11274">
        <ele>540</ele>
        <time>2025-06-24T15:16:17Z</time>
      </trkpt>
      <trkpt lat="47.33646" lon="6.11255">
        <ele>539</ele>
        <time>2025-06-24T15:16:22Z</time>
      </trkpt>
      <trkpt lat="47.33641" lon="6.11236">
        <ele>539</ele>
        <time>2025-06-24T15:17:02Z</time>
      </trkpt>
      <trkpt lat="47.33635" lon="6.11218">
        <ele>541</ele>
        <time>2025-06-24T15:17:42Z</time>
      </trkpt>
      <trkpt lat="47.33628" lon="6.11198">
        <ele>541</ele>
        <time>2025-06-24T15:17:53Z</time>
      </trkpt>
      <trkpt lat="47.33626" lon="6.11177">
        <ele>543</ele>
        <time>2025-06-24T15:18:03Z</time>
      </trkpt>
      <trkpt lat="47.33625" lon="6.11156">
        <ele>543</ele>
        <time>2025-06-24T15:18:13Z</time>
      </trkpt>
      <trkpt lat="47.33622" lon="6.11136">
        <ele>544</ele>
        <time>2025-06-24T15:18:25Z</time>
      </trkpt>
      <trkpt lat="47.33616" lon="6.11118">
        <ele>544</ele>
        <time>2025-06-24T15:18:35Z</time>
      </trkpt>
      <trkpt lat="47.33612" lon="6.11099">
        <ele>549</ele>
        <time>2025-06-24T15:18:45Z</time>
      </trkpt>
      <trkpt lat="47.33609" lon="6.11079">
        <ele>547</ele>
        <time>2025-06-24T15:18:54Z</time>
      </trkpt>
      <trkpt lat="47.33604" lon="6.1106">
        <ele>549</ele>
        <time>2025-06-24T15:19:01Z</time>
      </trkpt>
      <trkpt lat="47.33604" lon="6.1104">
        <ele>548</ele>
        <time>2025-06-24T15:19:08Z</time>
      </trkpt>
      <trkpt lat="47.33603" lon="6.1102">
        <ele>549</ele>
        <time>2025-06-24T15:19:15Z</time>
      </trkpt>
      <trkpt lat="47.33594" lon="6.11004">
        <ele>552</ele>
        <time>2025-06-24T15:19:22Z</time>
      </trkpt>
      <trkpt lat="47.33593" lon="6.10984">
        <ele>553</ele>
        <time>2025-06-24T15:19:27Z</time>
      </trkpt>
      <trkpt lat="47.33591" lon="6.10963">
        <ele>553</ele>
        <time>2025-06-24T15:19:33Z</time>
      </trkpt>
      <trkpt lat="47.33586" lon="6.10942">
        <ele>554</ele>
        <time>2025-06-24T15:19:40Z</time>
      </trkpt>
      <trkpt lat="47.33573" lon="6.10928">
        <ele>557</ele>
        <time>2025-06-24T15:19:46Z</time>
      </trkpt>
      <trkpt lat="47.33565" lon="6.10912">
        <ele>557</ele>
        <time>2025-06-24T15:19:59Z</time>
      </trkpt>
      <trkpt lat="47.33552" lon="6.10906">
        <ele>559</ele>
        <time>2025-06-24T15:20:11Z</time>
      </trkpt>
      <trkpt lat="47.33538" lon="6.10898">
        <ele>561</ele>
        <time>2025-06-24T15:20:20Z</time>
      </trkpt>
      <trkpt lat="47.33525" lon="6.10887">
        <ele>562</ele>
        <time>2025-06-24T15:20:29Z</time>
      </trkpt>
      <trkpt lat="47.33515" lon="6.10874">
        <ele>564</ele>
        <time>2025-06-24T15:20:40Z</time>
      </trkpt>
      <trkpt lat="47.33502" lon="6.10864">
        <ele>566</ele>
        <time>2025-06-24T15:20:51Z</time>
      </trkpt>
      <trkpt lat="47.33489" lon="6.10858">
        <ele>567</ele>
        <time>2025-06-24T15:20:59Z</time>
      </trkpt>
      <trkpt lat="47.33476" lon="6.10849">
        <ele>569</ele>
        <time>2025-06-24T15:21:08Z</time>
      </trkpt>
      <trkpt lat="47.33463" lon="6.10845">
        <ele>570</ele>
        <time>2025-06-24T15:21:17Z</time>
      </trkpt>
      <trkpt lat="47.33449" lon="6.10846">
        <ele>572</ele>
        <time>2025-06-24T15:21:26Z</time>
      </trkpt>
      <trkpt lat="47.33436" lon="6.10848">
        <ele>574</ele>
        <time>2025-06-24T15:21:36Z</time>
      </trkpt>
      <trkpt lat="47.33423" lon="6.10838">
        <ele>576</ele>
        <time>2025-06-24T15:21:46Z</time>
      </trkpt>
      <trkpt lat="47.33409" lon="6.10834">
        <ele>578</ele>
        <time>2025-06-24T15:21:57Z</time>
      </trkpt>
      <trkpt lat="47.33395" lon="6.10832">
        <ele>579</ele>
        <time>2025-06-24T15:22:07Z</time>
      </trkpt>
      <trkpt lat="47.33382" lon="6.10832">
        <ele>582</ele>
        <time>2025-06-24T15:22:17Z</time>
      </trkpt>
      <trkpt lat="47.33368" lon="6.1083">
        <ele>583</ele>
        <time>2025-06-24T15:22:27Z</time>
      </trkpt>
      <trkpt lat="47.33354" lon="6.10827">
        <ele>584</ele>
        <time>2025-06-24T15:22:37Z</time>
      </trkpt>
      <trkpt lat="47.33342" lon="6.10816">
        <ele>586</ele>
        <time>2025-06-24T15:22:46Z</time>
      </trkpt>
      <trkpt lat="47.33331" lon="6.10804">
        <ele>586</ele>
        <time>2025-06-24T15:22:54Z</time>
      </trkpt>
      <trkpt lat="47.33319" lon="6.10792">
        <ele>588</ele>
        <time>2025-06-24T15:23:01Z</time>
      </trkpt>
      <trkpt lat="47.3331" lon="6.10777">
        <ele>590</ele>
        <time>2025-06-24T15:23:10Z</time>
      </trkpt>
      <trkpt lat="47.33303" lon="6.10759">
        <ele>588</ele>
        <time>2025-06-24T15:23:21Z</time>
      </trkpt>
      <trkpt lat="47.33295" lon="6.10744">
        <ele>588</ele>
        <time>2025-06-24T15:23:27Z</time>
      </trkpt>
      <trkpt lat="47.33281" lon="6.10738">
        <ele>587</ele>
        <time>2025-06-24T15:23:33Z</time>
      </trkpt>
      <trkpt lat="47.33268" lon="6.10731">
        <ele>590</ele>
        <time>2025-06-24T15:23:39Z</time>
      </trkpt>
      <trkpt lat="47.33254" lon="6.10729">
        <ele>591</ele>
        <time>2025-06-24T15:23:45Z</time>
      </trkpt>
      <trkpt lat="47.3324" lon="6.10725">
        <ele>590</ele>
        <time>2025-06-24T15:23:50Z</time>
      </trkpt>
      <trkpt lat="47.33226" lon="6.10717">
        <ele>591</ele>
        <time>2025-06-24T15:23:55Z</time>
      </trkpt>
      <trkpt lat="47.33214" lon="6.10707">
        <ele>592</ele>
        <time>2025-06-24T15:24:00Z</time>
      </trkpt>
      <trkpt lat="47.33198" lon="6.10697">
        <ele>593</ele>
        <time>2025-06-24T15:24:08Z</time>
      </trkpt>
      <trkpt lat="47.33186" lon="6.10684">
        <ele>593</ele>
        <time>2025-06-24T15:24:14Z</time>
      </trkpt>
      <trkpt lat="47.33174" lon="6.10673">
        <ele>593</ele>
        <time>2025-06-24T15:24:20Z</time>
      </trkpt>
      <trkpt lat="47.33165" lon="6.10657">
        <ele>598</ele>
        <time>2025-06-24T15:24:26Z</time>
      </trkpt>
      <trkpt lat="47.33158" lon="6.10639">
        <ele>595</ele>
        <time>2025-06-24T15:24:37Z</time>
      </trkpt>
      <trkpt lat="47.33152" lon="6.1062">
        <ele>596</ele>
        <time>2025-06-24T15:24:49Z</time>
      </trkpt>
      <trkpt lat="47.33142" lon="6.10605">
        <ele>598</ele>
        <time>2025-06-24T15:24:58Z</time>
      </trkpt>
      <trkpt lat="47.33135" lon="6.10587">
        <ele>599</ele>
        <time>2025-06-24T15:25:09Z</time>
      </trkpt>
      <trkpt lat="47.33126" lon="6.10572">
        <ele>601</ele>
        <time>2025-06-24T15:25:17Z</time>
      </trkpt>
      <trkpt lat="47.33119" lon="6.10553">
        <ele>602</ele>
        <time>2025-06-24T15:25:28Z</time>
      </trkpt>
      <trkpt lat="47.33107" lon="6.10542">
        <ele>602</ele>
        <time>2025-06-24T15:25:36Z</time>
      </trkpt>
      <trkpt lat="47.33095" lon="6.10535">
        <ele>602</ele>
        <time>2025-06-24T15:25:43Z</time>
      </trkpt>
      <trkpt lat="47.33082" lon="6.10527">
        <ele>603</ele>
        <time>2025-06-24T15:25:49Z</time>
      </trkpt>
      <trkpt lat="47.33068" lon="6.10519">
        <ele>604</ele>
        <time>2025-06-24T15:25:55Z</time>
      </trkpt>
      <trkpt lat="47.33059" lon="6.10502">
        <ele>604</ele>
        <time>2025-06-24T15:26:00Z</time>
      </trkpt>
      <trkpt lat="47.33047" lon="6.10492">
        <ele>604</ele>
        <time>2025-06-24T15:26:05Z</time>
      </trkpt>
      <trkpt lat="47.33035" lon="6.10481">
        <ele>604</ele>
        <time>2025-06-24T15:26:11Z</time>
      </trkpt>
      <trkpt lat="47.33026" lon="6.10465">
        <ele>605</ele>
        <time>2025-06-24T15:26:17Z</time>
      </trkpt>
      <trkpt lat="47.33015" lon="6.10453">
        <ele>606</ele>
        <time>2025-06-24T15:26:23Z</time>
      </trkpt>
      <trkpt lat="47.33006" lon="6.10438">
        <ele>605</ele>
        <time>2025-06-24T15:26:28Z</time>
      </trkpt>
      <trkpt lat="47.32999" lon="6.1042">
        <ele>608</ele>
        <time>2025-06-24T15:26:34Z</time>
      </trkpt>
      <trkpt lat="47.32993" lon="6.10401">
        <ele>611</ele>
        <time>2025-06-24T15:26:44Z</time>
      </trkpt>
      <trkpt lat="47.32989" lon="6.10382">
        <ele>612</ele>
        <time>2025-06-24T15:26:53Z</time>
      </trkpt>
      <trkpt lat="47.32985" lon="6.10362">
        <ele>613</ele>
        <time>2025-06-24T15:27:04Z</time>
      </trkpt>
      <trkpt lat="47.32979" lon="6.10344">
        <ele>612</ele>
        <time>2025-06-24T15:27:13Z</time>
      </trkpt>
      <trkpt lat="47.3297" lon="6.10328">
        <ele>611</ele>
        <time>2025-06-24T15:27:18Z</time>
      </trkpt>
      <trkpt lat="47.32962" lon="6.10312">
        <ele>614</ele>
        <time>2025-06-24T15:27:24Z</time>
      </trkpt>
      <trkpt lat="47.32956" lon="6.10293">
        <ele>613</ele>
        <time>2025-06-24T15:27:30Z</time>
      </trkpt>
      <trkpt lat="47.32951" lon="6.10275">
        <ele>612</ele>
        <time>2025-06-24T15:27:35Z</time>
      </trkpt>
      <trkpt lat="47.32946" lon="6.10256">
        <ele>618</ele>
        <time>2025-06-24T15:27:45Z</time>
      </trkpt>
      <trkpt lat="47.3294" lon="6.10237">
        <ele>622</ele>
        <time>2025-06-24T15:27:58Z</time>
      </trkpt>
      <trkpt lat="47.32929" lon="6.10224">
        <ele>622</ele>
        <time>2025-06-24T15:28:12Z</time>
      </trkpt>
      <trkpt lat="47.32919" lon="6.10209">
        <ele>622</ele>
        <time>2025-06-24T15:28:20Z</time>
      </trkpt>
      <trkpt lat="47.3291" lon="6.10193">
        <ele>625</ele>
        <time>2025-06-24T15:28:29Z</time>
      </trkpt>
      <trkpt lat="47.32902" lon="6.10176">
        <ele>625</ele>
        <time>2025-06-24T15:28:36Z</time>
      </trkpt>
      <trkpt lat="47.32891" lon="6.10162">
        <ele>626</ele>
        <time>2025-06-24T15:28:41Z</time>
      </trkpt>
      <trkpt lat="47.32879" lon="6.10152">
        <ele>626</ele>
        <time>2025-06-24T15:28:46Z</time>
      </trkpt>
      <trkpt lat="47.32868" lon="6.10138">
        <ele>624</ele>
        <time>2025-06-24T15:28:52Z</time>
      </trkpt>
      <trkpt lat="47.32861" lon="6.1012">
        <ele>627</ele>
        <time>2025-06-24T15:28:58Z</time>
      </trkpt>
      <trkpt lat="47.32848" lon="6.10109">
        <ele>626</ele>
        <time>2025-06-24T15:29:03Z</time>
      </trkpt>
      <trkpt lat="47.32835" lon="6.10101">
        <ele>625</ele>
        <time>2025-06-24T15:29:09Z</time>
      </trkpt>
      <trkpt lat="47.32821" lon="6.10093">
        <ele>622</ele>
        <time>2025-06-24T15:29:19Z</time>
      </trkpt>
      <trkpt lat="47.32809" lon="6.10083">
        <ele>620</ele>
        <time>2025-06-24T15:29:27Z</time>
      </trkpt>
      <trkpt lat="47.32796" lon="6.10075">
        <ele>622</ele>
        <time>2025-06-24T15:29:32Z</time>
      </trkpt>
      <trkpt lat="47.32786" lon="6.10061">
        <ele>623</ele>
        <time>2025-06-24T15:29:37Z</time>
      </trkpt>
      <trkpt lat="47.32774" lon="6.10044">
        <ele>623</ele>
        <time>2025-06-24T15:29:42Z</time>
      </trkpt>
      <trkpt lat="47.32762" lon="6.10024">
        <ele>621</ele>
        <time>2025-06-24T15:29:48Z</time>
      </trkpt>
      <trkpt lat="47.32752" lon="6.10009">
        <ele>623</ele>
        <time>2025-06-24T15:29:53Z</time>
      </trkpt>
      <trkpt lat="47.32746" lon="6.0999">
        <ele>619</ele>
        <time>2025-06-24T15:29:58Z</time>
      </trkpt>
      <trkpt lat="47.32738" lon="6.09974">
        <ele>619</ele>
        <time>2025-06-24T15:30:03Z</time>
      </trkpt>
      <trkpt lat="47.32731" lon="6.09956">
        <ele>618</ele>
        <time>2025-06-24T15:30:09Z</time>
      </trkpt>
      <trkpt lat="47.32725" lon="6.09937">
        <ele>619</ele>
        <time>2025-06-24T15:30:14Z</time>
      </trkpt>
      <trkpt lat="47.32718" lon="6.09918">
        <ele>618</ele>
        <time>2025-06-24T15:30:20Z</time>
      </trkpt>
      <trkpt lat="47.32714" lon="6.09899">
        <ele>618</ele>
        <time>2025-06-24T15:30:25Z</time>
      </trkpt>
      <trkpt lat="47.32712" lon="6.09878">
        <ele>617</ele>
        <time>2025-06-24T15:30:31Z</time>
      </trkpt>
      <trkpt lat="47.32708" lon="6.09857">
        <ele>617</ele>
        <time>2025-06-24T15:30:36Z</time>
      </trkpt>
      <trkpt lat="47.32704" lon="6.09838">
        <ele>616</ele>
        <time>2025-06-24T15:30:41Z</time>
      </trkpt>
      <trkpt lat="47.32697" lon="6.0982">
        <ele>615</ele>
        <time>2025-06-24T15:30:46Z</time>
      </trkpt>
      <trkpt lat="47.32692" lon="6.09802">
        <ele>615</ele>
        <time>2025-06-24T15:30:51Z</time>
      </trkpt>
      <trkpt lat="47.32689" lon="6.09782">
        <ele>613</ele>
        <time>2025-06-24T15:30:56Z</time>
      </trkpt>
      <trkpt lat="47.32689" lon="6.09761">
        <ele>612</ele>
        <time>2025-06-24T15:31:01Z</time>
      </trkpt>
      <trkpt lat="47.32688" lon="6.09741">
        <ele>610</ele>
        <time>2025-06-24T15:31:06Z</time>
      </trkpt>
      <trkpt lat="47.32685" lon="6.0972">
        <ele>608</ele>
        <time>2025-06-24T15:31:10Z</time>
      </trkpt>
      <trkpt lat="47.32683" lon="6.097">
        <ele>609</ele>
        <time>2025-06-24T15:31:16Z</time>
      </trkpt>
      <trkpt lat="47.3267" lon="6.09692">
        <ele>609</ele>
        <time>2025-06-24T15:31:21Z</time>
      </trkpt>
      <trkpt lat="47.32662" lon="6.09675">
        <ele>609</ele>
        <time>2025-06-24T15:31:27Z</time>
      </trkpt>
      <trkpt lat="47.3266" lon="6.09654">
        <ele>610</ele>
        <time>2025-06-24T15:31:32Z</time>
      </trkpt>
      <trkpt lat="47.32649" lon="6.09635">
        <ele>609</ele>
        <time>2025-06-24T15:31:45Z</time>
      </trkpt>
      <trkpt lat="47.32641" lon="6.09618">
        <ele>610</ele>
        <time>2025-06-24T15:31:55Z</time>
      </trkpt>
      <trkpt lat="47.32634" lon="6.096">
        <ele>610</ele>
        <time>2025-06-24T15:32:06Z</time>
      </trkpt>
      <trkpt lat="47.32628" lon="6.09583">
        <ele>611</ele>
        <time>2025-06-24T15:32:15Z</time>
      </trkpt>
      <trkpt lat="47.32624" lon="6.09562">
        <ele>613</ele>
        <time>2025-06-24T15:32:25Z</time>
      </trkpt>
      <trkpt lat="47.32622" lon="6.09542">
        <ele>617</ele>
        <time>2025-06-24T15:32:36Z</time>
      </trkpt>
      <trkpt lat="47.32609" lon="6.09532">
        <ele>618</ele>
        <time>2025-06-24T15:32:44Z</time>
      </trkpt>
      <trkpt lat="47.32602" lon="6.09513">
        <ele>619</ele>
        <time>2025-06-24T15:32:54Z</time>
      </trkpt>
      <trkpt lat="47.32598" lon="6.09493">
        <ele>620</ele>
        <time>2025-06-24T15:33:04Z</time>
      </trkpt>
      <trkpt lat="47.3259" lon="6.09474">
        <ele>620</ele>
        <time>2025-06-24T15:33:12Z</time>
      </trkpt>
      <trkpt lat="47.32584" lon="6.09456">
        <ele>620</ele>
        <time>2025-06-24T15:33:21Z</time>
      </trkpt>
      <trkpt lat="47.32578" lon="6.09437">
        <ele>621</ele>
        <time>2025-06-24T15:33:31Z</time>
      </trkpt>
      <trkpt lat="47.3257" lon="6.09421">
        <ele>621</ele>
        <time>2025-06-24T15:33:40Z</time>
      </trkpt>
      <trkpt lat="47.32565" lon="6.09401">
        <ele>619</ele>
        <time>2025-06-24T15:33:48Z</time>
      </trkpt>
      <trkpt lat="47.32559" lon="6.09383">
        <ele>621</ele>
        <time>2025-06-24T15:33:54Z</time>
      </trkpt>
      <trkpt lat="47.32551" lon="6.09366">
        <ele>622</ele>
        <time>2025-06-24T15:33:59Z</time>
      </trkpt>
      <trkpt lat="47.32544" lon="6.09348">
        <ele>623</ele>
        <time>2025-06-24T15:34:04Z</time>
      </trkpt>
      <trkpt lat="47.32534" lon="6.09331">
        <ele>623</ele>
        <time>2025-06-24T15:34:10Z</time>
      </trkpt>
      <trkpt lat="47.32527" lon="6.09314">
        <ele>623</ele>
        <time>2025-06-24T15:34:15Z</time>
      </trkpt>
      <trkpt lat="47.32524" lon="6.09293">
        <ele>623</ele>
        <time>2025-06-24T15:34:21Z</time>
      </trkpt>
      <trkpt lat="47.3252" lon="6.09274">
        <ele>625</ele>
        <time>2025-06-24T15:34:27Z</time>
      </trkpt>
      <trkpt lat="47.32511" lon="6.09259">
        <ele>623</ele>
        <time>2025-06-24T15:34:33Z</time>
      </trkpt>
      <trkpt lat="47.32517" lon="6.0924">
        <ele>625</ele>
        <time>2025-06-24T15:34:39Z</time>
      </trkpt>
      <trkpt lat="47.32509" lon="6.09223">
        <ele>623</ele>
        <time>2025-06-24T15:34:50Z</time>
      </trkpt>
      <trkpt lat="47.32501" lon="6.09207">
        <ele>624</ele>
        <time>2025-06-24T15:34:59Z</time>
      </trkpt>
      <trkpt lat="47.32497" lon="6.09187">
        <ele>624</ele>
        <time>2025-06-24T15:35:07Z</time>
      </trkpt>
      <trkpt lat="47.32494" lon="6.09166">
        <ele>624</ele>
        <time>2025-06-24T15:35:14Z</time>
      </trkpt>
      <trkpt lat="47.32496" lon="6.09146">
        <ele>626</ele>
        <time>2025-06-24T15:35:24Z</time>
      </trkpt>
      <trkpt lat="47.3249" lon="6.09128">
        <ele>626</ele>
        <time>2025-06-24T15:35:34Z</time>
      </trkpt>
      <trkpt lat="47.32484" lon="6.09109">
        <ele>626</ele>
        <time>2025-06-24T15:35:44Z</time>
      </trkpt>
      <trkpt lat="47.32484" lon="6.09089">
        <ele>627</ele>
        <time>2025-06-24T15:35:50Z</time>
      </trkpt>
      <trkpt lat="47.32478" lon="6.09069">
        <ele>629</ele>
        <time>2025-06-24T15:35:56Z</time>
      </trkpt>
      <trkpt lat="47.32469" lon="6.09053">
        <ele>628</ele>
        <time>2025-06-24T15:36:06Z</time>
      </trkpt>
      <trkpt lat="47.32466" lon="6.09032">
        <ele>629</ele>
        <time>2025-06-24T15:36:14Z</time>
      </trkpt>
      <trkpt lat="47.3246" lon="6.09013">
        <ele>628</ele>
        <time>2025-06-24T15:36:20Z</time>
      </trkpt>
      <trkpt lat="47.32458" lon="6.08991">
        <ele>629</ele>
        <time>2025-06-24T15:36:26Z</time>
      </trkpt>
      <trkpt lat="47.32458" lon="6.08971">
        <ele>630</ele>
        <time>2025-06-24T15:36:31Z</time>
      </trkpt>
      <trkpt lat="47.32456" lon="6.08949">
        <ele>629</ele>
        <time>2025-06-24T15:36:36Z</time>
      </trkpt>
      <trkpt lat="47.32459" lon="6.08923">
        <ele>629</ele>
        <time>2025-06-24T15:36:44Z</time>
      </trkpt>
      <trkpt lat="47.32461" lon="6.08903">
        <ele>630</ele>
        <time>2025-06-24T15:36:49Z</time>
      </trkpt>
      <trkpt lat="47.3246" lon="6.08882">
        <ele>632</ele>
        <time>2025-06-24T15:36:55Z</time>
      </trkpt>
      <trkpt lat="47.32457" lon="6.08862">
        <ele>632</ele>
        <time>2025-06-24T15:37:01Z</time>
      </trkpt>
      <trkpt lat="47.32452" lon="6.08843">
        <ele>631</ele>
        <time>2025-06-24T15:37:07Z</time>
      </trkpt>
      <trkpt lat="47.32447" lon="6.08824">
        <ele>630</ele>
        <time>2025-06-24T15:37:13Z</time>
      </trkpt>
      <trkpt lat="47.32444" lon="6.08804">
        <ele>632</ele>
        <time>2025-06-24T15:37:19Z</time>
      </trkpt>
      <trkpt lat="47.32442" lon="6.08783">
        <ele>633</ele>
        <time>2025-06-24T15:37:24Z</time>
      </trkpt>
      <trkpt lat="47.32442" lon="6.08762">
        <ele>633</ele>
        <time>2025-06-24T15:37:30Z</time>
      </trkpt>
      <trkpt lat="47.32437" lon="6.08743">
        <ele>632</ele>
        <time>2025-06-24T15:37:38Z</time>
      </trkpt>
      <trkpt lat="47.32433" lon="6.08723">
        <ele>633</ele>
        <time>2025-06-24T15:37:49Z</time>
      </trkpt>
      <trkpt lat="47.32433" lon="6.08703">
        <ele>634</ele>
        <time>2025-06-24T15:38:00Z</time>
      </trkpt>
      <trkpt lat="47.3244" lon="6.08686">
        <ele>635</ele>
        <time>2025-06-24T15:38:09Z</time>
      </trkpt>
      <trkpt lat="47.32443" lon="6.08666">
        <ele>636</ele>
        <time>2025-06-24T15:38:18Z</time>
      </trkpt>
      <trkpt lat="47.32439" lon="6.08646">
        <ele>637</ele>
        <time>2025-06-24T15:38:26Z</time>
      </trkpt>
      <trkpt lat="47.32433" lon="6.08627">
        <ele>637</ele>
        <time>2025-06-24T15:38:32Z</time>
      </trkpt>
      <trkpt lat="47.32429" lon="6.08608">
        <ele>638</ele>
        <time>2025-06-24T15:38:38Z</time>
      </trkpt>
      <trkpt lat="47.32428" lon="6.08588">
        <ele>639</ele>
        <time>2025-06-24T15:38:44Z</time>
      </trkpt>
      <trkpt lat="47.32422" lon="6.08569">
        <ele>639</ele>
        <time>2025-06-24T15:38:50Z</time>
      </trkpt>
      <trkpt lat="47.32417" lon="6.08549">
        <ele>639</ele>
        <time>2025-06-24T15:38:56Z</time>
      </trkpt>
      <trkpt lat="47.32412" lon="6.08529">
        <ele>638</ele>
        <time>2025-06-24T15:39:01Z</time>
      </trkpt>
      <trkpt lat="47.32405" lon="6.08511">
        <ele>639</ele>
        <time>2025-06-24T15:39:07Z</time>
      </trkpt>
      <trkpt lat="47.324" lon="6.08493">
        <ele>637</ele>
        <time>2025-06-24T15:39:12Z</time>
      </trkpt>
      <trkpt lat="47.32397" lon="6.08473">
        <ele>639</ele>
        <time>2025-06-24T15:39:17Z</time>
      </trkpt>
      <trkpt lat="47.32391" lon="6.08453">
        <ele>638</ele>
        <time>2025-06-24T15:39:23Z</time>
      </trkpt>
      <trkpt lat="47.32389" lon="6.08433">
        <ele>638</ele>
        <time>2025-06-24T15:39:28Z</time>
      </trkpt>
      <trkpt lat="47.32386" lon="6.08413">
        <ele>637</ele>
        <time>2025-06-24T15:39:34Z</time>
      </trkpt>
      <trkpt lat="47.32383" lon="6.08393">
        <ele>637</ele>
        <time>2025-06-24T15:39:40Z</time>
      </trkpt>
      <trkpt lat="47.32382" lon="6.08372">
        <ele>639</ele>
        <time>2025-06-24T15:39:45Z</time>
      </trkpt>
      <trkpt lat="47.32381" lon="6.08351">
        <ele>638</ele>
        <time>2025-06-24T15:39:51Z</time>
      </trkpt>
      <trkpt lat="47.32376" lon="6.08333">
        <ele>636</ele>
        <time>2025-06-24T15:40:00Z</time>
      </trkpt>
      <trkpt lat="47.32366" lon="6.08317">
        <ele>637</ele>
        <time>2025-06-24T15:40:11Z</time>
      </trkpt>
      <trkpt lat="47.32358" lon="6.08301">
        <ele>637</ele>
        <time>2025-06-24T15:40:19Z</time>
      </trkpt>
      <trkpt lat="47.32353" lon="6.08281">
        <ele>635</ele>
        <time>2025-06-24T15:40:27Z</time>
      </trkpt>
      <trkpt lat="47.32344" lon="6.08266">
        <ele>634</ele>
        <time>2025-06-24T15:40:33Z</time>
      </trkpt>
      <trkpt lat="47.32336" lon="6.08249">
        <ele>633</ele>
        <time>2025-06-24T15:40:38Z</time>
      </trkpt>
      <trkpt lat="47.3233" lon="6.08231">
        <ele>634</ele>
        <time>2025-06-24T15:40:43Z</time>
      </trkpt>
      <trkpt lat="47.32322" lon="6.08214">
        <ele>633</ele>
        <time>2025-06-24T15:40:48Z</time>
      </trkpt>
      <trkpt lat="47.32314" lon="6.08194">
        <ele>631</ele>
        <time>2025-06-24T15:40:53Z</time>
      </trkpt>
      <trkpt lat="47.32308" lon="6.08176">
        <ele>631</ele>
        <time>2025-06-24T15:40:58Z</time>
      </trkpt>
      <trkpt lat="47.32302" lon="6.08157">
        <ele>631</ele>
        <time>2025-06-24T15:41:03Z</time>
      </trkpt>
      <trkpt lat="47.323" lon="6.08137">
        <ele>628</ele>
        <time>2025-06-24T15:41:08Z</time>
      </trkpt>
      <trkpt lat="47.3229" lon="6.08116">
        <ele>627</ele>
        <time>2025-06-24T15:41:14Z</time>
      </trkpt>
      <trkpt lat="47.32278" lon="6.08105">
        <ele>626</ele>
        <time>2025-06-24T15:41:18Z</time>
      </trkpt>
      <trkpt lat="47.32266" lon="6.08093">
        <ele>625</ele>
        <time>2025-06-24T15:41:24Z</time>
      </trkpt>
      <trkpt lat="47.32261" lon="6.08073">
        <ele>625</ele>
        <time>2025-06-24T15:41:30Z</time>
      </trkpt>
      <trkpt lat="47.32261" lon="6.08053">
        <ele>624</ele>
        <time>2025-06-24T15:41:35Z</time>
      </trkpt>
      <trkpt lat="47.32262" lon="6.08031">
        <ele>623</ele>
        <time>2025-06-24T15:41:40Z</time>
      </trkpt>
      <trkpt lat="47.32259" lon="6.08012">
        <ele>623</ele>
        <time>2025-06-24T15:41:45Z</time>
      </trkpt>
      <trkpt lat="47.32258" lon="6.07992">
        <ele>622</ele>
        <time>2025-06-24T15:41:51Z</time>
      </trkpt>
      <trkpt lat="47.32256" lon="6.07971">
        <ele>622</ele>
        <time>2025-06-24T15:41:57Z</time>
      </trkpt>
      <trkpt lat="47.32255" lon="6.07951">
        <ele>621</ele>
        <time>2025-06-24T15:42:02Z</time>
      </trkpt>
      <trkpt lat="47.32257" lon="6.07931">
        <ele>619</ele>
        <time>2025-06-24T15:42:07Z</time>
      </trkpt>
      <trkpt lat="47.32256" lon="6.07911">
        <ele>618</ele>
        <time>2025-06-24T15:42:12Z</time>
      </trkpt>
      <trkpt lat="47.32255" lon="6.0789">
        <ele>618</ele>
        <time>2025-06-24T15:42:17Z</time>
      </trkpt>
      <trkpt lat="47.32253" lon="6.07869">
        <ele>618</ele>
        <time>2025-06-24T15:42:22Z</time>
      </trkpt>
      <trkpt lat="47.32252" lon="6.07849">
        <ele>616</ele>
        <time>2025-06-24T15:42:27Z</time>
      </trkpt>
      <trkpt lat="47.32253" lon="6.07828">
        <ele>617</ele>
        <time>2025-06-24T15:42:32Z</time>
      </trkpt>
      <trkpt lat="47.32256" lon="6.07809">
        <ele>617</ele>
        <time>2025-06-24T15:42:37Z</time>
      </trkpt>
      <trkpt lat="47.32254" lon="6.07787">
        <ele>616</ele>
        <time>2025-06-24T15:42:42Z</time>
      </trkpt>
      <trkpt lat="47.32253" lon="6.07767">
        <ele>615</ele>
        <time>2025-06-24T15:42:47Z</time>
      </trkpt>
      <trkpt lat="47.32255" lon="6.07748">
        <ele>613</ele>
        <time>2025-06-24T15:42:58Z</time>
      </trkpt>
      <trkpt lat="47.32256" lon="6.07727">
        <ele>613</ele>
        <time>2025-06-24T15:43:08Z</time>
      </trkpt>
      <trkpt lat="47.32257" lon="6.07707">
        <ele>612</ele>
        <time>2025-06-24T15:43:18Z</time>
      </trkpt>
      <trkpt lat="47.32258" lon="6.07686">
        <ele>611</ele>
        <time>2025-06-24T15:43:26Z</time>
      </trkpt>
      <trkpt lat="47.32257" lon="6.07666">
        <ele>614</ele>
        <time>2025-06-24T15:43:34Z</time>
      </trkpt>
      <trkpt lat="47.32252" lon="6.07647">
        <ele>612</ele>
        <time>2025-06-24T15:43:45Z</time>
      </trkpt>
      <trkpt lat="47.32255" lon="6.07626">
        <ele>610</ele>
        <time>2025-06-24T15:43:53Z</time>
      </trkpt>
      <trkpt lat="47.32261" lon="6.07607">
        <ele>610</ele>
        <time>2025-06-24T15:44:02Z</time>
      </trkpt>
      <trkpt lat="47.32265" lon="6.07588">
        <ele>611</ele>
        <time>2025-06-24T15:44:11Z</time>
      </trkpt>
      <trkpt lat="47.32269" lon="6.07568">
        <ele>609</ele>
        <time>2025-06-24T15:44:20Z</time>
      </trkpt>
      <trkpt lat="47.3227" lon="6.07547">
        <ele>608</ele>
        <time>2025-06-24T15:44:30Z</time>
      </trkpt>
      <trkpt lat="47.3227" lon="6.07526">
        <ele>609</ele>
        <time>2025-06-24T15:44:40Z</time>
      </trkpt>
      <trkpt lat="47.32267" lon="6.07506">
        <ele>609</ele>
        <time>2025-06-24T15:44:48Z</time>
      </trkpt>
      <trkpt lat="47.32259" lon="6.0749">
        <ele>608</ele>
        <time>2025-06-24T15:44:57Z</time>
      </trkpt>
      <trkpt lat="47.32249" lon="6.07476">
        <ele>608</ele>
        <time>2025-06-24T15:45:07Z</time>
      </trkpt>
      <trkpt lat="47.32239" lon="6.07458">
        <ele>606</ele>
        <time>2025-06-24T15:45:17Z</time>
      </trkpt>
      <trkpt lat="47.32236" lon="6.07438">
        <ele>606</ele>
        <time>2025-06-24T15:45:25Z</time>
      </trkpt>
      <trkpt lat="47.32243" lon="6.0742">
        <ele>607</ele>
        <time>2025-06-24T15:45:34Z</time>
      </trkpt>
      <trkpt lat="47.32245" lon="6.074">
        <ele>607</ele>
        <time>2025-06-24T15:45:44Z</time>
      </trkpt>
      <trkpt lat="47.3224" lon="6.07381">
        <ele>607</ele>
        <time>2025-06-24T15:45:53Z</time>
      </trkpt>
      <trkpt lat="47.32234" lon="6.07363">
        <ele>610</ele>
        <time>2025-06-24T15:46:03Z</time>
      </trkpt>
      <trkpt lat="47.32227" lon="6.07346">
        <ele>610</ele>
        <time>2025-06-24T15:46:13Z</time>
      </trkpt>
      <trkpt lat="47.32224" lon="6.07325">
        <ele>612</ele>
        <time>2025-06-24T15:46:22Z</time>
      </trkpt>
      <trkpt lat="47.32217" lon="6.07308">
        <ele>613</ele>
        <time>2025-06-24T15:46:31Z</time>
      </trkpt>
      <trkpt lat="47.32211" lon="6.0729">
        <ele>612</ele>
        <time>2025-06-24T15:46:40Z</time>
      </trkpt>
      <trkpt lat="47.32205" lon="6.0727">
        <ele>614</ele>
        <time>2025-06-24T15:46:51Z</time>
      </trkpt>
      <trkpt lat="47.32199" lon="6.07252">
        <ele>614</ele>
        <time>2025-06-24T15:47:06Z</time>
      </trkpt>
      <trkpt lat="47.32195" lon="6.07232">
        <ele>614</ele>
        <time>2025-06-24T15:47:18Z</time>
      </trkpt>
      <trkpt lat="47.32188" lon="6.07214">
        <ele>615</ele>
        <time>2025-06-24T15:47:26Z</time>
      </trkpt>
      <trkpt lat="47.32186" lon="6.07195">
        <ele>618</ele>
        <time>2025-06-24T15:47:32Z</time>
      </trkpt>
      <trkpt lat="47.32185" lon="6.07174">
        <ele>619</ele>
        <time>2025-06-24T15:47:42Z</time>
      </trkpt>
      <trkpt lat="47.32177" lon="6.07158">
        <ele>620</ele>
        <time>2025-06-24T15:47:52Z</time>
      </trkpt>
      <trkpt lat="47.32168" lon="6.0714">
        <ele>621</ele>
        <time>2025-06-24T15:48:02Z</time>
      </trkpt>
      <trkpt lat="47.32161" lon="6.07121">
        <ele>621</ele>
        <time>2025-06-24T15:48:11Z</time>
      </trkpt>
      <trkpt lat="47.32152" lon="6.07104">
        <ele>622</ele>
        <time>2025-06-24T15:48:19Z</time>
      </trkpt>
      <trkpt lat="47.32144" lon="6.07087">
        <ele>623</ele>
        <time>2025-06-24T15:48:29Z</time>
      </trkpt>
      <trkpt lat="47.32138" lon="6.07067">
        <ele>623</ele>
        <time>2025-06-24T15:48:39Z</time>
      </trkpt>
      <trkpt lat="47.32129" lon="6.07051">
        <ele>623</ele>
        <time>2025-06-24T15:48:48Z</time>
      </trkpt>
      <trkpt lat="47.32119" lon="6.07034">
        <ele>626</ele>
        <time>2025-06-24T15:49:00Z</time>
      </trkpt>
      <trkpt lat="47.32111" lon="6.07017">
        <ele>624</ele>
        <time>2025-06-24T15:49:08Z</time>
      </trkpt>
      <trkpt lat="47.32102" lon="6.07001">
        <ele>626</ele>
        <time>2025-06-24T15:49:17Z</time>
      </trkpt>
      <trkpt lat="47.32094" lon="6.06984">
        <ele>627</ele>
        <time>2025-06-24T15:49:26Z</time>
      </trkpt>
      <trkpt lat="47.3209" lon="6.06965">
        <ele>628</ele>
        <time>2025-06-24T15:49:34Z</time>
      </trkpt>
      <trkpt lat="47.32081" lon="6.06949">
        <ele>628</ele>
        <time>2025-06-24T15:49:43Z</time>
      </trkpt>
      <trkpt lat="47.32079" lon="6.06929">
        <ele>629</ele>
        <time>2025-06-24T15:49:54Z</time>
      </trkpt>
      <trkpt lat="47.32075" lon="6.06907">
        <ele>630</ele>
        <time>2025-06-24T15:50:03Z</time>
      </trkpt>
      <trkpt lat="47.32066" lon="6.0689">
        <ele>631</ele>
        <time>2025-06-24T15:50:11Z</time>
      </trkpt>
      <trkpt lat="47.32058" lon="6.06873">
        <ele>631</ele>
        <time>2025-06-24T15:50:21Z</time>
      </trkpt>
      <trkpt lat="47.32053" lon="6.06854">
        <ele>632</ele>
        <time>2025-06-24T15:50:30Z</time>
      </trkpt>
      <trkpt lat="47.32051" lon="6.06834">
        <ele>629</ele>
        <time>2025-06-24T15:50:39Z</time>
      </trkpt>
      <trkpt lat="47.32047" lon="6.06815">
        <ele>631</ele>
        <time>2025-06-24T15:50:48Z</time>
      </trkpt>
      <trkpt lat="47.32043" lon="6.06794">
        <ele>635</ele>
        <time>2025-06-24T15:50:58Z</time>
      </trkpt>
      <trkpt lat="47.32038" lon="6.06775">
        <ele>634</ele>
        <time>2025-06-24T15:51:06Z</time>
      </trkpt>
      <trkpt lat="47.32033" lon="6.06755">
        <ele>632</ele>
        <time>2025-06-24T15:51:16Z</time>
      </trkpt>
      <trkpt lat="47.32026" lon="6.06737">
        <ele>637</ele>
        <time>2025-06-24T15:51:26Z</time>
      </trkpt>
      <trkpt lat="47.32026" lon="6.06715">
        <ele>636</ele>
        <time>2025-06-24T15:51:36Z</time>
      </trkpt>
      <trkpt lat="47.32021" lon="6.06696">
        <ele>636</ele>
        <time>2025-06-24T15:51:44Z</time>
      </trkpt>
      <trkpt lat="47.32017" lon="6.06677">
        <ele>637</ele>
        <time>2025-06-24T15:51:53Z</time>
      </trkpt>
      <trkpt lat="47.32011" lon="6.06659">
        <ele>638</ele>
        <time>2025-06-24T15:52:01Z</time>
      </trkpt>
      <trkpt lat="47.32006" lon="6.0664">
        <ele>638</ele>
        <time>2025-06-24T15:52:10Z</time>
      </trkpt>
      <trkpt lat="47.32003" lon="6.0662">
        <ele>639</ele>
        <time>2025-06-24T15:52:18Z</time>
      </trkpt>
      <trkpt lat="47.31998" lon="6.066">
        <ele>640</ele>
        <time>2025-06-24T15:52:27Z</time>
      </trkpt>
      <trkpt lat="47.31991" lon="6.06583">
        <ele>641</ele>
        <time>2025-06-24T15:52:35Z</time>
      </trkpt>
      <trkpt lat="47.31987" lon="6.06563">
        <ele>640</ele>
        <time>2025-06-24T15:52:44Z</time>
      </trkpt>
      <trkpt lat="47.31985" lon="6.06542">
        <ele>642</ele>
        <time>2025-06-24T15:52:52Z</time>
      </trkpt>
      <trkpt lat="47.3198" lon="6.06523">
        <ele>642</ele>
        <time>2025-06-24T15:53:01Z</time>
      </trkpt>
      <trkpt lat="47.31977" lon="6.06503">
        <ele>642</ele>
        <time>2025-06-24T15:53:10Z</time>
      </trkpt>
      <trkpt lat="47.31974" lon="6.06483">
        <ele>644</ele>
        <time>2025-06-24T15:53:18Z</time>
      </trkpt>
      <trkpt lat="47.31967" lon="6.06466">
        <ele>645</ele>
        <time>2025-06-24T15:53:27Z</time>
      </trkpt>
      <trkpt lat="47.31955" lon="6.06455">
        <ele>645</ele>
        <time>2025-06-24T15:53:35Z</time>
      </trkpt>
      <trkpt lat="47.31942" lon="6.0645">
        <ele>641</ele>
        <time>2025-06-24T15:53:41Z</time>
      </trkpt>
      <trkpt lat="47.31928" lon="6.06447">
        <ele>647</ele>
        <time>2025-06-24T15:53:46Z</time>
      </trkpt>
      <trkpt lat="47.31914" lon="6.0644">
        <ele>648</ele>
        <time>2025-06-24T15:53:51Z</time>
      </trkpt>
      <trkpt lat="47.31903" lon="6.06426">
        <ele>648</ele>
        <time>2025-06-24T15:53:57Z</time>
      </trkpt>
      <trkpt lat="47.31897" lon="6.06407">
        <ele>645</ele>
        <time>2025-06-24T15:54:05Z</time>
      </trkpt>
      <trkpt lat="47.31889" lon="6.06391">
        <ele>646</ele>
        <time>2025-06-24T15:54:15Z</time>
      </trkpt>
      <trkpt lat="47.31876" lon="6.06384">
        <ele>650</ele>
        <time>2025-06-24T15:54:21Z</time>
      </trkpt>
      <trkpt lat="47.31864" lon="6.06374">
        <ele>650</ele>
        <time>2025-06-24T15:54:26Z</time>
      </trkpt>
      <trkpt lat="47.31852" lon="6.06364">
        <ele>647</ele>
        <time>2025-06-24T15:54:31Z</time>
      </trkpt>
      <trkpt lat="47.31848" lon="6.06342">
        <ele>644</ele>
        <time>2025-06-24T15:54:37Z</time>
      </trkpt>
      <trkpt lat="47.3184" lon="6.06325">
        <ele>644</ele>
        <time>2025-06-24T15:54:42Z</time>
      </trkpt>
      <trkpt lat="47.31831" lon="6.06311">
        <ele>646</ele>
        <time>2025-06-24T15:54:47Z</time>
      </trkpt>
      <trkpt lat="47.31819" lon="6.06298">
        <ele>647</ele>
        <time>2025-06-24T15:54:52Z</time>
      </trkpt>
      <trkpt lat="47.31808" lon="6.06284">
        <ele>649</ele>
        <time>2025-06-24T15:54:58Z</time>
      </trkpt>
      <trkpt lat="47.31805" lon="6.06265">
        <ele>644</ele>
        <time>2025-06-24T15:55:04Z</time>
      </trkpt>
      <trkpt lat="47.318" lon="6.06246">
        <ele>643</ele>
        <time>2025-06-24T15:55:14Z</time>
      </trkpt>
      <trkpt lat="47.31794" lon="6.06228">
        <ele>644</ele>
        <time>2025-06-24T15:55:22Z</time>
      </trkpt>
      <trkpt lat="47.31794" lon="6.06207">
        <ele>643</ele>
        <time>2025-06-24T15:55:31Z</time>
      </trkpt>
      <trkpt lat="47.31794" lon="6.06186">
        <ele>644</ele>
        <time>2025-06-24T15:55:40Z</time>
      </trkpt>
      <trkpt lat="47.31793" lon="6.06165">
        <ele>644</ele>
        <time>2025-06-24T15:55:48Z</time>
      </trkpt>
      <trkpt lat="47.31792" lon="6.06145">
        <ele>646</ele>
        <time>2025-06-24T15:55:57Z</time>
      </trkpt>
      <trkpt lat="47.31787" lon="6.06125">
        <ele>648</ele>
        <time>2025-06-24T15:56:06Z</time>
      </trkpt>
      <trkpt lat="47.31788" lon="6.06104">
        <ele>648</ele>
        <time>2025-06-24T15:56:16Z</time>
      </trkpt>
      <trkpt lat="47.31793" lon="6.06084">
        <ele>649</ele>
        <time>2025-06-24T15:56:43Z</time>
      </trkpt>
      <trkpt lat="47.31802" lon="6.06069">
        <ele>649</ele>
        <time>2025-06-24T15:56:53Z</time>
      </trkpt>
      <trkpt lat="47.31812" lon="6.06054">
        <ele>650</ele>
        <time>2025-06-24T15:57:03Z</time>
      </trkpt>
      <trkpt lat="47.31822" lon="6.06041">
        <ele>646</ele>
        <time>2025-06-24T15:57:12Z</time>
      </trkpt>
      <trkpt lat="47.31834" lon="6.06027">
        <ele>646</ele>
        <time>2025-06-24T15:57:23Z</time>
      </trkpt>
      <trkpt lat="47.31843" lon="6.06012">
        <ele>645</ele>
        <time>2025-06-24T15:57:33Z</time>
      </trkpt>
      <trkpt lat="47.31847" lon="6.05993">
        <ele>647</ele>
        <time>2025-06-24T15:57:44Z</time>
      </trkpt>
      <trkpt lat="47.31851" lon="6.05973">
        <ele>645</ele>
        <time>2025-06-24T15:57:54Z</time>
      </trkpt>
      <trkpt lat="47.31848" lon="6.05948">
        <ele>636</ele>
        <time>2025-06-24T15:58:04Z</time>
      </trkpt>
      <trkpt lat="47.31837" lon="6.05932">
        <ele>640</ele>
        <time>2025-06-24T15:58:10Z</time>
      </trkpt>
      <trkpt lat="47.31827" lon="6.05919">
        <ele>639</ele>
        <time>2025-06-24T15:58:15Z</time>
      </trkpt>
      <trkpt lat="47.31813" lon="6.05914">
        <ele>642</ele>
        <time>2025-06-24T15:58:21Z</time>
      </trkpt>
      <trkpt lat="47.31799" lon="6.0591">
        <ele>640</ele>
        <time>2025-06-24T15:58:26Z</time>
      </trkpt>
      <trkpt lat="47.31785" lon="6.05903">
        <ele>640</ele>
        <time>2025-06-24T15:58:31Z</time>
      </trkpt>
      <trkpt lat="47.31773" lon="6.05888">
        <ele>640</ele>
        <time>2025-06-24T15:58:36Z</time>
      </trkpt>
      <trkpt lat="47.31762" lon="6.05874">
        <ele>635</ele>
        <time>2025-06-24T15:58:41Z</time>
      </trkpt>
      <trkpt lat="47.31752" lon="6.0586">
        <ele>635</ele>
        <time>2025-06-24T15:58:45Z</time>
      </trkpt>
      <trkpt lat="47.31744" lon="6.05844">
        <ele>634</ele>
        <time>2025-06-24T15:58:50Z</time>
      </trkpt>
      <trkpt lat="47.31739" lon="6.05825">
        <ele>635</ele>
        <time>2025-06-24T15:58:55Z</time>
      </trkpt>
      <trkpt lat="47.31732" lon="6.05808">
        <ele>635</ele>
        <time>2025-06-24T15:59:00Z</time>
      </trkpt>
      <trkpt lat="47.31723" lon="6.05792">
        <ele>634</ele>
        <time>2025-06-24T15:59:05Z</time>
      </trkpt>
      <trkpt lat="47.31715" lon="6.05776">
        <ele>633</ele>
        <time>2025-06-24T15:59:10Z</time>
      </trkpt>
      <trkpt lat="47.31706" lon="6.0576">
        <ele>633</ele>
        <time>2025-06-24T15:59:15Z</time>
      </trkpt>
      <trkpt lat="47.31698" lon="6.05742">
        <ele>632</ele>
        <time>2025-06-24T15:59:20Z</time>
      </trkpt>
      <trkpt lat="47.3169" lon="6.05723">
        <ele>631</ele>
        <time>2025-06-24T15:59:25Z</time>
      </trkpt>
      <trkpt lat="47.31681" lon="6.05706">
        <ele>626</ele>
        <time>2025-06-24T15:59:30Z</time>
      </trkpt>
      <trkpt lat="47.31672" lon="6.0569">
        <ele>631</ele>
        <time>2025-06-24T15:59:35Z</time>
      </trkpt>
      <trkpt lat="47.31665" lon="6.05673">
        <ele>629</ele>
        <time>2025-06-24T15:59:40Z</time>
      </trkpt>
      <trkpt lat="47.31655" lon="6.05658">
        <ele>631</ele>
        <time>2025-06-24T15:59:45Z</time>
      </trkpt>
      <trkpt lat="47.31646" lon="6.05642">
        <ele>627</ele>
        <time>2025-06-24T15:59:50Z</time>
      </trkpt>
      <trkpt lat="47.31636" lon="6.05627">
        <ele>630</ele>
        <time>2025-06-24T15:59:55Z</time>
      </trkpt>
      <trkpt lat="47.31628" lon="6.0561">
        <ele>631</ele>
        <time>2025-06-24T16:00:00Z</time>
      </trkpt>
      <trkpt lat="47.31619" lon="6.05594">
        <ele>629</ele>
        <time>2025-06-24T16:00:05Z</time>
      </trkpt>
      <trkpt lat="47.31609" lon="6.0558">
        <ele>627</ele>
        <time>2025-06-24T16:00:11Z</time>
      </trkpt>
      <trkpt lat="47.31597" lon="6.05569">
        <ele>628</ele>
        <time>2025-06-24T16:00:16Z</time>
      </trkpt>
      <trkpt lat="47.31586" lon="6.05558">
        <ele>630</ele>
        <time>2025-06-24T16:00:21Z</time>
      </trkpt>
      <trkpt lat="47.31574" lon="6.05549">
        <ele>629</ele>
        <time>2025-06-24T16:00:27Z</time>
      </trkpt>
      <trkpt lat="47.31561" lon="6.0554">
        <ele>629</ele>
        <time>2025-06-24T16:00:32Z</time>
      </trkpt>
      <trkpt lat="47.3155" lon="6.05529">
        <ele>625</ele>
        <time>2025-06-24T16:00:37Z</time>
      </trkpt>
      <trkpt lat="47.3154" lon="6.05514">
        <ele>626</ele>
        <time>2025-06-24T16:00:42Z</time>
      </trkpt>
      <trkpt lat="47.31529" lon="6.05498">
        <ele>622</ele>
        <time>2025-06-24T16:00:48Z</time>
      </trkpt>
      <trkpt lat="47.31517" lon="6.05486">
        <ele>624</ele>
        <time>2025-06-24T16:00:53Z</time>
      </trkpt>
      <trkpt lat="47.31507" lon="6.0547">
        <ele>625</ele>
        <time>2025-06-24T16:00:58Z</time>
      </trkpt>
      <trkpt lat="47.31497" lon="6.05456">
        <ele>617</ele>
        <time>2025-06-24T16:01:03Z</time>
      </trkpt>
      <trkpt lat="47.31486" lon="6.05443">
        <ele>619</ele>
        <time>2025-06-24T16:01:09Z</time>
      </trkpt>
      <trkpt lat="47.31476" lon="6.05428">
        <ele>615</ele>
        <time>2025-06-24T16:01:14Z</time>
      </trkpt>
      <trkpt lat="47.31466" lon="6.05414">
        <ele>617</ele>
        <time>2025-06-24T16:01:19Z</time>
      </trkpt>
      <trkpt lat="47.31455" lon="6.05395">
        <ele>615</ele>
        <time>2025-06-24T16:01:24Z</time>
      </trkpt>
      <trkpt lat="47.31444" lon="6.05381">
        <ele>619</ele>
        <time>2025-06-24T16:01:29Z</time>
      </trkpt>
      <trkpt lat="47.31434" lon="6.05366">
        <ele>615</ele>
        <time>2025-06-24T16:01:34Z</time>
      </trkpt>
      <trkpt lat="47.31423" lon="6.05354">
        <ele>614</ele>
        <time>2025-06-24T16:01:39Z</time>
      </trkpt>
      <trkpt lat="47.31411" lon="6.05342">
        <ele>612</ele>
        <time>2025-06-24T16:01:44Z</time>
      </trkpt>
      <trkpt lat="47.314" lon="6.05329">
        <ele>611</ele>
        <time>2025-06-24T16:01:50Z</time>
      </trkpt>
      <trkpt lat="47.31391" lon="6.05312">
        <ele>609</ele>
        <time>2025-06-24T16:01:57Z</time>
      </trkpt>
      <trkpt lat="47.3138" lon="6.05301">
        <ele>610</ele>
        <time>2025-06-24T16:02:07Z</time>
      </trkpt>
      <trkpt lat="47.31372" lon="6.05284">
        <ele>608</ele>
        <time>2025-06-24T16:02:18Z</time>
      </trkpt>
      <trkpt lat="47.3136" lon="6.05273">
        <ele>608</ele>
        <time>2025-06-24T16:02:23Z</time>
      </trkpt>
      <trkpt lat="47.3135" lon="6.05256">
        <ele>608</ele>
        <time>2025-06-24T16:02:29Z</time>
      </trkpt>
      <trkpt lat="47.31339" lon="6.05237">
        <ele>608</ele>
        <time>2025-06-24T16:02:35Z</time>
      </trkpt>
      <trkpt lat="47.3133" lon="6.0522">
        <ele>607</ele>
        <time>2025-06-24T16:02:40Z</time>
      </trkpt>
      <trkpt lat="47.31321" lon="6.05204">
        <ele>607</ele>
        <time>2025-06-24T16:02:45Z</time>
      </trkpt>
      <trkpt lat="47.3131" lon="6.05192">
        <ele>605</ele>
        <time>2025-06-24T16:02:50Z</time>
      </trkpt>
      <trkpt lat="47.31301" lon="6.05176">
        <ele>605</ele>
        <time>2025-06-24T16:02:55Z</time>
      </trkpt>
      <trkpt lat="47.31292" lon="6.05159">
        <ele>606</ele>
        <time>2025-06-24T16:03:00Z</time>
      </trkpt>
      <trkpt lat="47.31285" lon="6.05141">
        <ele>604</ele>
        <time>2025-06-24T16:03:05Z</time>
      </trkpt>
      <trkpt lat="47.31278" lon="6.05123">
        <ele>602</ele>
        <time>2025-06-24T16:03:10Z</time>
      </trkpt>
      <trkpt lat="47.3127" lon="6.05106">
        <ele>602</ele>
        <time>2025-06-24T16:03:15Z</time>
      </trkpt>
      <trkpt lat="47.31265" lon="6.05086">
        <ele>599</ele>
        <time>2025-06-24T16:03:21Z</time>
      </trkpt>
      <trkpt lat="47.31269" lon="6.05059">
        <ele>599</ele>
        <time>2025-06-24T16:03:44Z</time>
      </trkpt>
      <trkpt lat="47.31249" lon="6.05062">
        <ele>598</ele>
        <time>2025-06-24T16:03:50Z</time>
      </trkpt>
      <trkpt lat="47.31242" lon="6.05043">
        <ele>598</ele>
        <time>2025-06-24T16:04:01Z</time>
      </trkpt>
      <trkpt lat="47.31237" lon="6.05021">
        <ele>595</ele>
        <time>2025-06-24T16:04:12Z</time>
      </trkpt>
      <trkpt lat="47.31229" lon="6.05005">
        <ele>597</ele>
        <time>2025-06-24T16:04:17Z</time>
      </trkpt>
      <trkpt lat="47.31223" lon="6.04987">
        <ele>595</ele>
        <time>2025-06-24T16:04:23Z</time>
      </trkpt>
      <trkpt lat="47.31217" lon="6.04967">
        <ele>594</ele>
        <time>2025-06-24T16:04:28Z</time>
      </trkpt>
      <trkpt lat="47.31213" lon="6.04945">
        <ele>594</ele>
        <time>2025-06-24T16:04:33Z</time>
      </trkpt>
      <trkpt lat="47.31209" lon="6.04926">
        <ele>593</ele>
        <time>2025-06-24T16:04:37Z</time>
      </trkpt>
      <trkpt lat="47.31204" lon="6.04906">
        <ele>592</ele>
        <time>2025-06-24T16:04:42Z</time>
      </trkpt>
      <trkpt lat="47.312" lon="6.04886">
        <ele>593</ele>
        <time>2025-06-24T16:04:47Z</time>
      </trkpt>
      <trkpt lat="47.31196" lon="6.04867">
        <ele>592</ele>
        <time>2025-06-24T16:04:52Z</time>
      </trkpt>
      <trkpt lat="47.31192" lon="6.04848">
        <ele>594</ele>
        <time>2025-06-24T16:04:59Z</time>
      </trkpt>
      <trkpt lat="47.31187" lon="6.04829">
        <ele>594</ele>
        <time>2025-06-24T16:05:09Z</time>
      </trkpt>
      <trkpt lat="47.31183" lon="6.04809">
        <ele>595</ele>
        <time>2025-06-24T16:05:18Z</time>
      </trkpt>
      <trkpt lat="47.31179" lon="6.04789">
        <ele>595</ele>
        <time>2025-06-24T16:05:27Z</time>
      </trkpt>
      <trkpt lat="47.31171" lon="6.0477">
        <ele>596</ele>
        <time>2025-06-24T16:05:36Z</time>
      </trkpt>
      <trkpt lat="47.31163" lon="6.04753">
        <ele>596</ele>
        <time>2025-06-24T16:05:45Z</time>
      </trkpt>
      <trkpt lat="47.31155" lon="6.04735">
        <ele>596</ele>
        <time>2025-06-24T16:05:54Z</time>
      </trkpt>
      <trkpt lat="47.31148" lon="6.04715">
        <ele>597</ele>
        <time>2025-06-24T16:06:04Z</time>
      </trkpt>
      <trkpt lat="47.3114" lon="6.04696">
        <ele>597</ele>
        <time>2025-06-24T16:06:13Z</time>
      </trkpt>
      <trkpt lat="47.31133" lon="6.04679">
        <ele>600</ele>
        <time>2025-06-24T16:06:22Z</time>
      </trkpt>
      <trkpt lat="47.31125" lon="6.04662">
        <ele>603</ele>
        <time>2025-06-24T16:06:33Z</time>
      </trkpt>
      <trkpt lat="47.31117" lon="6.04646">
        <ele>601</ele>
        <time>2025-06-24T16:06:41Z</time>
      </trkpt>
      <trkpt lat="47.31108" lon="6.04631">
        <ele>601</ele>
        <time>2025-06-24T16:06:50Z</time>
      </trkpt>
      <trkpt lat="47.31102" lon="6.04613">
        <ele>602</ele>
        <time>2025-06-24T16:06:59Z</time>
      </trkpt>
      <trkpt lat="47.31096" lon="6.04595">
        <ele>602</ele>
        <time>2025-06-24T16:07:07Z</time>
      </trkpt>
      <trkpt lat="47.31088" lon="6.04578">
        <ele>603</ele>
        <time>2025-06-24T16:07:15Z</time>
      </trkpt>
      <trkpt lat="47.31081" lon="6.04561">
        <ele>604</ele>
        <time>2025-06-24T16:07:23Z</time>
      </trkpt>
      <trkpt lat="47.31073" lon="6.04544">
        <ele>604</ele>
        <time>2025-06-24T16:07:32Z</time>
      </trkpt>
      <trkpt lat="47.31062" lon="6.04531">
        <ele>604</ele>
        <time>2025-06-24T16:07:40Z</time>
      </trkpt>
      <trkpt lat="47.31053" lon="6.04515">
        <ele>605</ele>
        <time>2025-06-24T16:07:48Z</time>
      </trkpt>
      <trkpt lat="47.31043" lon="6.04502">
        <ele>606</ele>
        <time>2025-06-24T16:07:57Z</time>
      </trkpt>
      <trkpt lat="47.31033" lon="6.04488">
        <ele>604</ele>
        <time>2025-06-24T16:08:06Z</time>
      </trkpt>
      <trkpt lat="47.31023" lon="6.0447">
        <ele>604</ele>
        <time>2025-06-24T16:08:15Z</time>
      </trkpt>
      <trkpt lat="47.31013" lon="6.04456">
        <ele>605</ele>
        <time>2025-06-24T16:08:20Z</time>
      </trkpt>
      <trkpt lat="47.31004" lon="6.04441">
        <ele>604</ele>
        <time>2025-06-24T16:08:25Z</time>
      </trkpt>
      <trkpt lat="47.30994" lon="6.04426">
        <ele>603</ele>
        <time>2025-06-24T16:08:30Z</time>
      </trkpt>
      <trkpt lat="47.30985" lon="6.04403">
        <ele>603</ele>
        <time>2025-06-24T16:08:37Z</time>
      </trkpt>
      <trkpt lat="47.30977" lon="6.04386">
        <ele>603</ele>
        <time>2025-06-24T16:08:42Z</time>
      </trkpt>
      <trkpt lat="47.30969" lon="6.04369">
        <ele>603</ele>
        <time>2025-06-24T16:08:47Z</time>
      </trkpt>
      <trkpt lat="47.30962" lon="6.0435">
        <ele>602</ele>
        <time>2025-06-24T16:08:52Z</time>
      </trkpt>
      <trkpt lat="47.30958" lon="6.04331">
        <ele>602</ele>
        <time>2025-06-24T16:08:57Z</time>
      </trkpt>
      <trkpt lat="47.30953" lon="6.04312">
        <ele>601</ele>
        <time>2025-06-24T16:09:02Z</time>
      </trkpt>
      <trkpt lat="47.30948" lon="6.04292">
        <ele>600</ele>
        <time>2025-06-24T16:09:07Z</time>
      </trkpt>
      <trkpt lat="47.30944" lon="6.04272">
        <ele>600</ele>
        <time>2025-06-24T16:09:12Z</time>
      </trkpt>
      <trkpt lat="47.30939" lon="6.04252">
        <ele>599</ele>
        <time>2025-06-24T16:09:17Z</time>
      </trkpt>
      <trkpt lat="47.30936" lon="6.04232">
        <ele>599</ele>
        <time>2025-06-24T16:09:22Z</time>
      </trkpt>
      <trkpt lat="47.30934" lon="6.0421">
        <ele>598</ele>
        <time>2025-06-24T16:09:28Z</time>
      </trkpt>
      <trkpt lat="47.30934" lon="6.0419">
        <ele>598</ele>
        <time>2025-06-24T16:09:33Z</time>
      </trkpt>
      <trkpt lat="47.30931" lon="6.0417">
        <ele>597</ele>
        <time>2025-06-24T16:09:38Z</time>
      </trkpt>
      <trkpt lat="47.30929" lon="6.04149">
        <ele>597</ele>
        <time>2025-06-24T16:09:43Z</time>
      </trkpt>
      <trkpt lat="47.30928" lon="6.04126">
        <ele>597</ele>
        <time>2025-06-24T16:09:48Z</time>
      </trkpt>
      <trkpt lat="47.30927" lon="6.04106">
        <ele>596</ele>
        <time>2025-06-24T16:09:52Z</time>
      </trkpt>
      <trkpt lat="47.30925" lon="6.04085">
        <ele>596</ele>
        <time>2025-06-24T16:09:57Z</time>
      </trkpt>
      <trkpt lat="47.30925" lon="6.04063">
        <ele>596</ele>
        <time>2025-06-24T16:10:03Z</time>
      </trkpt>
      <trkpt lat="47.30927" lon="6.04043">
        <ele>595</ele>
        <time>2025-06-24T16:10:08Z</time>
      </trkpt>
      <trkpt lat="47.30933" lon="6.04025">
        <ele>595</ele>
        <time>2025-06-24T16:10:13Z</time>
      </trkpt>
      <trkpt lat="47.30935" lon="6.04002">
        <ele>595</ele>
        <time>2025-06-24T16:10:20Z</time>
      </trkpt>
      <trkpt lat="47.30935" lon="6.03982">
        <ele>593</ele>
        <time>2025-06-24T16:10:29Z</time>
      </trkpt>
      <trkpt lat="47.30936" lon="6.03961">
        <ele>594</ele>
        <time>2025-06-24T16:10:40Z</time>
      </trkpt>
      <trkpt lat="47.3094" lon="6.03942">
        <ele>593</ele>
        <time>2025-06-24T16:10:48Z</time>
      </trkpt>
      <trkpt lat="47.30941" lon="6.03921">
        <ele>594</ele>
        <time>2025-06-24T16:10:56Z</time>
      </trkpt>
      <trkpt lat="47.30942" lon="6.03899">
        <ele>592</ele>
        <time>2025-06-24T16:11:05Z</time>
      </trkpt>
      <trkpt lat="47.30943" lon="6.03878">
        <ele>593</ele>
        <time>2025-06-24T16:11:14Z</time>
      </trkpt>
      <trkpt lat="47.30947" lon="6.03859">
        <ele>593</ele>
        <time>2025-06-24T16:11:21Z</time>
      </trkpt>
      <trkpt lat="47.30949" lon="6.03839">
        <ele>593</ele>
        <time>2025-06-24T16:11:26Z</time>
      </trkpt>
      <trkpt lat="47.30949" lon="6.03818">
        <ele>591</ele>
        <time>2025-06-24T16:11:31Z</time>
      </trkpt>
      <trkpt lat="47.30951" lon="6.03798">
        <ele>592</ele>
        <time>2025-06-24T16:11:37Z</time>
      </trkpt>
      <trkpt lat="47.30954" lon="6.03776">
        <ele>592</ele>
        <time>2025-06-24T16:11:43Z</time>
      </trkpt>
      <trkpt lat="47.30955" lon="6.03755">
        <ele>595</ele>
        <time>2025-06-24T16:11:48Z</time>
      </trkpt>
      <trkpt lat="47.30957" lon="6.03735">
        <ele>591</ele>
        <time>2025-06-24T16:11:53Z</time>
      </trkpt>
      <trkpt lat="47.3096" lon="6.03716">
        <ele>590</ele>
        <time>2025-06-24T16:11:58Z</time>
      </trkpt>
      <trkpt lat="47.30965" lon="6.03697">
        <ele>589</ele>
        <time>2025-06-24T16:12:03Z</time>
      </trkpt>
      <trkpt lat="47.30967" lon="6.03676">
        <ele>589</ele>
        <time>2025-06-24T16:12:08Z</time>
      </trkpt>
      <trkpt lat="47.30966" lon="6.03656">
        <ele>587</ele>
        <time>2025-06-24T16:12:13Z</time>
      </trkpt>
      <trkpt lat="47.30962" lon="6.03635">
        <ele>586</ele>
        <time>2025-06-24T16:12:23Z</time>
      </trkpt>
      <trkpt lat="47.30964" lon="6.03615">
        <ele>585</ele>
        <time>2025-06-24T16:12:32Z</time>
      </trkpt>
      <trkpt lat="47.30977" lon="6.03607">
        <ele>585</ele>
        <time>2025-06-24T16:12:41Z</time>
      </trkpt>
      <trkpt lat="47.30991" lon="6.03612">
        <ele>583</ele>
        <time>2025-06-24T16:12:51Z</time>
      </trkpt>
      <trkpt lat="47.31006" lon="6.03614">
        <ele>582</ele>
        <time>2025-06-24T16:13:03Z</time>
      </trkpt>
      <trkpt lat="47.3102" lon="6.03613">
        <ele>584</ele>
        <time>2025-06-24T16:13:14Z</time>
      </trkpt>
      <trkpt lat="47.31034" lon="6.03611">
        <ele>577</ele>
        <time>2025-06-24T16:13:21Z</time>
      </trkpt>
      <trkpt lat="47.31049" lon="6.03617">
        <ele>575</ele>
        <time>2025-06-24T16:13:27Z</time>
      </trkpt>
      <trkpt lat="47.31059" lon="6.03631">
        <ele>571</ele>
        <time>2025-06-24T16:13:34Z</time>
      </trkpt>
      <trkpt lat="47.31059" lon="6.03651">
        <ele>567</ele>
        <time>2025-06-24T16:13:42Z</time>
      </trkpt>
      <trkpt lat="47.31072" lon="6.03662">
        <ele>562</ele>
        <time>2025-06-24T16:13:51Z</time>
      </trkpt>
      <trkpt lat="47.31086" lon="6.03665">
        <ele>561</ele>
        <time>2025-06-24T16:13:58Z</time>
      </trkpt>
      <trkpt lat="47.31095" lon="6.03681">
        <ele>557</ele>
        <time>2025-06-24T16:14:05Z</time>
      </trkpt>
      <trkpt lat="47.31089" lon="6.03699">
        <ele>557</ele>
        <time>2025-06-24T16:14:10Z</time>
      </trkpt>
      <trkpt lat="47.31091" lon="6.0372">
        <ele>552</ele>
        <time>2025-06-24T16:14:18Z</time>
      </trkpt>
      <trkpt lat="47.31086" lon="6.03739">
        <ele>549</ele>
        <time>2025-06-24T16:14:24Z</time>
      </trkpt>
      <trkpt lat="47.31094" lon="6.03756">
        <ele>548</ele>
        <time>2025-06-24T16:14:29Z</time>
      </trkpt>
      <trkpt lat="47.31101" lon="6.03775">
        <ele>548</ele>
        <time>2025-06-24T16:14:35Z</time>
      </trkpt>
      <trkpt lat="47.31107" lon="6.03793">
        <ele>544</ele>
        <time>2025-06-24T16:14:40Z</time>
      </trkpt>
      <trkpt lat="47.31111" lon="6.03813">
        <ele>541</ele>
        <time>2025-06-24T16:14:46Z</time>
      </trkpt>
      <trkpt lat="47.31117" lon="6.0383">
        <ele>540</ele>
        <time>2025-06-24T16:14:52Z</time>
      </trkpt>
      <trkpt lat="47.31126" lon="6.03814">
        <ele>534</ele>
        <time>2025-06-24T16:14:59Z</time>
      </trkpt>
      <trkpt lat="47.31125" lon="6.03794">
        <ele>533</ele>
        <time>2025-06-24T16:15:05Z</time>
      </trkpt>
      <trkpt lat="47.31126" lon="6.03774">
        <ele>534</ele>
        <time>2025-06-24T16:15:15Z</time>
      </trkpt>
      <trkpt lat="47.31133" lon="6.03756">
        <ele>533</ele>
        <time>2025-06-24T16:15:27Z</time>
      </trkpt>
      <trkpt lat="47.31131" lon="6.03736">
        <ele>536</ele>
        <time>2025-06-24T16:15:42Z</time>
      </trkpt>
      <trkpt lat="47.31136" lon="6.03718">
        <ele>537</ele>
        <time>2025-06-24T16:15:58Z</time>
      </trkpt>
      <trkpt lat="47.31141" lon="6.03699">
        <ele>538</ele>
        <time>2025-06-24T16:16:12Z</time>
      </trkpt>
      <trkpt lat="47.3115" lon="6.03682">
        <ele>539</ele>
        <time>2025-06-24T16:16:36Z</time>
      </trkpt>
      <trkpt lat="47.31161" lon="6.0367">
        <ele>541</ele>
        <time>2025-06-24T16:16:49Z</time>
      </trkpt>
      <trkpt lat="47.31174" lon="6.03663">
        <ele>545</ele>
        <time>2025-06-24T16:17:08Z</time>
      </trkpt>
      <trkpt lat="47.31184" lon="6.03648">
        <ele>547</ele>
        <time>2025-06-24T16:17:48Z</time>
      </trkpt>
      <trkpt lat="47.31198" lon="6.03643">
        <ele>544</ele>
        <time>2025-06-24T16:18:20Z</time>
      </trkpt>
      <trkpt lat="47.31211" lon="6.03651">
        <ele>543</ele>
        <time>2025-06-24T16:18:42Z</time>
      </trkpt>
      <trkpt lat="47.31225" lon="6.0365">
        <ele>544</ele>
        <time>2025-06-24T16:19:02Z</time>
      </trkpt>
      <trkpt lat="47.31237" lon="6.03642">
        <ele>545</ele>
        <time>2025-06-24T16:19:42Z</time>
      </trkpt>
      <trkpt lat="47.31251" lon="6.0364">
        <ele>540</ele>
        <time>2025-06-24T16:20:00Z</time>
      </trkpt>
      <trkpt lat="47.31262" lon="6.03652">
        <ele>542</ele>
        <time>2025-06-24T16:20:12Z</time>
      </trkpt>
      <trkpt lat="47.31275" lon="6.03663">
        <ele>532</ele>
        <time>2025-06-24T16:20:51Z</time>
      </trkpt>
      <trkpt lat="47.31289" lon="6.03668">
        <ele>527</ele>
        <time>2025-06-24T16:21:24Z</time>
      </trkpt>
      <trkpt lat="47.31302" lon="6.03659">
        <ele>529</ele>
        <time>2025-06-24T16:22:03Z</time>
      </trkpt>
      <trkpt lat="47.31314" lon="6.03649">
        <ele>530</ele>
        <time>2025-06-24T16:22:24Z</time>
      </trkpt>
      <trkpt lat="47.31329" lon="6.03655">
        <ele>524</ele>
        <time>2025-06-24T16:23:15Z</time>
      </trkpt>
      <trkpt lat="47.3134" lon="6.03665">
        <ele>518</ele>
        <time>2025-06-24T16:24:01Z</time>
      </trkpt>
      <trkpt lat="47.31355" lon="6.03662">
        <ele>516</ele>
        <time>2025-06-24T16:24:24Z</time>
      </trkpt>
      <trkpt lat="47.31367" lon="6.03672">
        <ele>510</ele>
        <time>2025-06-24T16:25:03Z</time>
      </trkpt>
      <trkpt lat="47.31381" lon="6.03678">
        <ele>505</ele>
        <time>2025-06-24T16:25:52Z</time>
      </trkpt>
      <trkpt lat="47.31394" lon="6.0367">
        <ele>500</ele>
        <time>2025-06-24T16:26:04Z</time>
      </trkpt>
      <trkpt lat="47.31401" lon="6.03652">
        <ele>496</ele>
        <time>2025-06-24T16:26:25Z</time>
      </trkpt>
      <trkpt lat="47.31416" lon="6.03651">
        <ele>488</ele>
        <time>2025-06-24T16:26:43Z</time>
      </trkpt>
      <trkpt lat="47.31429" lon="6.03648">
        <ele>484</ele>
        <time>2025-06-24T16:27:06Z</time>
      </trkpt>
      <trkpt lat="47.31441" lon="6.03658">
        <ele>482</ele>
        <time>2025-06-24T16:27:38Z</time>
      </trkpt>
      <trkpt lat="47.31455" lon="6.03656">
        <ele>480</ele>
        <time>2025-06-24T16:27:50Z</time>
      </trkpt>
      <trkpt lat="47.31451" lon="6.03675">
        <ele>477</ele>
        <time>2025-06-24T16:28:25Z</time>
      </trkpt>
      <trkpt lat="47.31465" lon="6.03672">
        <ele>472</ele>
        <time>2025-06-24T16:28:44Z</time>
      </trkpt>
      <trkpt lat="47.31478" lon="6.03678">
        <ele>469</ele>
        <time>2025-06-24T16:29:08Z</time>
      </trkpt>
      <trkpt lat="47.31487" lon="6.03693">
        <ele>467</ele>
        <time>2025-06-24T16:29:20Z</time>
      </trkpt>
      <trkpt lat="47.31495" lon="6.0371">
        <ele>463</ele>
        <time>2025-06-24T16:29:38Z</time>
      </trkpt>
      <trkpt lat="47.31509" lon="6.03714">
        <ele>460</ele>
        <time>2025-06-24T16:29:55Z</time>
      </trkpt>
      <trkpt lat="47.31521" lon="6.03724">
        <ele>456</ele>
        <time>2025-06-24T16:30:05Z</time>
      </trkpt>
      <trkpt lat="47.31536" lon="6.03725">
        <ele>454</ele>
        <time>2025-06-24T16:30:17Z</time>
      </trkpt>
      <trkpt lat="47.3155" lon="6.03732">
        <ele>451</ele>
        <time>2025-06-24T16:30:27Z</time>
      </trkpt>
      <trkpt lat="47.31564" lon="6.03733">
        <ele>450</ele>
        <time>2025-06-24T16:30:34Z</time>
      </trkpt>
      <trkpt lat="47.31578" lon="6.0373">
        <ele>444</ele>
        <time>2025-06-24T16:30:44Z</time>
      </trkpt>
      <trkpt lat="47.31592" lon="6.03733">
        <ele>444</ele>
        <time>2025-06-24T16:30:58Z</time>
      </trkpt>
      <trkpt lat="47.31605" lon="6.03725">
        <ele>438</ele>
        <time>2025-06-24T16:31:14Z</time>
      </trkpt>
      <trkpt lat="47.3162" lon="6.03728">
        <ele>438</ele>
        <time>2025-06-24T16:31:25Z</time>
      </trkpt>
      <trkpt lat="47.31628" lon="6.03744">
        <ele>437</ele>
        <time>2025-06-24T16:31:33Z</time>
      </trkpt>
      <trkpt lat="47.31643" lon="6.03741">
        <ele>433</ele>
        <time>2025-06-24T16:31:45Z</time>
      </trkpt>
      <trkpt lat="47.31655" lon="6.03752">
        <ele>430</ele>
        <time>2025-06-24T16:31:57Z</time>
      </trkpt>
      <trkpt lat="47.31667" lon="6.03744">
        <ele>429</ele>
        <time>2025-06-24T16:32:12Z</time>
      </trkpt>
      <trkpt lat="47.3168" lon="6.03736">
        <ele>428</ele>
        <time>2025-06-24T16:32:27Z</time>
      </trkpt>
      <trkpt lat="47.31687" lon="6.03752">
        <ele>426</ele>
        <time>2025-06-24T16:32:48Z</time>
      </trkpt>
      <trkpt lat="47.31687" lon="6.03773">
        <ele>422</ele>
        <time>2025-06-24T16:33:00Z</time>
      </trkpt>
      <trkpt lat="47.31681" lon="6.03792">
        <ele>422</ele>
        <time>2025-06-24T16:33:10Z</time>
      </trkpt>
      <trkpt lat="47.31678" lon="6.03812">
        <ele>417</ele>
        <time>2025-06-24T16:33:29Z</time>
      </trkpt>
      <trkpt lat="47.31671" lon="6.03829">
        <ele>418</ele>
        <time>2025-06-24T16:33:39Z</time>
      </trkpt>
      <trkpt lat="47.31668" lon="6.0385">
        <ele>415</ele>
        <time>2025-06-24T16:33:48Z</time>
      </trkpt>
      <trkpt lat="47.31666" lon="6.03872">
        <ele>412</ele>
        <time>2025-06-24T16:33:59Z</time>
      </trkpt>
      <trkpt lat="47.31678" lon="6.03883">
        <ele>411</ele>
        <time>2025-06-24T16:34:40Z</time>
      </trkpt>
      <trkpt lat="47.31693" lon="6.03884">
        <ele>408</ele>
        <time>2025-06-24T16:34:51Z</time>
      </trkpt>
      <trkpt lat="47.31707" lon="6.03884">
        <ele>408</ele>
        <time>2025-06-24T16:35:02Z</time>
      </trkpt>
      <trkpt lat="47.31721" lon="6.03886">
        <ele>408</ele>
        <time>2025-06-24T16:35:10Z</time>
      </trkpt>
      <trkpt lat="47.31738" lon="6.0388">
        <ele>404</ele>
        <time>2025-06-24T16:35:16Z</time>
      </trkpt>
      <trkpt lat="47.31755" lon="6.03895">
        <ele>402</ele>
        <time>2025-06-24T16:35:21Z</time>
      </trkpt>
      <trkpt lat="47.31768" lon="6.03902">
        <ele>400</ele>
        <time>2025-06-24T16:35:28Z</time>
      </trkpt>
      <trkpt lat="47.31781" lon="6.0391">
        <ele>399</ele>
        <time>2025-06-24T16:35:32Z</time>
      </trkpt>
      <trkpt lat="47.31793" lon="6.0392">
        <ele>397</ele>
        <time>2025-06-24T16:35:38Z</time>
      </trkpt>
      <trkpt lat="47.31807" lon="6.03933">
        <ele>394</ele>
        <time>2025-06-24T16:35:44Z</time>
      </trkpt>
      <trkpt lat="47.3182" lon="6.03941">
        <ele>392</ele>
        <time>2025-06-24T16:35:49Z</time>
      </trkpt>
      <trkpt lat="47.31833" lon="6.03946">
        <ele>388</ele>
        <time>2025-06-24T16:36:08Z</time>
      </trkpt>
      <trkpt lat="47.31845" lon="6.03958">
        <ele>387</ele>
        <time>2025-06-24T16:36:26Z</time>
      </trkpt>
      <trkpt lat="47.31854" lon="6.03973">
        <ele>384</ele>
        <time>2025-06-24T16:36:31Z</time>
      </trkpt>
      <trkpt lat="47.31868" lon="6.03981">
        <ele>383</ele>
        <time>2025-06-24T16:36:36Z</time>
      </trkpt>
      <trkpt lat="47.31881" lon="6.03982">
        <ele>380</ele>
        <time>2025-06-24T16:36:40Z</time>
      </trkpt>
      <trkpt lat="47.31894" lon="6.0399">
        <ele>381</ele>
        <time>2025-06-24T16:36:45Z</time>
      </trkpt>
      <trkpt lat="47.31907" lon="6.04001">
        <ele>378</ele>
        <time>2025-06-24T16:36:50Z</time>
      </trkpt>
      <trkpt lat="47.31919" lon="6.04013">
        <ele>379</ele>
        <time>2025-06-24T16:36:55Z</time>
      </trkpt>
      <trkpt lat="47.31932" lon="6.04023">
        <ele>375</ele>
        <time>2025-06-24T16:36:59Z</time>
      </trkpt>
      <trkpt lat="47.31946" lon="6.04028">
        <ele>375</ele>
        <time>2025-06-24T16:37:04Z</time>
      </trkpt>
      <trkpt lat="47.3196" lon="6.04028">
        <ele>371</ele>
        <time>2025-06-24T16:37:09Z</time>
      </trkpt>
      <trkpt lat="47.31974" lon="6.04031">
        <ele>374</ele>
        <time>2025-06-24T16:37:14Z</time>
      </trkpt>
      <trkpt lat="47.31988" lon="6.04035">
        <ele>371</ele>
        <time>2025-06-24T16:37:19Z</time>
      </trkpt>
      <trkpt lat="47.32002" lon="6.04034">
        <ele>370</ele>
        <time>2025-06-24T16:37:24Z</time>
      </trkpt>
      <trkpt lat="47.32016" lon="6.0403">
        <ele>370</ele>
        <time>2025-06-24T16:37:29Z</time>
      </trkpt>
      <trkpt lat="47.3203" lon="6.04027">
        <ele>371</ele>
        <time>2025-06-24T16:37:34Z</time>
      </trkpt>
      <trkpt lat="47.32044" lon="6.04028">
        <ele>368</ele>
        <time>2025-06-24T16:37:39Z</time>
      </trkpt>
      <trkpt lat="47.32058" lon="6.04032">
        <ele>366</ele>
        <time>2025-06-24T16:37:44Z</time>
      </trkpt>
      <trkpt lat="47.32072" lon="6.04035">
        <ele>362</ele>
        <time>2025-06-24T16:37:49Z</time>
      </trkpt>
      <trkpt lat="47.32086" lon="6.04033">
        <ele>360</ele>
        <time>2025-06-24T16:37:55Z</time>
      </trkpt>
      <trkpt lat="47.321" lon="6.04039">
        <ele>360</ele>
        <time>2025-06-24T16:38:04Z</time>
      </trkpt>
      <trkpt lat="47.32113" lon="6.04051">
        <ele>359</ele>
        <time>2025-06-24T16:38:11Z</time>
      </trkpt>
      <trkpt lat="47.32127" lon="6.0406">
        <ele>354</ele>
        <time>2025-06-24T16:38:18Z</time>
      </trkpt>
      <trkpt lat="47.3214" lon="6.04066">
        <ele>354</ele>
        <time>2025-06-24T16:38:22Z</time>
      </trkpt>
      <trkpt lat="47.32153" lon="6.04073">
        <ele>351</ele>
        <time>2025-06-24T16:38:27Z</time>
      </trkpt>
      <trkpt lat="47.32169" lon="6.04073">
        <ele>351</ele>
        <time>2025-06-24T16:38:32Z</time>
      </trkpt>
      <trkpt lat="47.32183" lon="6.0408">
        <ele>347</ele>
        <time>2025-06-24T16:38:37Z</time>
      </trkpt>
      <trkpt lat="47.32197" lon="6.04087">
        <ele>346</ele>
        <time>2025-06-24T16:38:42Z</time>
      </trkpt>
      <trkpt lat="47.32212" lon="6.04092">
        <ele>347</ele>
        <time>2025-06-24T16:38:47Z</time>
      </trkpt>
      <trkpt lat="47.32229" lon="6.04096">
        <ele>344</ele>
        <time>2025-06-24T16:38:56Z</time>
      </trkpt>
      <trkpt lat="47.32242" lon="6.0409">
        <ele>344</ele>
        <time>2025-06-24T16:39:05Z</time>
      </trkpt>
      <trkpt lat="47.32256" lon="6.04085">
        <ele>342</ele>
        <time>2025-06-24T16:39:13Z</time>
      </trkpt>
      <trkpt lat="47.32265" lon="6.04069">
        <ele>342</ele>
        <time>2025-06-24T16:39:18Z</time>
      </trkpt>
      <trkpt lat="47.32288" lon="6.04032">
        <ele>339</ele>
        <time>2025-06-24T16:39:29Z</time>
      </trkpt>
      <trkpt lat="47.32299" lon="6.04018">
        <ele>335</ele>
        <time>2025-06-24T16:39:34Z</time>
      </trkpt>
      <trkpt lat="47.32311" lon="6.04001">
        <ele>334</ele>
        <time>2025-06-24T16:39:39Z</time>
      </trkpt>
      <trkpt lat="47.32326" lon="6.03986">
        <ele>332</ele>
        <time>2025-06-24T16:39:45Z</time>
      </trkpt>
      <trkpt lat="47.32336" lon="6.03969">
        <ele>330</ele>
        <time>2025-06-24T16:39:50Z</time>
      </trkpt>
      <trkpt lat="47.32345" lon="6.03953">
        <ele>329</ele>
        <time>2025-06-24T16:39:56Z</time>
      </trkpt>
      <trkpt lat="47.32356" lon="6.0394">
        <ele>326</ele>
        <time>2025-06-24T16:40:05Z</time>
      </trkpt>
      <trkpt lat="47.32371" lon="6.03928">
        <ele>325</ele>
        <time>2025-06-24T16:40:13Z</time>
      </trkpt>
      <trkpt lat="47.32379" lon="6.03911">
        <ele>324</ele>
        <time>2025-06-24T16:40:18Z</time>
      </trkpt>
      <trkpt lat="47.32385" lon="6.03891">
        <ele>322</ele>
        <time>2025-06-24T16:40:24Z</time>
      </trkpt>
      <trkpt lat="47.32394" lon="6.03874">
        <ele>321</ele>
        <time>2025-06-24T16:40:29Z</time>
      </trkpt>
      <trkpt lat="47.32406" lon="6.03862">
        <ele>321</ele>
        <time>2025-06-24T16:40:34Z</time>
      </trkpt>
      <trkpt lat="47.3242" lon="6.03848">
        <ele>320</ele>
        <time>2025-06-24T16:40:40Z</time>
      </trkpt>
      <trkpt lat="47.32431" lon="6.03834">
        <ele>318</ele>
        <time>2025-06-24T16:40:45Z</time>
      </trkpt>
      <trkpt lat="47.32441" lon="6.03818">
        <ele>319</ele>
        <time>2025-06-24T16:40:50Z</time>
      </trkpt>
      <trkpt lat="47.32445" lon="6.03797">
        <ele>315</ele>
        <time>2025-06-24T16:41:00Z</time>
      </trkpt>
      <trkpt lat="47.32456" lon="6.03785">
        <ele>316</ele>
        <time>2025-06-24T16:41:10Z</time>
      </trkpt>
      <trkpt lat="47.32468" lon="6.03774">
        <ele>314</ele>
        <time>2025-06-24T16:41:22Z</time>
      </trkpt>
      <trkpt lat="47.32474" lon="6.03754">
        <ele>314</ele>
        <time>2025-06-24T16:41:32Z</time>
      </trkpt>
      <trkpt lat="47.32479" lon="6.03734">
        <ele>313</ele>
        <time>2025-06-24T16:41:42Z</time>
      </trkpt>
      <trkpt lat="47.32485" lon="6.03715">
        <ele>311</ele>
        <time>2025-06-24T16:41:52Z</time>
      </trkpt>
      <trkpt lat="47.32494" lon="6.03701">
        <ele>315</ele>
        <time>2025-06-24T16:42:00Z</time>
      </trkpt>
      <trkpt lat="47.32506" lon="6.03687">
        <ele>313</ele>
        <time>2025-06-24T16:42:07Z</time>
      </trkpt>
      <trkpt lat="47.32514" lon="6.03671">
        <ele>312</ele>
        <time>2025-06-24T16:42:12Z</time>
      </trkpt>
      <trkpt lat="47.32526" lon="6.03662">
        <ele>311</ele>
        <time>2025-06-24T16:42:17Z</time>
      </trkpt>
      <trkpt lat="47.32539" lon="6.03654">
        <ele>310</ele>
        <time>2025-06-24T16:42:22Z</time>
      </trkpt>
      <trkpt lat="47.32551" lon="6.03645">
        <ele>310</ele>
        <time>2025-06-24T16:42:28Z</time>
      </trkpt>
      <trkpt lat="47.32564" lon="6.03636">
        <ele>310</ele>
        <time>2025-06-24T16:42:33Z</time>
      </trkpt>
      <trkpt lat="47.32577" lon="6.03624">
        <ele>308</ele>
        <time>2025-06-24T16:42:39Z</time>
      </trkpt>
      <trkpt lat="47.32586" lon="6.03608">
        <ele>307</ele>
        <time>2025-06-24T16:42:44Z</time>
      </trkpt>
      <trkpt lat="47.32596" lon="6.03593">
        <ele>307</ele>
        <time>2025-06-24T16:42:49Z</time>
      </trkpt>
      <trkpt lat="47.32607" lon="6.03579">
        <ele>307</ele>
        <time>2025-06-24T16:42:54Z</time>
      </trkpt>
      <trkpt lat="47.32617" lon="6.03562">
        <ele>306</ele>
        <time>2025-06-24T16:42:59Z</time>
      </trkpt>
      <trkpt lat="47.32624" lon="6.03545">
        <ele>307</ele>
        <time>2025-06-24T16:43:04Z</time>
      </trkpt>
      <trkpt lat="47.32635" lon="6.0353">
        <ele>306</ele>
        <time>2025-06-24T16:43:09Z</time>
      </trkpt>
      <trkpt lat="47.32646" lon="6.03518">
        <ele>306</ele>
        <time>2025-06-24T16:43:14Z</time>
      </trkpt>
      <trkpt lat="47.32656" lon="6.03503">
        <ele>306</ele>
        <time>2025-06-24T16:43:19Z</time>
      </trkpt>
      <trkpt lat="47.32668" lon="6.03492">
        <ele>305</ele>
        <time>2025-06-24T16:43:25Z</time>
      </trkpt>
      <trkpt lat="47.3268" lon="6.03483">
        <ele>305</ele>
        <time>2025-06-24T16:43:30Z</time>
      </trkpt>
      <trkpt lat="47.32692" lon="6.03471">
        <ele>304</ele>
        <time>2025-06-24T16:43:36Z</time>
      </trkpt>
      <trkpt lat="47.32702" lon="6.03457">
        <ele>302</ele>
        <time>2025-06-24T16:43:41Z</time>
      </trkpt>
      <trkpt lat="47.32707" lon="6.03437">
        <ele>302</ele>
        <time>2025-06-24T16:43:47Z</time>
      </trkpt>
      <trkpt lat="47.32713" lon="6.03416">
        <ele>301</ele>
        <time>2025-06-24T16:43:53Z</time>
      </trkpt>
      <trkpt lat="47.32721" lon="6.03397">
        <ele>301</ele>
        <time>2025-06-24T16:43:58Z</time>
      </trkpt>
      <trkpt lat="47.32731" lon="6.03384">
        <ele>301</ele>
        <time>2025-06-24T16:44:03Z</time>
      </trkpt>
      <trkpt lat="47.32746" lon="6.03383">
        <ele>299</ele>
        <time>2025-06-24T16:44:09Z</time>
      </trkpt>
      <trkpt lat="47.3276" lon="6.03387">
        <ele>300</ele>
        <time>2025-06-24T16:44:14Z</time>
      </trkpt>
      <trkpt lat="47.32773" lon="6.03392">
        <ele>298</ele>
        <time>2025-06-24T16:44:25Z</time>
      </trkpt>
      <trkpt lat="47.32787" lon="6.03396">
        <ele>297</ele>
        <time>2025-06-24T16:44:43Z</time>
      </trkpt>
      <trkpt lat="47.328" lon="6.03392">
        <ele>296</ele>
        <time>2025-06-24T16:44:53Z</time>
      </trkpt>
      <trkpt lat="47.32813" lon="6.03383">
        <ele>295</ele>
        <time>2025-06-24T16:45:04Z</time>
      </trkpt>
      <trkpt lat="47.32818" lon="6.03362">
        <ele>294</ele>
        <time>2025-06-24T16:45:15Z</time>
      </trkpt>
      <trkpt lat="47.32818" lon="6.03342">
        <ele>299</ele>
        <time>2025-06-24T16:45:31Z</time>
      </trkpt>
      <trkpt lat="47.32811" lon="6.03325">
        <ele>295</ele>
        <time>2025-06-24T16:45:42Z</time>
      </trkpt>
      <trkpt lat="47.32804" lon="6.03308">
        <ele>295</ele>
        <time>2025-06-24T16:45:51Z</time>
      </trkpt>
      <trkpt lat="47.32799" lon="6.03288">
        <ele>295</ele>
        <time>2025-06-24T16:46:00Z</time>
      </trkpt>
      <trkpt lat="47.32796" lon="6.03268">
        <ele>296</ele>
        <time>2025-06-24T16:46:08Z</time>
      </trkpt>
      <trkpt lat="47.32791" lon="6.03248">
        <ele>294</ele>
        <time>2025-06-24T16:46:16Z</time>
      </trkpt>
      <trkpt lat="47.32787" lon="6.03228">
        <ele>294</ele>
        <time>2025-06-24T16:46:25Z</time>
      </trkpt>
      <trkpt lat="47.32784" lon="6.03207">
        <ele>295</ele>
        <time>2025-06-24T16:46:34Z</time>
      </trkpt>
      <trkpt lat="47.32782" lon="6.03187">
        <ele>294</ele>
        <time>2025-06-24T16:46:43Z</time>
      </trkpt>
      <trkpt lat="47.3278" lon="6.03167">
        <ele>293</ele>
        <time>2025-06-24T16:46:52Z</time>
      </trkpt>
      <trkpt lat="47.32775" lon="6.03145">
        <ele>294</ele>
        <time>2025-06-24T16:47:01Z</time>
      </trkpt>
      <trkpt lat="47.32771" lon="6.03126">
        <ele>294</ele>
        <time>2025-06-24T16:47:08Z</time>
      </trkpt>
      <trkpt lat="47.32767" lon="6.03106">
        <ele>293</ele>
        <time>2025-06-24T16:47:13Z</time>
      </trkpt>
      <trkpt lat="47.32763" lon="6.03085">
        <ele>293</ele>
        <time>2025-06-24T16:47:19Z</time>
      </trkpt>
      <trkpt lat="47.32758" lon="6.03066">
        <ele>292</ele>
        <time>2025-06-24T16:47:24Z</time>
      </trkpt>
      <trkpt lat="47.32756" lon="6.03044">
        <ele>293</ele>
        <time>2025-06-24T16:47:30Z</time>
      </trkpt>
      <trkpt lat="47.32746" lon="6.03029">
        <ele>290</ele>
        <time>2025-06-24T16:47:40Z</time>
      </trkpt>
      <trkpt lat="47.32743" lon="6.03008">
        <ele>290</ele>
        <time>2025-06-24T16:47:48Z</time>
      </trkpt>
      <trkpt lat="47.3274" lon="6.02988">
        <ele>290</ele>
        <time>2025-06-24T16:47:56Z</time>
      </trkpt>
      <trkpt lat="47.32737" lon="6.02967">
        <ele>289</ele>
        <time>2025-06-24T16:48:06Z</time>
      </trkpt>
      <trkpt lat="47.32733" lon="6.02946">
        <ele>288</ele>
        <time>2025-06-24T16:48:15Z</time>
      </trkpt>
      <trkpt lat="47.32729" lon="6.02926">
        <ele>290</ele>
        <time>2025-06-24T16:48:24Z</time>
      </trkpt>
      <trkpt lat="47.32726" lon="6.02904">
        <ele>290</ele>
        <time>2025-06-24T16:48:33Z</time>
      </trkpt>
      <trkpt lat="47.32721" lon="6.02883">
        <ele>288</ele>
        <time>2025-06-24T16:48:43Z</time>
      </trkpt>
      <trkpt lat="47.32718" lon="6.02857">
        <ele>288</ele>
        <time>2025-06-24T16:48:55Z</time>
      </trkpt>
      <trkpt lat="47.32714" lon="6.02828">
        <ele>288</ele>
        <time>2025-06-24T16:49:07Z</time>
      </trkpt>
      <trkpt lat="47.32709" lon="6.02808">
        <ele>287</ele>
        <time>2025-06-24T16:49:17Z</time>
      </trkpt>
      <trkpt lat="47.32706" lon="6.02788">
        <ele>287</ele>
        <time>2025-06-24T16:49:26Z</time>
      </trkpt>
      <trkpt lat="47.32703" lon="6.02766">
        <ele>287</ele>
        <time>2025-06-24T16:49:35Z</time>
      </trkpt>
      <trkpt lat="47.32697" lon="6.02747">
        <ele>285</ele>
        <time>2025-06-24T16:49:43Z</time>
      </trkpt>
      <trkpt lat="47.32692" lon="6.02729">
        <ele>285</ele>
        <time>2025-06-24T16:49:52Z</time>
      </trkpt>
      <trkpt lat="47.32687" lon="6.02709">
        <ele>285</ele>
        <time>2025-06-24T16:50:00Z</time>
      </trkpt>
      <trkpt lat="47.32684" lon="6.0269">
        <ele>284</ele>
        <time>2025-06-24T16:50:08Z</time>
      </trkpt>
      <trkpt lat="47.32681" lon="6.0267">
        <ele>283</ele>
        <time>2025-06-24T16:50:16Z</time>
      </trkpt>
      <trkpt lat="47.32681" lon="6.0265">
        <ele>283</ele>
        <time>2025-06-24T16:50:25Z</time>
      </trkpt>
      <trkpt lat="47.3268" lon="6.0263">
        <ele>283</ele>
        <time>2025-06-24T16:50:34Z</time>
      </trkpt>
      <trkpt lat="47.32676" lon="6.0261">
        <ele>283</ele>
        <time>2025-06-24T16:50:43Z</time>
      </trkpt>
      <trkpt lat="47.32672" lon="6.02589">
        <ele>282</ele>
        <time>2025-06-24T16:50:53Z</time>
      </trkpt>
      <trkpt lat="47.32669" lon="6.0257">
        <ele>283</ele>
        <time>2025-06-24T16:51:02Z</time>
      </trkpt>
      <trkpt lat="47.32666" lon="6.02549">
        <ele>282</ele>
        <time>2025-06-24T16:51:11Z</time>
      </trkpt>
      <trkpt lat="47.3266" lon="6.02531">
        <ele>282</ele>
        <time>2025-06-24T16:51:21Z</time>
      </trkpt>
      <trkpt lat="47.32657" lon="6.02512">
        <ele>282</ele>
        <time>2025-06-24T16:51:28Z</time>
      </trkpt>
      <trkpt lat="47.32653" lon="6.02492">
        <ele>283</ele>
        <time>2025-06-24T16:51:36Z</time>
      </trkpt>
      <trkpt lat="47.3265" lon="6.02472">
        <ele>282</ele>
        <time>2025-06-24T16:51:44Z</time>
      </trkpt>
      <trkpt lat="47.32648" lon="6.02451">
        <ele>281</ele>
        <time>2025-06-24T16:51:53Z</time>
      </trkpt>
      <trkpt lat="47.32643" lon="6.02433">
        <ele>282</ele>
        <time>2025-06-24T16:52:01Z</time>
      </trkpt>
      <trkpt lat="47.3263" lon="6.02425">
        <ele>283</ele>
        <time>2025-06-24T16:52:11Z</time>
      </trkpt>
      <trkpt lat="47.32618" lon="6.02417">
        <ele>282</ele>
        <time>2025-06-24T16:52:21Z</time>
      </trkpt>
      <trkpt lat="47.32622" lon="6.02436">
        <ele>283</ele>
        <time>2025-06-24T16:52:50Z</time>
      </trkpt>
      <trkpt lat="47.32626" lon="6.02456">
        <ele>283</ele>
        <time>2025-06-24T16:53:01Z</time>
      </trkpt>
      <trkpt lat="47.32622" lon="6.02437">
        <ele>285</ele>
        <time>2025-06-24T16:53:51Z</time>
      </trkpt>
      <trkpt lat="47.32617" lon="6.02418">
        <ele>284</ele>
        <time>2025-06-24T16:54:01Z</time>
      </trkpt>
      <trkpt lat="47.3262" lon="6.02439">
        <ele>282</ele>
        <time>2025-06-24T16:55:02Z</time>
      </trkpt>
      <trkpt lat="47.32618" lon="6.02419">
        <ele>283</ele>
        <time>2025-06-24T16:56:02Z</time>
      </trkpt>
      <trkpt lat="47.32631" lon="6.0241">
        <ele>280</ele>
        <time>2025-06-24T16:56:18Z</time>
      </trkpt>
      <trkpt lat="47.32648" lon="6.02404">
        <ele>278</ele>
        <time>2025-06-24T16:56:27Z</time>
      </trkpt>
      <trkpt lat="47.32662" lon="6.02405">
        <ele>279</ele>
        <time>2025-06-24T16:56:34Z</time>
      </trkpt>
      <trkpt lat="47.32672" lon="6.02392">
        <ele>279</ele>
        <time>2025-06-24T16:56:42Z</time>
      </trkpt>
      <trkpt lat="47.32678" lon="6.02373">
        <ele>281</ele>
        <time>2025-06-24T16:56:51Z</time>
      </trkpt>
      <trkpt lat="47.32685" lon="6.02356">
        <ele>279</ele>
        <time>2025-06-24T16:56:58Z</time>
      </trkpt>
      <trkpt lat="47.32692" lon="6.02337">
        <ele>279</ele>
        <time>2025-06-24T16:57:08Z</time>
      </trkpt>
      <trkpt lat="47.32702" lon="6.02323">
        <ele>277</ele>
        <time>2025-06-24T16:57:16Z</time>
      </trkpt>
      <trkpt lat="47.32716" lon="6.0232">
        <ele>278</ele>
        <time>2025-06-24T16:57:25Z</time>
      </trkpt>
      <trkpt lat="47.32729" lon="6.02315">
        <ele>277</ele>
        <time>2025-06-24T16:57:35Z</time>
      </trkpt>
      <trkpt lat="47.32742" lon="6.02311">
        <ele>277</ele>
        <time>2025-06-24T16:57:43Z</time>
      </trkpt>
      <trkpt lat="47.32756" lon="6.02306">
        <ele>275</ele>
        <time>2025-06-24T16:57:52Z</time>
      </trkpt>
      <trkpt lat="47.3277" lon="6.02305">
        <ele>277</ele>
        <time>2025-06-24T16:58:01Z</time>
      </trkpt>
      <trkpt lat="47.32782" lon="6.02313">
        <ele>277</ele>
        <time>2025-06-24T16:58:10Z</time>
      </trkpt>
      <trkpt lat="47.32794" lon="6.02323">
        <ele>277</ele>
        <time>2025-06-24T16:58:19Z</time>
      </trkpt>
      <trkpt lat="47.32807" lon="6.02331">
        <ele>277</ele>
        <time>2025-06-24T16:58:29Z</time>
      </trkpt>
      <trkpt lat="47.32819" lon="6.02318">
        <ele>276</ele>
        <time>2025-06-24T16:58:39Z</time>
      </trkpt>
      <trkpt lat="47.32827" lon="6.023">
        <ele>273</ele>
        <time>2025-06-24T16:58:49Z</time>
      </trkpt>
      <trkpt lat="47.32841" lon="6.023">
        <ele>272</ele>
        <time>2025-06-24T16:59:01Z</time>
      </trkpt>
      <trkpt lat="47.32853" lon="6.02312">
        <ele>273</ele>
        <time>2025-06-24T16:59:13Z</time>
      </trkpt>
      <trkpt lat="47.32866" lon="6.02323">
        <ele>271</ele>
        <time>2025-06-24T16:59:23Z</time>
      </trkpt>
      <trkpt lat="47.3288" lon="6.02333">
        <ele>269</ele>
        <time>2025-06-24T16:59:32Z</time>
      </trkpt>
      <trkpt lat="47.32893" lon="6.02345">
        <ele>273</ele>
        <time>2025-06-24T16:59:38Z</time>
      </trkpt>
      <trkpt lat="47.32916" lon="6.02354">
        <ele>272</ele>
        <time>2025-06-24T16:59:46Z</time>
      </trkpt>
      <trkpt lat="47.32934" lon="6.0238">
        <ele>272</ele>
        <time>2025-06-24T16:59:56Z</time>
      </trkpt>
      <trkpt lat="47.32948" lon="6.0239">
        <ele>272</ele>
        <time>2025-06-24T17:00:02Z</time>
      </trkpt>
      <trkpt lat="47.32961" lon="6.0239">
        <ele>270</ele>
        <time>2025-06-24T17:00:11Z</time>
      </trkpt>
      <trkpt lat="47.32974" lon="6.02397">
        <ele>270</ele>
        <time>2025-06-24T17:00:19Z</time>
      </trkpt>
      <trkpt lat="47.32987" lon="6.02408">
        <ele>270</ele>
        <time>2025-06-24T17:00:28Z</time>
      </trkpt>
      <trkpt lat="47.32998" lon="6.02421">
        <ele>268</ele>
        <time>2025-06-24T17:00:38Z</time>
      </trkpt>
      <trkpt lat="47.33009" lon="6.02436">
        <ele>269</ele>
        <time>2025-06-24T17:00:47Z</time>
      </trkpt>
      <trkpt lat="47.33021" lon="6.02445">
        <ele>269</ele>
        <time>2025-06-24T17:00:56Z</time>
      </trkpt>
      <trkpt lat="47.33035" lon="6.02451">
        <ele>269</ele>
        <time>2025-06-24T17:01:04Z</time>
      </trkpt>
      <trkpt lat="47.33049" lon="6.02446">
        <ele>269</ele>
        <time>2025-06-24T17:01:13Z</time>
      </trkpt>
      <trkpt lat="47.33061" lon="6.02455">
        <ele>268</ele>
        <time>2025-06-24T17:01:23Z</time>
      </trkpt>
      <trkpt lat="47.3307" lon="6.02438">
        <ele>268</ele>
        <time>2025-06-24T17:01:32Z</time>
      </trkpt>
      <trkpt lat="47.33064" lon="6.02417">
        <ele>269</ele>
        <time>2025-06-24T17:01:40Z</time>
      </trkpt>
      <trkpt lat="47.33058" lon="6.02398">
        <ele>268</ele>
        <time>2025-06-24T17:01:49Z</time>
      </trkpt>
      <trkpt lat="47.33053" lon="6.02379">
        <ele>272</ele>
        <time>2025-06-24T17:01:58Z</time>
      </trkpt>
      <trkpt lat="47.33054" lon="6.02358">
        <ele>269</ele>
        <time>2025-06-24T17:02:06Z</time>
      </trkpt>
      <trkpt lat="47.33046" lon="6.02334">
        <ele>269</ele>
        <time>2025-06-24T17:02:14Z</time>
      </trkpt>
      <trkpt lat="47.33042" lon="6.02313">
        <ele>269</ele>
        <time>2025-06-24T17:02:19Z</time>
      </trkpt>
      <trkpt lat="47.33036" lon="6.02294">
        <ele>268</ele>
        <time>2025-06-24T17:02:24Z</time>
      </trkpt>
      <trkpt lat="47.33031" lon="6.02275">
        <ele>268</ele>
        <time>2025-06-24T17:02:29Z</time>
      </trkpt>
      <trkpt lat="47.33027" lon="6.02255">
        <ele>268</ele>
        <time>2025-06-24T17:02:35Z</time>
      </trkpt>
      <trkpt lat="47.33024" lon="6.02232">
        <ele>268</ele>
        <time>2025-06-24T17:02:41Z</time>
      </trkpt>
      <trkpt lat="47.33021" lon="6.02212">
        <ele>268</ele>
        <time>2025-06-24T17:02:46Z</time>
      </trkpt>
      <trkpt lat="47.33018" lon="6.02191">
        <ele>268</ele>
        <time>2025-06-24T17:02:52Z</time>
      </trkpt>
      <trkpt lat="47.33013" lon="6.02173">
        <ele>267</ele>
        <time>2025-06-24T17:03:01Z</time>
      </trkpt>
      <trkpt lat="47.3301" lon="6.02153">
        <ele>267</ele>
        <time>2025-06-24T17:03:10Z</time>
      </trkpt>
      <trkpt lat="47.33008" lon="6.02133">
        <ele>267</ele>
        <time>2025-06-24T17:03:19Z</time>
      </trkpt>
      <trkpt lat="47.33005" lon="6.02112">
        <ele>267</ele>
        <time>2025-06-24T17:03:28Z</time>
      </trkpt>
      <trkpt lat="47.33001" lon="6.02093">
        <ele>267</ele>
        <time>2025-06-24T17:03:37Z</time>
      </trkpt>
      <trkpt lat="47.32999" lon="6.02073">
        <ele>267</ele>
        <time>2025-06-24T17:03:45Z</time>
      </trkpt>
      <trkpt lat="47.32997" lon="6.02053">
        <ele>267</ele>
        <time>2025-06-24T17:03:52Z</time>
      </trkpt>
      <trkpt lat="47.32996" lon="6.02032">
        <ele>267</ele>
        <time>2025-06-24T17:03:58Z</time>
      </trkpt>
      <trkpt lat="47.32994" lon="6.02012">
        <ele>267</ele>
        <time>2025-06-24T17:04:03Z</time>
      </trkpt>
      <trkpt lat="47.32989" lon="6.01993">
        <ele>267</ele>
        <time>2025-06-24T17:04:08Z</time>
      </trkpt>
      <trkpt lat="47.32985" lon="6.01973">
        <ele>267</ele>
        <time>2025-06-24T17:04:14Z</time>
      </trkpt>
      <trkpt lat="47.32982" lon="6.01952">
        <ele>267</ele>
        <time>2025-06-24T17:04:20Z</time>
      </trkpt>
      <trkpt lat="47.32976" lon="6.01933">
        <ele>267</ele>
        <time>2025-06-24T17:04:25Z</time>
      </trkpt>
      <trkpt lat="47.32972" lon="6.01913">
        <ele>267</ele>
        <time>2025-06-24T17:04:30Z</time>
      </trkpt>
      <trkpt lat="47.32969" lon="6.01894">
        <ele>268</ele>
        <time>2025-06-24T17:04:36Z</time>
      </trkpt>
      <trkpt lat="47.32966" lon="6.01874">
        <ele>268</ele>
        <time>2025-06-24T17:04:41Z</time>
      </trkpt>
      <trkpt lat="47.32962" lon="6.01855">
        <ele>268</ele>
        <time>2025-06-24T17:04:47Z</time>
      </trkpt>
      <trkpt lat="47.32959" lon="6.01834">
        <ele>267</ele>
        <time>2025-06-24T17:04:53Z</time>
      </trkpt>
      <trkpt lat="47.32956" lon="6.01814">
        <ele>268</ele>
        <time>2025-06-24T17:04:59Z</time>
      </trkpt>
      <trkpt lat="47.32953" lon="6.01795">
        <ele>268</ele>
        <time>2025-06-24T17:05:06Z</time>
      </trkpt>
      <trkpt lat="47.32949" lon="6.01775">
        <ele>269</ele>
        <time>2025-06-24T17:05:11Z</time>
      </trkpt>
      <trkpt lat="47.32946" lon="6.01754">
        <ele>269</ele>
        <time>2025-06-24T17:05:17Z</time>
      </trkpt>
      <trkpt lat="47.32942" lon="6.01735">
        <ele>268</ele>
        <time>2025-06-24T17:05:28Z</time>
      </trkpt>
      <trkpt lat="47.32937" lon="6.01715">
        <ele>269</ele>
        <time>2025-06-24T17:05:37Z</time>
      </trkpt>
      <trkpt lat="47.32934" lon="6.01695">
        <ele>269</ele>
        <time>2025-06-24T17:05:46Z</time>
      </trkpt>
      <trkpt lat="47.32932" lon="6.01675">
        <ele>269</ele>
        <time>2025-06-24T17:05:56Z</time>
      </trkpt>
      <trkpt lat="47.32927" lon="6.01655">
        <ele>269</ele>
        <time>2025-06-24T17:06:05Z</time>
      </trkpt>
      <trkpt lat="47.32924" lon="6.01635">
        <ele>269</ele>
        <time>2025-06-24T17:06:14Z</time>
      </trkpt>
      <trkpt lat="47.32917" lon="6.01616">
        <ele>267</ele>
        <time>2025-06-24T17:06:24Z</time>
      </trkpt>
      <trkpt lat="47.32916" lon="6.01596">
        <ele>270</ele>
        <time>2025-06-24T17:06:32Z</time>
      </trkpt>
      <trkpt lat="47.32914" lon="6.01576">
        <ele>272</ele>
        <time>2025-06-24T17:06:41Z</time>
      </trkpt>
      <trkpt lat="47.32912" lon="6.01554">
        <ele>270</ele>
        <time>2025-06-24T17:06:53Z</time>
      </trkpt>
      <trkpt lat="47.32908" lon="6.01533">
        <ele>271</ele>
        <time>2025-06-24T17:07:03Z</time>
      </trkpt>
      <trkpt lat="47.32904" lon="6.01514">
        <ele>271</ele>
        <time>2025-06-24T17:07:12Z</time>
      </trkpt>
      <trkpt lat="47.329" lon="6.01493">
        <ele>271</ele>
        <time>2025-06-24T17:07:22Z</time>
      </trkpt>
      <trkpt lat="47.32897" lon="6.01474">
        <ele>271</ele>
        <time>2025-06-24T17:07:31Z</time>
      </trkpt>
      <trkpt lat="47.32892" lon="6.01455">
        <ele>271</ele>
        <time>2025-06-24T17:07:40Z</time>
      </trkpt>
      <trkpt lat="47.32889" lon="6.01433">
        <ele>271</ele>
        <time>2025-06-24T17:07:51Z</time>
      </trkpt>
      <trkpt lat="47.32886" lon="6.01413">
        <ele>272</ele>
        <time>2025-06-24T17:07:59Z</time>
      </trkpt>
      <trkpt lat="47.32882" lon="6.01393">
        <ele>272</ele>
        <time>2025-06-24T17:08:07Z</time>
      </trkpt>
      <trkpt lat="47.32881" lon="6.01373">
        <ele>272</ele>
        <time>2025-06-24T17:08:16Z</time>
      </trkpt>
      <trkpt lat="47.32877" lon="6.01353">
        <ele>273</ele>
        <time>2025-06-24T17:08:26Z</time>
      </trkpt>
      <trkpt lat="47.32874" lon="6.01333">
        <ele>273</ele>
        <time>2025-06-24T17:08:37Z</time>
      </trkpt>
      <trkpt lat="47.32869" lon="6.01314">
        <ele>272</ele>
        <time>2025-06-24T17:08:46Z</time>
      </trkpt>
      <trkpt lat="47.32863" lon="6.01296">
        <ele>274</ele>
        <time>2025-06-24T17:08:56Z</time>
      </trkpt>
      <trkpt lat="47.32851" lon="6.01287">
        <ele>273</ele>
        <time>2025-06-24T17:09:07Z</time>
      </trkpt>
      <trkpt lat="47.32847" lon="6.01266">
        <ele>272</ele>
        <time>2025-06-24T17:09:17Z</time>
      </trkpt>
      <trkpt lat="47.32844" lon="6.01247">
        <ele>273</ele>
        <time>2025-06-24T17:09:26Z</time>
      </trkpt>
      <trkpt lat="47.32841" lon="6.01227">
        <ele>275</ele>
        <time>2025-06-24T17:09:35Z</time>
      </trkpt>
      <trkpt lat="47.32832" lon="6.01211">
        <ele>273</ele>
        <time>2025-06-24T17:09:45Z</time>
      </trkpt>
      <trkpt lat="47.32818" lon="6.0121">
        <ele>274</ele>
        <time>2025-06-24T17:09:54Z</time>
      </trkpt>
      <trkpt lat="47.32805" lon="6.01218">
        <ele>273</ele>
        <time>2025-06-24T17:10:03Z</time>
      </trkpt>
      <trkpt lat="47.32793" lon="6.01206">
        <ele>273</ele>
        <time>2025-06-24T17:10:13Z</time>
      </trkpt>
      <trkpt lat="47.32793" lon="6.01186">
        <ele>274</ele>
        <time>2025-06-24T17:10:21Z</time>
      </trkpt>
      <trkpt lat="47.32795" lon="6.01165">
        <ele>274</ele>
        <time>2025-06-24T17:10:31Z</time>
      </trkpt>
      <trkpt lat="47.32795" lon="6.01143">
        <ele>275</ele>
        <time>2025-06-24T17:10:41Z</time>
      </trkpt>
      <trkpt lat="47.32792" lon="6.01123">
        <ele>276</ele>
        <time>2025-06-24T17:10:54Z</time>
      </trkpt>
    </trkseg>
  </trk>
</gpx>